[[[{"header":{"parameterUnit":"kt","parameterCategory":2,"dx":1,"dy":1,"la1":29.587661999999998,"la2":31.0,"lo1":-88.76705300000003,"lo2":-86.6583820000003,"nx":115,"ny":88,"refTime":"2022-10-27T18:00:00:Z","depth":0,"parameterNumber":1,"parameterNumberName":"U-component_of_WINDS"},"data":[-14.7102,-14.7075,-14.6936,-14.7182,-14.7453,-14.6447,-14.6962,-14.8758,-14.8914,-14.9521,-15.1131,-15.2226,-15.2612,-15.2612,-15.2612,-15.2612,-15.2612,-15.2612,-15.2612,-15.2612,-15.2612,-15.2612,-15.2741,-15.2999,-15.4351,-15.5896,-15.7442,-15.8513,-15.9937,-16.0211,-15.994,-15.8751,-15.851,-15.6784,-15.4662,-15.3696,-15.2963,-15.167,-15.0042,-14.7838,-14.5115,-14.2827,-14.0033,-13.9527,-13.949,-14.028,-14.0788,-14.1126,-14.1183,-14.1183,-14.1183,-14.1183,-14.1183,-14.1183,-14.1183,-14.1183,-14.057,-14.0431,-13.9872,-13.9169,-13.7268,-13.6551,-13.4613,-13.1515,-12.7838,-12.4489,-12.2287,-11.9945,-11.9027,-11.7453,-11.7127,-11.7127,-11.6963,-11.6963,-11.6963,-11.6963,-11.6636,-11.6473,-11.6145,-11.5652,-11.5323,-11.4829,-11.4213,-11.367,-11.3171,-11.2716,-11.2047,-11.2047,-11.188,-11.188,-11.1712,-11.1712,-11.1712,-11.1712,-11.1712,-11.1712,-11.1544,-11.1544,-11.0659,-10.7349,-10.3693,-10.0026,-9.7197,-9.5196,-9.2721,-9.1123,-9.0572,-9.0712,-9.0402,-9.0616,-9.1008,-9.1293,-9.1329,-9.1329,-9.1096,-14.7102,-14.7272,-14.7824,-14.8065,-14.7778,-14.8263,-14.9389,-15.0518,-15.037,-15.0938,-15.2226,-15.2483,-15.2612,-15.2612,-15.2612,-15.2612,-15.2612,-15.2612,-15.2612,-15.2612,-15.2612,-15.2612,-15.2612,-15.2677,-15.3643,-15.5124,-15.7249,-15.8635,-15.9653,-15.9203,-15.8637,-15.7375,-15.609,-15.4662,-15.4542,-15.3452,-15.1607,-15.0179,-14.8547,-14.5908,-14.3608,-14.1671,-14.0263,-13.9909,-14.0223,-14.0901,-14.107,-14.1183,-14.1183,-14.1183,-14.1183,-14.1183,-14.1183,-14.1183,-14.1183,-14.057,-14.0012,-13.931,-13.8746,-13.7466,-13.5395,-13.3441,-13.176,-12.8904,-12.4907,-12.197,-12.0105,-11.8542,-11.7731,-11.7127,-11.7127,-11.6963,-11.6963,-11.6963,-11.6963,-11.68,-11.6309,-11.5771,-11.5159,-11.4498,-11.4333,-11.4002,-11.3504,-11.3171,-11.2671,-11.2047,-11.1712,-11.1712,-11.1712,-11.1712,-11.1712,-11.1712,-11.1712,-11.1712,-11.1712,-11.1712,-11.1544,-11.104,-10.9094,-10.4731,-10.0729,-9.773,-9.4697,-9.2212,-9.116,-9.0541,-8.999,-8.9582,-8.9475,-8.9547,-8.9903,-9.0224,-9.0331,-9.058,-9.0457,-14.6982,-14.6805,-14.7417,-14.8428,-14.9464,-14.8866,-14.9439,-15.0601,-15.059,-15.126,-15.2483,-15.2612,-15.2612,-15.2612,-15.2612,-15.2612,-15.2612,-15.2612,-15.2612,-15.2612,-15.2612,-15.2612,-15.2612,-15.2677,-15.3256,-15.4093,-15.6369,-15.8379,-15.9173,-15.8637,-15.7543,-15.6325,-15.5617,-15.4542,-15.3636,-15.2963,-15.1176,-14.8629,-14.7403,-14.4459,-14.1065,-13.9776,-13.9005,-13.9546,-13.9885,-14.0449,-14.0788,-14.1183,-14.1183,-14.1183,-14.1183,-14.1183,-14.1183,-14.0988,-14.0766,-13.9872,-13.8832,-13.7839,-13.6551,-13.4613,-13.2407,-13.0264,-12.8448,-12.6148,-12.2019,-11.9945,-11.8056,-11.7894,-11.7127,-11.6963,-11.6963,-11.6963,-11.6963,-11.6963,-11.68,-11.6473,-11.5817,-11.5159,-11.4333,-11.3836,-11.3504,-11.3216,-11.2883,-11.2382,-11.2215,-11.1712,-11.1712,-11.1712,-11.1712,-11.1712,-11.1712,-11.1712,-11.1712,-11.1712,-11.1712,-11.1544,-11.104,-10.9433,-10.7861,-10.3479,-9.9145,-9.5771,-9.2935,-9.116,-8.9921,-8.9556,-8.9556,-8.948,-8.9226,-8.919,-8.9262,-8.9333,-8.9475,-8.9761,-8.8944,-14.6702,-14.6362,-14.6902,-14.8613,-15.0675,-14.9854,-15.0101,-15.0938,-15.1002,-15.1543,-15.2483,-15.2612,-15.2612,-15.2612,-15.2612,-15.2612,-15.2612,-15.2612,-15.2612,-15.2612,-15.2612,-15.2612,-15.2612,-15.2612,-15.2677,-15.3514,-15.5105,-15.7416,-15.7563,-15.7623,-15.691,-15.526,-15.4301,-15.3636,-15.2656,-15.1479,-14.9668,-14.6898,-14.5452,-14.3155,-13.9889,-13.8497,-13.8418,-13.8982,-13.9885,-14.0506,-14.0788,-14.1183,-14.1183,-14.1183,-14.1183,-14.1183,-14.1044,-14.071,-13.9872,-13.8746,-13.7268,-13.5775,-13.4175,-13.176,-12.951,-12.7379,-12.5062,-12.2445,-12.0105,-11.8218,-11.7127,-11.7127,-11.6963,-11.6963,-11.6963,-11.6963,-11.6963,-11.68,-11.6636,-11.5981,-11.5323,-11.4498,-11.367,-11.3171,-11.2671,-11.2382,-11.2047,-11.188,-11.1712,-11.1712,-11.1712,-11.1712,-11.1712,-11.1712,-11.1712,-11.1712,-11.1712,-11.1544,-11.1376,-11.104,-10.9433,-10.7861,-10.4862,-10.1389,-9.773,-9.4555,-9.1523,-9.0104,-8.919,-8.9373,-8.9373,-8.919,-8.919,-8.919,-8.9226,-8.9262,-8.9333,-8.8818,-8.7574,-14.642,-14.6362,-14.6772,-14.8284,-15.0525,-15.1582,-15.2161,-15.2419,-15.229,-15.2444,-15.2612,-15.2612,-15.2612,-15.2612,-15.2612,-15.2612,-15.2612,-15.2612,-15.2612,-15.2612,-15.2612,-15.2612,-15.2612,-15.2612,-15.2612,-15.3578,-15.4806,-15.6065,-15.5591,-15.5414,-15.5141,-15.388,-15.284,-15.2037,-15.1229,-15.0095,-14.7996,-14.5422,-14.375,-14.2307,-13.9561,-13.949,-14.0449,-13.9772,-14.028,-14.0957,-14.1126,-14.1183,-14.1183,-14.1183,-14.1183,-14.1044,-14.0627,-14.0012,-13.8832,-13.7411,-13.5104,-13.3495,-13.1366,-12.8956,-12.6815,-12.4645,-12.2445,-12.0426,-11.9188,-11.7615,-11.7127,-11.6963,-11.6963,-11.6963,-11.6963,-11.68,-11.6473,-11.6309,-11.5771,-11.5323,-11.4664,-11.3836,-11.305,-11.2549,-11.2215,-11.2047,-11.1712,-11.1712,-11.1712,-11.1712,-11.1712,-11.1712,-11.1712,-11.1712,-11.1712,-11.1712,-11.1544,-11.1376,-11.0827,-10.9264,-10.769,-10.4689,-10.1214,-9.7907,-9.5413,-9.2754,-9.0286,-8.9739,-8.919,-8.919,-8.919,-8.919,-8.919,-8.919,-8.919,-8.919,-8.8824,-8.8126,-8.6883,-14.6042,-14.5731,-14.6609,-14.7444,-14.8334,-15.0358,-15.18,-15.2548,-15.2612,-15.2612,-15.2612,-15.2612,-15.2612,-15.2612,-15.2612,-15.2612,-15.2612,-15.2612,-15.2612,-15.2612,-15.2612,-15.2612,-15.2612,-15.2612,-15.2508,-15.2878,-15.3674,-15.4518,-15.4525,-15.4116,-15.3392,-15.2593,-15.1725,-15.0661,-14.9587,-14.8303,-14.6212,-14.427,-14.2527,-14.125,-14.053,-14.0618,-14.0844,-14.0618,-14.0788,-14.107,-14.1183,-14.1183,-14.0905,-14.0627,-14.0627,-14.0348,-13.9703,-13.9225,-13.8376,-13.554,-13.3052,-13.0819,-12.85,-12.6094,-12.3912,-12.186,-12.0105,-11.8704,-11.7778,-11.729,-11.7127,-11.6963,-11.6963,-11.6963,-11.68,-11.6473,-11.6145,-11.5606,-11.4948,-11.4498,-11.3836,-11.3171,-11.2549,-11.188,-11.1712,-11.1712,-11.1712,-11.1712,-11.1712,-11.1712,-11.1712,-11.1712,-11.1712,-11.1712,-11.1712,-11.1712,-11.1544,-11.0659,-10.8924,-10.7178,-10.4171,-10.0648,-9.769,-9.5413,-9.2935,-9.0796,-8.9921,-8.9556,-8.919,-8.919,-8.919,-8.919,-8.919,-8.919,-8.919,-8.857,-8.7985,-8.7101,-8.5927,-14.5727,-14.5152,-14.638,-14.6957,-14.7203,-14.9006,-15.0938,-15.2548,-15.2612,-15.2612,-15.2612,-15.2612,-15.2612,-15.2612,-15.2612,-15.2612,-15.2612,-15.2612,-15.2612,-15.2612,-15.2612,-15.2612,-15.2612,-15.2508,-15.2299,-15.2328,-15.2433,-15.285,-15.2905,-15.2739,-15.2045,-15.1164,-15.0028,-14.9135,-14.7914,-14.6608,-14.4404,-14.2561,-14.146,-14.068,-14.0653,-14.0597,-14.0653,-14.0736,-14.0988,-14.1126,-14.1044,-14.0905,-14.0627,-14.0068,-13.9928,-13.9703,-13.8857,-13.8376,-13.7378,-13.4282,-13.1269,-12.8551,-12.5834,-12.3648,-12.1909,-12.0153,-11.8704,-11.7615,-11.729,-11.7127,-11.7127,-11.68,-11.68,-11.6473,-11.6309,-11.5652,-11.4994,-11.4664,-11.4167,-11.3504,-11.2883,-11.2382,-11.2382,-11.188,-11.1712,-11.1712,-11.1712,-11.1712,-11.1712,-11.1712,-11.1712,-11.1712,-11.1712,-11.1712,-11.1712,-11.1544,-11.104,-10.9094,-10.7349,-10.4171,-10.0473,-9.7158,-9.5017,-9.2754,-9.116,-9.0286,-8.9556,-8.919,-8.919,-8.919,-8.919,-8.919,-8.919,-8.919,-8.8641,-8.7766,-8.6962,-8.5996,-8.4886,-14.544,-14.5216,-14.6019,-14.7046,-14.8105,-14.8362,-15.0101,-15.2548,-15.2612,-15.2612,-15.2612,-15.2612,-15.2612,-15.2612,-15.2612,-15.2612,-15.2612,-15.2612,-15.2404,-15.2404,-15.209,-15.1921,-15.209,-15.2113,-15.1734,-15.139,-15.1474,-15.1663,-15.0648,-15.0761,-15.0446,-14.9601,-14.8491,-14.7322,-14.5874,-14.427,-14.2504,-14.1598,-14.0627,-14.0348,-14.0208,-14.0068,-14.0068,-14.0208,-14.0487,-14.0766,-14.0627,-14.0348,-14.0068,-13.9647,-13.9281,-13.8998,-13.8376,-13.7411,-13.5884,-13.3548,-12.9817,-12.7174,-12.4588,-12.2178,-12.0474,-11.9188,-11.7941,-11.729,-11.6963,-11.6963,-11.6963,-11.68,-11.6473,-11.6099,-11.5606,-11.4829,-11.4002,-11.367,-11.3171,-11.2671,-11.2047,-11.188,-11.188,-11.188,-11.1712,-11.1712,-11.1712,-11.1712,-11.1712,-11.1712,-11.1712,-11.1712,-11.1712,-11.1712,-11.1544,-11.1208,-10.9264,-10.752,-10.4344,-10.1039,-9.7513,-9.43,-9.2212,-9.1342,-9.025,-8.9373,-8.919,-8.919,-8.919,-8.919,-8.919,-8.919,-8.919,-8.8457,-8.7907,-8.7067,-8.5789,-8.4818,-8.4178,-14.4957,-14.4535,-14.4855,-14.5207,-14.5851,-14.759,-14.9972,-15.229,-15.2612,-15.2612,-15.2612,-15.2612,-15.2508,-15.2508,-15.2612,-15.2612,-15.2612,-15.2508,-15.2299,-15.0861,-15.0861,-15.0261,-15.0036,-15.0167,-15.034,-15.0271,-15.0481,-15.051,-14.9543,-14.8991,-14.8583,-14.7947,-14.6929,-14.5608,-14.3865,-14.2504,-14.1183,-14.0627,-14.0068,-13.9788,-13.9562,-13.9422,-13.9422,-13.9422,-13.9703,-13.9788,-13.9647,-13.9422,-13.9139,-13.8376,-13.7378,-13.6372,-13.5648,-13.4429,-13.281,-13.162,-12.8907,-12.6866,-12.3598,-12.0954,-11.9188,-11.8056,-11.7453,-11.7127,-11.6963,-11.68,-11.68,-11.6636,-11.6145,-11.5817,-11.5488,-11.4002,-11.3337,-11.3171,-11.2671,-11.2215,-11.188,-11.188,-11.1712,-11.1712,-11.1712,-11.1712,-11.1712,-11.1712,-11.1712,-11.1712,-11.1712,-11.1712,-11.1712,-11.1544,-11.1208,-10.9433,-10.7349,-10.4171,-10.0648,-9.769,-9.4876,-9.1668,-9.0614,-8.9921,-8.919,-8.919,-8.919,-8.919,-8.919,-8.919,-8.919,-8.9007,-8.8824,-8.809,-8.7171,-8.5927,-8.4648,-8.401,-8.3654,-14.4666,-14.4275,-14.4275,-14.4692,-14.5787,-14.759,-14.965,-15.1711,-15.2419,-15.2612,-15.2508,-15.2404,-15.2299,-15.2195,-15.209,-15.1921,-15.1816,-15.171,-15.1074,-14.9611,-14.9112,-14.8057,-14.7911,-14.8472,-14.8634,-14.8281,-14.8341,-14.8261,-14.7773,-14.6995,-14.6553,-14.6283,-14.5391,-14.4,-14.2287,-14.0905,-14.0208,-13.9788,-13.9422,-13.9139,-13.8715,-13.8573,-13.8573,-13.8573,-13.8998,-13.9139,-13.9139,-13.8715,-13.8431,-13.8004,-13.6083,-13.5212,-13.4483,-13.2216,-13.0721,-12.9968,-12.7838,-12.6094,-12.3284,-11.9624,-11.7731,-11.6917,-11.6145,-11.5981,-11.6145,-11.6145,-11.6145,-11.5817,-11.4994,-11.4664,-11.4664,-11.3337,-11.2716,-11.2549,-11.2382,-11.188,-11.1712,-11.1712,-11.1712,-11.1712,-11.1712,-11.1712,-11.1712,-11.1712,-11.1712,-11.1712,-11.1712,-11.1712,-11.1208,-11.0872,-10.9264,-10.7178,-10.4344,-10.0648,-9.7474,-9.4876,-9.203,-9.0614,-8.9739,-8.919,-8.919,-8.919,-8.919,-8.919,-8.919,-8.919,-8.919,-8.919,-8.8641,-8.7539,-8.6249,-8.4886,-8.4044,-8.3554,-8.3129,-14.4795,-14.4339,-14.4404,-14.5851,-14.8169,-14.8362,-14.9264,-15.1067,-15.2097,-15.2508,-15.2468,-15.1985,-15.1774,-15.1669,-15.1287,-15.1181,-15.0968,-14.9937,-14.9175,-14.8562,-14.7674,-14.7051,-14.6836,-14.6805,-14.6857,-14.567,-14.6014,-14.6026,-14.4672,-14.4997,-14.4718,-14.4312,-14.4,-14.2971,-14.1183,-13.9703,-13.8998,-13.8857,-13.8234,-13.8004,-13.7862,-13.7862,-13.7807,-13.8004,-13.8289,-13.8431,-13.8431,-13.8004,-13.7521,-13.6804,-13.5067,-13.3896,-13.3306,-13.0721,-12.9211,-12.8755,-12.6299,-12.4432,-12.2909,-11.838,-11.617,-11.5421,-11.5113,-11.4691,-11.4407,-11.4544,-11.4709,-11.4829,-11.4002,-11.3337,-11.2838,-11.2382,-11.2047,-11.188,-11.188,-11.1712,-11.1712,-11.1712,-11.1712,-11.1712,-11.1712,-11.1712,-11.1712,-11.1712,-11.1712,-11.1712,-11.1712,-11.1208,-11.0491,-10.9094,-10.628,-10.3825,-10.0823,-9.7474,-9.4838,-9.2212,-9.0833,-8.9739,-8.919,-8.919,-8.919,-8.919,-8.919,-8.919,-8.919,-8.919,-8.919,-8.919,-8.8274,-8.7355,-8.5729,-8.4431,-8.3688,-8.3129,-8.3129,-14.6436,-14.6946,-14.6109,-14.7332,-14.9521,-14.8749,-14.9715,-15.1775,-15.2483,-15.2404,-15.1985,-15.1457,-15.1181,-15.1074,-15.0861,-15.0754,-15.0153,-14.9394,-14.8293,-14.7175,-14.5925,-14.4654,-14.4317,-14.4627,-14.5416,-14.5236,-14.5282,-14.5742,-14.5164,-14.4412,-14.4005,-14.352,-14.2743,-14.1403,-13.9788,-13.9139,-13.8715,-13.8289,-13.7807,-13.7664,-13.7146,-13.7146,-13.7091,-13.7091,-13.7433,-13.7521,-13.7433,-13.7091,-13.6516,-13.5358,-13.3749,-13.2216,-13.0571,-12.8755,-12.6967,-12.5834,-12.4432,-12.286,-12.0634,-11.7474,-11.5283,-11.4232,-11.3967,-11.3757,-11.3693,-11.3967,-11.4002,-11.4047,-11.3504,-11.3004,-11.3004,-11.2215,-11.1712,-11.1712,-11.1712,-11.1712,-11.1712,-11.1712,-11.1712,-11.1712,-11.1712,-11.1712,-11.1712,-11.1712,-11.1544,-11.1208,-11.0491,-10.9264,-10.8201,-10.5765,-10.3132,-10.0338,-9.7513,-9.4876,-9.2393,-9.116,-9.0104,-8.919,-8.919,-8.919,-8.919,-8.919,-8.919,-8.919,-8.919,-8.919,-8.8824,-8.8274,-8.7539,-8.6837,-8.5729,-8.4245,-8.3688,-8.3129,-8.3129,-14.7139,-14.8298,-14.804,-14.9264,-15.1196,-14.9779,-15.0487,-15.2419,-15.2612,-15.2299,-15.1774,-15.054,-14.9937,-14.972,-14.9503,-14.8846,-14.8625,-14.7625,-14.6496,-14.5235,-14.437,-14.331,-14.3312,-14.3788,-14.4377,-14.483,-14.51,-14.5389,-14.5028,-14.4428,-14.3769,-14.2685,-14.1265,-13.9703,-13.8998,-13.8431,-13.8004,-13.7521,-13.7235,-13.7235,-13.666,-13.666,-13.666,-13.666,-13.666,-13.666,-13.6516,-13.6083,-13.5358,-13.3989,-13.2216,-13.0872,-12.9514,-12.7071,-12.5524,-12.4695,-12.286,-12.1273,-11.951,-11.687,-11.4553,-11.3318,-11.305,-11.299,-11.2673,-11.2854,-11.3292,-11.3216,-11.2716,-11.2382,-11.2549,-11.2047,-11.1712,-11.1712,-11.1712,-11.1712,-11.1712,-11.1712,-11.1712,-11.1712,-11.1712,-11.1712,-11.1712,-11.1712,-11.104,-11.0322,-10.8585,-10.6836,-10.4731,-10.2262,-9.9986,-9.7158,-9.4697,-9.2212,-9.0796,-9.0104,-8.9373,-8.919,-8.919,-8.919,-8.919,-8.919,-8.9007,-8.9007,-8.9007,-8.9007,-8.8457,-8.7539,-8.6618,-8.588,-8.4988,-8.406,-8.3688,-8.3315,-8.3129,-14.7268,-14.862,-14.9779,-15.1067,-15.2419,-15.1067,-15.126,-15.2612,-15.2508,-15.2195,-15.1563,-14.9566,-14.8688,-14.8293,-14.7012,-14.6163,-14.5819,-14.4248,-14.413,-14.3541,-14.259,-14.2649,-14.2761,-14.3049,-14.3385,-14.4313,-14.4328,-14.3547,-14.2785,-14.3462,-14.2356,-14.1044,-13.9647,-13.8715,-13.8004,-13.7664,-13.7433,-13.6948,-13.6804,-13.666,-13.666,-13.666,-13.666,-13.666,-13.666,-13.6516,-13.6372,-13.5212,-13.4136,-13.3306,-13.1022,-12.9211,-12.7992,-12.5679,-12.3962,-12.281,-12.0954,-11.9349,-11.8056,-11.5771,-11.4002,-11.3004,-11.2247,-11.1644,-11.1632,-11.1656,-11.188,-11.2047,-11.2047,-11.188,-11.188,-11.1712,-11.1712,-11.1712,-11.1712,-11.1712,-11.1712,-11.1712,-11.1712,-11.1712,-11.1712,-11.1712,-11.1712,-11.0703,-10.9984,-10.8924,-10.7178,-10.4731,-10.2303,-9.8753,-9.6307,-9.4338,-9.1849,-9.0614,-8.9556,-8.9409,-8.919,-8.919,-8.919,-8.919,-8.9007,-8.9007,-8.9007,-8.8824,-8.8274,-8.8457,-8.8274,-8.6618,-8.5139,-8.4617,-8.4245,-8.3688,-8.3315,-8.3129,-8.3129,-14.8684,-14.9843,-14.9135,-15.0358,-15.2419,-15.1067,-15.1221,-15.2444,-15.209,-15.188,-15.1245,-14.9347,-14.7575,-14.6444,-14.5819,-14.5357,-14.5357,-14.4248,-14.3777,-14.3186,-14.259,-14.1986,-14.2155,-14.2619,-14.2944,-14.3238,-14.3547,-14.3279,-14.2752,-14.1968,-14.057,-13.866,-13.8431,-13.7719,-13.7091,-13.6948,-13.7002,-13.666,-13.666,-13.666,-13.666,-13.666,-13.666,-13.666,-13.6516,-13.6083,-13.5067,-13.4282,-13.2662,-13.1321,-12.9211,-12.7532,-12.5939,-12.3805,-12.2068,-12.0266,-11.8704,-11.708,-11.5652,-11.4498,-11.3504,-11.2612,-11.1677,-11.0864,-11.0819,-11.1355,-11.1712,-11.1712,-11.1712,-11.1712,-11.1712,-11.1712,-11.1712,-11.1712,-11.1712,-11.1712,-11.1712,-11.1712,-11.1712,-11.1712,-11.1712,-11.1712,-11.0703,-10.9646,-10.8415,-10.7349,-10.5291,-10.2651,-9.9145,-9.4914,-9.2935,-9.1523,-9.0104,-8.9739,-8.919,-8.919,-8.919,-8.919,-8.919,-8.9007,-8.8457,-8.8457,-8.8457,-8.809,-8.7539,-8.7355,-8.6803,-8.5173,-8.3688,-8.3874,-8.3874,-8.3501,-8.3129,-8.3129,-8.3129,-14.862,-15.0423,-14.965,-15.0552,-15.2315,-15.1464,-15.1111,-15.0947,-15.069,-15.0045,-14.8893,-14.8008,-14.661,-14.4948,-14.4191,-14.4074,-14.3838,-14.3127,-14.2889,-14.253,-14.1989,-14.1619,-14.1787,-14.2353,-14.3149,-14.3359,-14.3279,-14.3267,-14.1877,-14.0375,-13.9028,-13.7949,-13.7521,-13.7146,-13.6804,-13.666,-13.666,-13.666,-13.666,-13.666,-13.666,-13.666,-13.666,-13.666,-13.5938,-13.5212,-13.4136,-13.3253,-13.0872,-12.8855,-12.7174,-12.5629,-12.3598,-12.1543,-11.9832,-11.8009,-11.6426,-11.4664,-11.3383,-11.2883,-11.2549,-11.199,-11.16,-11.0819,-11.0953,-11.14,-11.1712,-11.1712,-11.1712,-11.1712,-11.1712,-11.1712,-11.1712,-11.1712,-11.1712,-11.1712,-11.1712,-11.1712,-11.1712,-11.1712,-11.1712,-11.0491,-10.9264,-10.769,-10.5807,-10.404,-10.1604,-9.9361,-9.6167,-9.2791,-9.0978,-8.9373,-8.919,-8.919,-8.919,-8.919,-8.919,-8.9007,-8.9007,-8.8641,-8.809,-8.7539,-8.7539,-8.7171,-8.6434,-8.5695,-8.4988,-8.406,-8.3501,-8.3501,-8.3501,-8.3315,-8.3129,-8.3129,-8.3129,-14.8105,-15.0487,-15.0217,-15.095,-15.1962,-15.1223,-15.009,-14.872,-14.8673,-14.7338,-14.6031,-14.6145,-14.5519,-14.3895,-14.265,-14.2109,-14.1989,-14.2109,-14.2109,-14.1868,-14.1383,-14.1371,-14.2069,-14.2474,-14.3019,-14.2872,-14.3174,-14.1979,-14.0431,-13.9169,-13.8234,-13.7664,-13.6948,-13.666,-13.666,-13.666,-13.666,-13.666,-13.666,-13.666,-13.666,-13.6372,-13.6228,-13.5793,-13.4867,-13.3695,-13.3011,-13.0721,-12.8551,-12.6661,-12.5162,-12.3441,-12.1543,-11.9302,-11.8333,-11.6707,-11.4948,-11.2549,-11.2047,-11.188,-11.188,-11.188,-11.179,-11.1712,-11.1578,-11.1667,-11.1712,-11.1712,-11.1712,-11.1712,-11.1712,-11.1712,-11.1712,-11.1712,-11.1712,-11.1712,-11.1712,-11.1712,-11.1712,-11.1712,-11.0491,-10.9264,-10.7861,-10.5463,-10.2999,-10.0378,-9.7946,-9.6026,-9.3911,-9.2067,-9.0286,-8.9556,-8.919,-8.919,-8.919,-8.919,-8.9007,-8.8824,-8.8641,-8.8274,-8.7539,-8.6803,-8.6618,-8.5914,-8.5173,-8.4431,-8.406,-8.3874,-8.3315,-8.3315,-8.3315,-8.3315,-8.3129,-8.3129,-8.3129,-14.8942,-15.0385,-14.8906,-14.9099,-14.9918,-14.8168,-14.7163,-14.6712,-14.6259,-14.5687,-14.5166,-14.4593,-14.407,-14.3423,-14.253,-14.1868,-14.1868,-14.1868,-14.1626,-14.1261,-14.0895,-14.0159,-14.0482,-14.1134,-14.181,-14.1385,-14.1849,-14.1898,-13.931,-13.7949,-13.7235,-13.6948,-13.6804,-13.666,-13.666,-13.6804,-13.666,-13.666,-13.666,-13.666,-13.6372,-13.5503,-13.4775,-13.4629,-13.3306,-13.1822,-13.0571,-12.8551,-12.6712,-12.4851,-12.281,-12.0746,-11.9141,-11.7894,-11.6263,-11.4333,-11.2838,-11.2047,-11.1712,-11.1712,-11.1712,-11.1712,-11.1712,-11.1712,-11.1712,-11.1712,-11.1712,-11.1712,-11.1712,-11.1712,-11.1712,-11.1712,-11.1712,-11.1712,-11.1712,-11.1712,-11.1712,-11.1712,-11.1712,-11.0491,-10.9264,-10.7734,-10.6151,-10.3693,-10.0418,-9.7808,-9.5848,-9.3911,-9.2828,-9.1015,-9.0104,-8.9556,-8.9007,-8.9007,-8.8824,-8.8641,-8.8641,-8.8274,-8.7907,-8.7539,-8.6803,-8.6064,-8.5139,-8.4431,-8.3688,-8.3874,-8.3501,-8.3129,-8.3129,-8.3129,-8.3129,-8.3129,-8.3129,-8.3129,-8.3129,-14.7902,-14.8906,-14.7204,-14.7307,-14.8153,-14.6825,-14.5573,-14.4532,-14.4065,-14.336,-14.2469,-14.229,-14.241,-14.229,-14.1868,-14.1868,-14.1868,-14.1868,-14.1504,-14.0714,-13.9853,-13.8859,-13.8272,-13.9251,-13.9254,-13.9427,-14.0103,-13.9872,-13.7894,-13.6948,-13.6804,-13.666,-13.666,-13.666,-13.666,-13.6948,-13.7002,-13.6804,-13.7002,-13.7091,-13.6516,-13.5212,-13.3896,-13.3011,-13.162,-12.9968,-12.8246,-12.6712,-12.4695,-12.2494,-12.0954,-11.9141,-11.7359,-11.5771,-11.4167,-11.2883,-11.2047,-11.1712,-11.1712,-11.1712,-11.1712,-11.1712,-11.1712,-11.1712,-11.1712,-11.1712,-11.1712,-11.1712,-11.1712,-11.1712,-11.1712,-11.1712,-11.1712,-11.1712,-11.1712,-11.1712,-11.1712,-11.1712,-11.0872,-10.9433,-10.6665,-10.4386,-10.3346,-10.1079,-9.7985,-9.5669,-9.3731,-9.2466,-9.156,-9.0468,-8.9739,-8.9007,-8.8641,-8.8274,-8.7539,-8.7723,-8.809,-8.739,-8.6837,-8.6249,-8.5695,-8.5544,-8.4431,-8.3501,-8.3315,-8.3315,-8.3129,-8.3129,-8.3129,-8.3129,-8.3129,-8.3129,-8.3129,-8.3129,-8.3129,-14.6725,-14.7519,-14.5768,-14.5782,-14.6537,-14.5634,-14.3891,-14.223,-14.205,-14.0717,-13.9174,-14.0223,-14.1017,-14.1017,-14.1504,-14.1868,-14.1747,-14.1323,-14.0958,-13.9976,-13.8426,-13.7037,-13.6661,-13.749,-13.7289,-13.7206,-13.7695,-13.7902,-13.6982,-13.666,-13.666,-13.666,-13.666,-13.666,-13.6804,-13.7235,-13.7146,-13.6804,-13.7146,-13.6804,-13.6083,-13.4775,-13.3454,-13.0872,-12.9211,-12.7634,-12.6043,-12.4489,-12.2494,-11.9624,-11.9027,-11.7568,-11.5606,-11.4002,-11.2883,-11.2047,-11.1712,-11.1712,-11.1712,-11.1712,-11.1712,-11.1712,-11.1712,-11.1712,-11.1712,-11.1712,-11.1712,-11.1712,-11.1712,-11.1712,-11.1712,-11.1712,-11.1712,-11.1712,-11.1712,-11.1712,-11.1712,-11.104,-10.9815,-10.7349,-10.352,-10.0378,-9.9538,-9.7769,-9.5669,-9.3911,-9.2466,-9.1378,-9.0833,-9.0286,-8.9373,-8.8641,-8.809,-8.7171,-8.6468,-8.6987,-8.7171,-8.6468,-8.5914,-8.5325,-8.4803,-8.4617,-8.4431,-8.3501,-8.3129,-8.3129,-8.3129,-8.3129,-8.3129,-8.3129,-8.3129,-8.3129,-8.3129,-8.3129,-8.3129,-14.7508,-14.7076,-14.5503,-14.4819,-14.4538,-14.223,-14.0958,-14.0223,-13.9729,-13.905,-13.8426,-14.01,-14.0528,-14.0405,-14.1261,-14.1868,-14.1504,-14.0714,-13.9423,-13.83,-13.6783,-13.55,-13.4899,-13.5745,-13.5877,-13.4058,-13.5346,-13.616,-13.6476,-13.666,-13.666,-13.666,-13.666,-13.666,-13.666,-13.6804,-13.6804,-13.6516,-13.666,-13.6228,-13.4775,-13.419,-13.1717,-12.8703,-12.6557,-12.4695,-12.2968,-12.1543,-11.9784,-11.8495,-11.708,-11.5277,-11.3836,-11.3004,-11.2549,-11.188,-11.188,-11.188,-11.188,-11.1712,-11.1712,-11.1712,-11.1712,-11.1712,-11.1712,-11.1712,-11.1712,-11.1712,-11.1712,-11.1712,-11.1712,-11.1712,-11.1712,-11.1712,-11.1712,-11.1712,-11.1376,-10.9477,-10.7349,-10.4731,-10.1079,-9.8301,-9.6919,-9.5311,-9.3911,-9.2466,-9.1378,-9.0651,-9.0468,-8.9921,-8.8824,-8.809,-8.7539,-8.6618,-8.6284,-8.6653,-8.588,-8.5359,-8.4988,-8.4431,-8.3874,-8.3688,-8.3688,-8.3315,-8.3129,-8.3129,-8.3129,-8.3129,-8.3129,-8.3129,-8.3129,-8.3129,-8.3129,-8.3129,-8.3129,-14.5269,-14.465,-14.3592,-14.3246,-14.2889,-14.1261,-14.0282,-13.9788,-13.9109,-13.8426,-13.8359,-13.9664,-14.0218,-14.0035,-14.0469,-14.0532,-14.0041,-13.9174,-13.8049,-13.6655,-13.5371,-13.394,-13.3203,-13.3414,-13.3593,-13.2817,-13.3929,-13.5022,-13.5786,-13.6278,-13.6606,-13.666,-13.666,-13.6804,-13.7235,-13.729,-13.6804,-13.6228,-13.6083,-13.5067,-13.3106,-13.1918,-12.9311,-12.7123,-12.4489,-12.2178,-12.0266,-11.9141,-11.7846,-11.659,-11.5771,-11.4829,-11.3337,-11.3337,-11.3216,-11.2549,-11.2382,-11.2382,-11.2215,-11.2047,-11.1712,-11.1712,-11.1712,-11.1712,-11.1712,-11.1712,-11.1712,-11.1712,-11.1712,-11.1712,-11.1712,-11.1712,-11.1712,-11.1712,-11.1712,-11.1208,-10.9815,-10.6322,-10.3173,-10.0904,-9.8301,-9.6345,-9.4773,-9.2972,-9.1741,-9.1196,-9.0286,-8.9556,-8.9373,-8.8824,-8.7907,-8.7171,-8.6618,-8.6249,-8.6099,-8.5544,-8.4769,-8.4398,-8.4245,-8.3688,-8.3315,-8.3315,-8.3129,-8.3129,-8.3129,-8.3129,-8.3129,-8.3129,-8.3129,-8.3129,-8.3129,-8.3129,-8.3129,-8.3129,-8.3129,-14.2951,-14.226,-14.199,-14.1868,-14.1747,-14.1017,-14.0405,-13.9788,-13.8984,-13.8175,-13.8233,-13.9167,-13.9664,-13.9664,-13.9423,-13.9116,-13.8676,-13.7923,-13.6783,-13.5314,-13.4071,-13.249,-13.1431,-13.1145,-13.1118,-13.1635,-13.3274,-13.4366,-13.5022,-13.5786,-13.6387,-13.6606,-13.666,-13.6948,-13.7235,-13.6948,-13.6372,-13.5358,-13.4775,-13.3401,-13.1171,-12.9159,-12.7583,-12.5889,-12.3077,-12.0426,-11.8495,-11.7846,-11.6753,-11.5159,-11.4664,-11.4333,-11.3337,-11.3337,-11.3216,-11.2883,-11.2716,-11.2671,-11.2671,-11.2215,-11.1712,-11.1712,-11.1712,-11.1712,-11.1712,-11.1712,-11.1712,-11.1712,-11.1712,-11.1712,-11.1712,-11.1712,-11.1376,-11.104,-11.0827,-10.994,-10.6965,-10.2958,-9.989,-9.7591,-9.5311,-9.319,-9.2104,-9.1196,-9.0651,-8.9921,-8.919,-8.8457,-8.7907,-8.7539,-8.6803,-8.6064,-8.551,-8.5359,-8.4988,-8.4431,-8.3874,-8.3688,-8.3501,-8.3315,-8.3315,-8.3129,-8.3129,-8.3129,-8.3129,-8.3129,-8.3129,-8.3129,-8.3129,-8.3129,-8.3129,-8.3129,-8.3129,-8.3129,-8.3129,-14.253,-14.199,-14.1929,-14.1868,-14.1626,-14.0528,-13.9912,-13.9664,-13.8484,-13.7981,-13.7981,-13.8609,-13.8734,-13.8801,-13.8049,-13.7923,-13.7671,-13.6725,-13.5829,-13.4406,-13.2887,-13.1289,-13.013,-12.9915,-13.027,-13.1089,-13.1362,-13.2837,-13.4202,-13.4858,-13.5568,-13.6278,-13.6551,-13.6749,-13.6804,-13.5648,-13.4721,-13.4336,-13.3306,-13.1171,-12.8855,-12.7481,-12.5734,-12.3755,-12.1113,-11.9027,-11.7731,-11.6917,-11.6309,-11.4379,-11.3504,-11.3337,-11.3004,-11.2382,-11.2382,-11.2716,-11.2549,-11.2382,-11.2671,-11.2215,-11.1712,-11.1712,-11.1712,-11.1712,-11.1712,-11.1712,-11.1712,-11.1712,-11.1712,-11.1712,-11.1712,-11.1712,-11.0872,-10.9264,-10.8881,-10.6451,-10.2651,-10.0242,-9.8301,-9.5669,-9.4234,-9.2647,-9.1378,-9.0468,-8.9885,-8.8457,-8.809,-8.7355,-8.6803,-8.6434,-8.5914,-8.5173,-8.4617,-8.4431,-8.3874,-8.3501,-8.3315,-8.3129,-8.3129,-8.3129,-8.3129,-8.3129,-8.3129,-8.3129,-8.3129,-8.3129,-8.3129,-8.3129,-8.3129,-8.3129,-8.3129,-8.3129,-8.3129,-8.3129,-8.3129,-14.151,-14.1383,-14.1383,-14.1139,-14.065,-13.9664,-13.9233,-13.9109,-13.8233,-13.7602,-13.7349,-13.7602,-13.7418,-13.691,-13.5887,-13.5242,-13.4796,-13.4463,-13.3809,-13.2887,-13.2091,-13.1075,-13.0266,-12.9587,-12.9669,-13.027,-13.087,-13.1799,-13.2727,-13.3547,-13.4475,-13.5459,-13.605,-13.6774,-13.7037,-13.5793,-13.4575,-13.3347,-13.1471,-12.9059,-12.6403,-12.5318,-12.3648,-12.1432,-11.9671,-11.8218,-11.7127,-11.6473,-11.5652,-11.4544,-11.4047,-11.3504,-11.3004,-11.305,-11.3216,-11.2883,-11.2716,-11.2549,-11.2671,-11.2215,-11.1712,-11.1712,-11.1712,-11.1712,-11.1712,-11.1712,-11.1712,-11.1712,-11.1712,-11.1712,-11.1544,-11.0659,-10.9094,-10.6965,-10.4904,-10.2087,-9.7946,-9.7097,-9.549,-9.3152,-9.156,-9.0468,-8.919,-8.8457,-8.7723,-8.7171,-8.6803,-8.6249,-8.5544,-8.5544,-8.5173,-8.4245,-8.3688,-8.3688,-8.3501,-8.3315,-8.3129,-8.3129,-8.3129,-8.3129,-8.3129,-8.3129,-8.3129,-8.3129,-8.3129,-8.3129,-8.3129,-8.3129,-8.3129,-8.3129,-8.3129,-8.3129,-8.3129,-8.3129,-8.3129,-14.0609,-14.0591,-14.065,-14.0405,-13.9971,-13.9109,-13.8684,-13.8266,-13.7748,-13.7117,-13.6436,-13.6284,-13.6015,-13.5314,-13.394,-13.2887,-13.2622,-13.228,-13.188,-13.1557,-13.1557,-13.1155,-13.0536,-12.9859,-12.945,-12.956,-13.027,-13.0925,-13.1307,-13.2236,-13.3438,-13.4803,-13.5164,-13.5656,-13.6298,-13.4575,-13.32,-13.1813,-12.9311,-12.6403,-12.4069,-12.2543,-12.0634,-11.8704,-11.7568,-11.68,-11.6309,-11.5652,-11.4994,-11.4379,-11.4167,-11.367,-11.3004,-11.3216,-11.3216,-11.2838,-11.2671,-11.2671,-11.2716,-11.2215,-11.1712,-11.1712,-11.1712,-11.1712,-11.1712,-11.1712,-11.1544,-11.0996,-11.0996,-11.0659,-10.9984,-10.8755,-10.7135,-10.4731,-10.1779,-9.8478,-9.549,-9.4271,-9.3009,-9.0651,-8.9556,-8.8641,-8.7539,-8.6987,-8.6434,-8.6099,-8.5729,-8.5544,-8.4617,-8.4245,-8.4245,-8.3501,-8.3129,-8.3129,-8.3129,-8.3129,-8.3129,-8.3129,-8.3129,-8.3129,-8.3129,-8.3129,-8.3129,-8.3129,-8.3129,-8.3095,-8.3095,-8.3029,-8.3095,-8.3129,-8.3129,-8.3129,-8.3129,-8.3029,-8.3029,-13.9976,-14.0094,-14.0035,-13.9735,-13.9488,-13.875,-13.7856,-13.7147,-13.678,-13.5974,-13.5075,-13.4685,-13.4552,-13.4088,-13.2434,-13.169,-13.1557,-13.1075,-13.1075,-13.1423,-13.1557,-13.1155,-13.0671,-12.9994,-12.9587,-12.945,-12.956,-13.016,-13.098,-13.1253,-13.2509,-13.4279,-13.3499,-13.3391,-13.376,-13.1471,-13.0119,-12.9159,-12.5734,-12.3392,-12.2019,-11.9141,-11.6917,-11.6099,-11.5323,-11.4829,-11.4709,-11.4333,-11.4213,-11.4213,-11.3337,-11.3004,-11.2838,-11.2215,-11.2382,-11.2838,-11.2215,-11.2382,-11.2504,-11.2215,-11.1712,-11.1544,-11.1376,-11.1712,-11.1208,-11.104,-11.0491,-10.9264,-10.9094,-10.8371,-10.7007,-10.5807,-10.4904,-10.404,-9.9498,-9.6026,-9.3731,-9.1923,-9.0614,-8.9373,-8.8457,-8.7355,-8.6434,-8.6284,-8.5544,-8.5173,-8.4803,-8.4431,-8.3688,-8.3501,-8.3315,-8.3315,-8.3129,-8.3129,-8.3129,-8.3129,-8.3129,-8.3129,-8.3129,-8.3129,-8.3129,-8.3129,-8.3129,-8.3129,-8.3095,-8.3095,-8.3062,-8.3115,-8.3082,-8.2664,-8.2697,-8.3029,-8.3029,-8.2929,-8.2863,-13.855,-13.7999,-13.7236,-13.658,-13.6147,-13.5594,-13.4932,-13.4517,-13.4175,-13.3179,-13.2178,-13.2114,-13.1709,-13.0955,-13.042,-13.0211,-13.0266,-13.0536,-13.0806,-13.1075,-13.1344,-13.121,-13.0671,-13.0671,-13.0346,-12.9587,-12.945,-12.9669,-13.0106,-13.016,-13.0925,-13.2369,-13.22,-13.2171,-13.2121,-13.0401,-12.8195,-12.6148,-12.3706,-12.1384,-11.8979,-11.7568,-11.6099,-11.4994,-11.4544,-11.4379,-11.4213,-11.3216,-11.2716,-11.2716,-11.2382,-11.2215,-11.2215,-11.2047,-11.188,-11.2047,-11.188,-11.1924,-11.2047,-11.188,-11.1376,-11.0109,-10.994,-10.9602,-10.8415,-10.8245,-10.8074,-10.7178,-10.7221,-10.6665,-10.5291,-10.3908,-10.1645,-9.9145,-9.5771,-9.3333,-9.1741,-8.9921,-8.8457,-8.7539,-8.6434,-8.5914,-8.5173,-8.4803,-8.4245,-8.3874,-8.3688,-8.3501,-8.3315,-8.3129,-8.3129,-8.3129,-8.3129,-8.3129,-8.3129,-8.3129,-8.3129,-8.3129,-8.3129,-8.3129,-8.3129,-8.3129,-8.3029,-8.2996,-8.3095,-8.3095,-8.2782,-8.2716,-8.2516,-8.2083,-8.1751,-8.205,-8.225,-8.235,-8.2616,-13.6398,-13.579,-13.4914,-13.4197,-13.3459,-13.3087,-13.2551,-13.2263,-13.1919,-13.0925,-12.9784,-13.0103,-12.978,-12.9049,-12.9694,-12.9778,-12.9641,-13.0378,-13.109,-13.1501,-13.1714,-13.1684,-13.1168,-13.1241,-13.0806,-12.9994,-12.9587,-12.945,-12.9314,-12.8904,-12.931,-13.0227,-13.0148,-12.9981,-12.9683,-12.8185,-12.6456,-12.3656,-12.1335,-11.8979,-11.6707,-11.5606,-11.4618,-11.3715,-11.3549,-11.3549,-11.3383,-11.2382,-11.1712,-11.1712,-11.1712,-11.1712,-11.1712,-11.1712,-11.1712,-11.1712,-11.1712,-11.1544,-11.104,-11.1376,-11.0827,-10.9389,-10.8881,-10.8201,-10.7178,-10.6665,-10.5979,-10.5291,-10.5333,-10.46,-10.3214,-10.1686,-9.8731,-9.3874,-9.2228,-9.0935,-8.9382,-8.8251,-8.7111,-8.603,-8.4988,-8.4245,-8.406,-8.3874,-8.3315,-8.3282,-8.3315,-8.3315,-8.3129,-8.3129,-8.3129,-8.3129,-8.3129,-8.3129,-8.3129,-8.3129,-8.3129,-8.3129,-8.3129,-8.3129,-8.3129,-8.3095,-8.3115,-8.3082,-8.3215,-8.3049,-8.245,-8.205,-8.1751,-8.1384,-8.1185,-8.1151,-8.1118,-8.1351,-8.1717,-13.3705,-13.3277,-13.3154,-13.279,-13.2111,-13.1986,-13.1413,-13.06,-13.0709,-12.9909,-12.8388,-12.9433,-12.9383,-12.9025,-13.0106,-13.0433,-12.9915,-13.0817,-13.1857,-13.2678,-13.2492,-13.2189,-13.2134,-13.1333,-13.0701,-13.0401,-12.9859,-12.945,-12.9177,-12.8025,-12.7818,-12.8491,-12.7068,-12.6407,-12.6502,-12.4516,-12.287,-12.1176,-11.7961,-11.5724,-11.5231,-11.3337,-11.2215,-11.2047,-11.188,-11.2047,-11.188,-11.188,-11.1712,-11.1712,-11.1712,-11.1712,-11.1712,-11.1712,-11.1712,-11.1544,-11.1667,-11.0783,-10.9345,-11.0482,-11.035,-10.8407,-10.8411,-10.7898,-10.6963,-10.6024,-10.4694,-10.3403,-10.2966,-10.218,-9.9906,-9.8104,-9.5258,-9.0751,-8.9725,-8.8769,-8.722,-8.6601,-8.6152,-8.4969,-8.406,-8.3315,-8.3282,-8.3282,-8.3129,-8.3129,-8.3129,-8.3129,-8.3129,-8.3129,-8.3129,-8.3129,-8.3129,-8.3129,-8.3129,-8.3095,-8.3095,-8.3095,-8.3062,-8.3129,-8.3129,-8.3015,-8.2816,-8.2649,-8.2749,-8.2483,-8.1884,-8.1384,-8.1052,-8.0652,-8.0819,-8.0752,-8.0685,-8.0719,-8.0985,-13.1325,-13.1144,-13.1086,-13.0963,-13.0715,-13.0218,-12.9865,-12.9513,-12.9229,-12.8163,-12.744,-12.9042,-12.9173,-12.8324,-12.9423,-13.0324,-13.0917,-13.1667,-13.2162,-13.2629,-13.2382,-13.2079,-13.1695,-13.1695,-13.1362,-13.0646,-12.9859,-12.8849,-12.7971,-12.7419,-12.652,-12.5536,-12.4678,-12.3406,-12.2004,-12.0984,-11.9225,-11.7102,-11.5396,-11.4122,-11.3004,-11.2215,-11.1712,-11.1712,-11.1712,-11.1712,-11.1712,-11.1712,-11.1712,-11.1712,-11.1712,-11.1712,-11.1712,-11.1712,-11.1208,-11.0021,-11.0375,-10.9975,-10.8383,-10.8025,-10.6675,-10.3776,-10.3268,-10.2759,-10.1568,-10.0885,-10.0412,-9.9684,-9.9168,-9.8305,-9.6261,-9.342,-9.0227,-8.7765,-8.6763,-8.6105,-8.4713,-8.4425,-8.406,-8.3706,-8.3401,-8.3015,-8.2716,-8.3049,-8.3062,-8.3129,-8.3129,-8.3129,-8.3129,-8.3129,-8.3129,-8.3129,-8.3129,-8.3095,-8.2896,-8.2797,-8.2797,-8.283,-8.283,-8.3029,-8.3029,-8.2749,-8.245,-8.2217,-8.2017,-8.1717,-8.1318,-8.0785,-8.0219,-7.9654,-7.9787,-8.002,-7.9953,-8.0053,-8.0253,-12.9512,-12.9512,-12.9209,-12.8962,-12.8772,-12.873,-12.8775,-12.865,-12.8725,-12.819,-12.7686,-12.934,-12.9515,-12.8507,-12.9716,-13.0972,-13.2144,-13.2649,-13.2985,-13.3372,-13.2656,-13.2217,-13.197,-13.1448,-13.098,-13.0511,-12.9859,-12.8712,-12.7141,-12.6027,-12.4621,-12.3121,-12.2018,-12.0506,-11.8617,-11.7799,-11.6138,-11.4022,-11.3488,-11.2838,-11.188,-11.1712,-11.1712,-11.1712,-11.1712,-11.1712,-11.1712,-11.1712,-11.1712,-11.1712,-11.0996,-11.0863,-11.1054,-10.9961,-10.8608,-10.7206,-10.748,-10.6965,-10.5584,-10.5235,-10.3892,-10.1038,-10.0741,-10.0444,-9.9002,-9.7807,-9.6778,-9.6262,-9.54,-9.3589,-9.1763,-8.8892,-8.6123,-8.4638,-8.3918,-8.3511,-8.269,-8.2183,-8.225,-8.245,-8.2516,-8.2483,-8.235,-8.2849,-8.3095,-8.3129,-8.3129,-8.3129,-8.3129,-8.3129,-8.3129,-8.3129,-8.3095,-8.2963,-8.2716,-8.2516,-8.2516,-8.2516,-8.2549,-8.2549,-8.245,-8.195,-8.1684,-8.1418,-8.1418,-8.1118,-8.0353,-7.9887,-7.992,-7.9354,-7.9088,-7.9188,-7.8888,-7.9321,-7.9554,-12.8186,-12.8122,-12.7632,-12.7301,-12.6737,-12.7979,-12.843,-12.8656,-12.9615,-12.9682,-12.9263,-13.0439,-13.0549,-13.0134,-13.1246,-13.2302,-13.3247,-13.3358,-13.3834,-13.4778,-13.3206,-13.2709,-13.3143,-13.087,-12.9968,-13.0214,-12.9587,-12.8571,-12.7046,-12.4069,-12.2155,-12.1091,-11.8909,-11.7242,-11.5733,-11.443,-11.341,-11.2589,-11.2086,-11.1667,-11.1712,-11.1667,-11.1623,-11.1712,-11.1712,-11.1712,-11.1712,-11.1667,-11.1623,-11.1667,-10.972,-10.9157,-10.9576,-10.6562,-10.4536,-10.3938,-10.3725,-10.2846,-10.1334,-10.2342,-10.23,-10.0662,-10.0031,-10.0196,-9.9314,-9.6894,-9.4836,-9.3821,-9.1893,-8.9103,-8.6194,-8.4525,-8.327,-8.1871,-8.1696,-8.126,-8.0411,-8.0599,-8.0452,-8.0985,-8.1185,-8.1384,-8.205,-8.2782,-8.2797,-8.2963,-8.3029,-8.3248,-8.3062,-8.3062,-8.2996,-8.2996,-8.283,-8.2683,-8.1451,-8.1418,-8.1318,-8.1384,-8.1584,-8.1285,-8.1118,-8.1018,-8.0785,-8.0619,-8.0885,-8.0586,-7.9587,-7.9321,-7.962,-7.9587,-7.9354,-7.9088,-7.9221,-7.9054,-7.9021,-12.6837,-12.6951,-12.7676,-12.8838,-13.0405,-13.08,-13.0913,-13.0969,-13.1251,-13.1033,-13.0495,-13.1671,-13.2362,-13.2626,-13.2907,-13.3244,-13.3581,-13.3105,-13.3642,-13.4456,-13.3556,-13.2901,-13.2572,-13.1832,-13.0707,-12.9268,-12.857,-12.773,-12.6595,-12.2625,-11.8958,-11.6424,-11.466,-11.2889,-11.166,-11.1221,-11.0994,-11.084,-11.0749,-11.0998,-11.1489,-11.0998,-11.0953,-11.1667,-11.1712,-11.1712,-11.1712,-11.0998,-11.0596,-11.0596,-10.8226,-10.7036,-10.7148,-10.3773,-10.2342,-10.3391,-10.2962,-10.1751,-9.9916,-9.9586,-9.8715,-9.7091,-9.6924,-9.659,-9.5711,-9.4364,-9.2841,-9.1004,-8.7488,-8.4146,-8.1314,-8.0614,-8.0263,-7.9803,-8.0308,-8.0466,-8.0199,-8.0519,-8.0785,-8.0952,-8.0552,-8.0586,-8.1218,-8.1551,-8.195,-8.2416,-8.2516,-8.2649,-8.3115,-8.2816,-8.2516,-8.2483,-8.1984,-8.1518,-8.1185,-8.0952,-8.1052,-8.1052,-8.1018,-8.1185,-8.1784,-8.1318,-8.0885,-8.1414,-8.1052,-8.0785,-8.0319,-8.0353,-8.0619,-8.0419,-8.0053,-7.9687,-7.952,-7.9188,-7.8955,-12.7809,-12.7922,-12.8599,-12.9784,-13.1138,-13.1759,-13.1928,-13.1985,-13.2493,-13.2457,-13.2121,-13.2795,-13.3396,-13.3659,-13.3659,-13.3659,-13.3659,-13.3264,-13.3525,-13.4142,-13.353,-13.2993,-13.2453,-13.131,-13.007,-12.8719,-12.7019,-12.5727,-12.4501,-12.1408,-11.7693,-11.4178,-11.1967,-11.0405,-10.9327,-10.899,-10.8798,-10.899,-10.9391,-10.9882,-11.0373,-10.9882,-10.9882,-11.0418,-11.0507,-11.0507,-11.0462,-10.9266,-10.858,-10.8371,-10.5525,-10.4054,-10.4374,-10.1002,-9.9829,-10.1084,-10.0083,-9.8963,-9.8007,-9.7308,-9.6525,-9.5529,-9.503,-9.4696,-9.4027,-9.2477,-9.011,-8.7,-8.3755,-8.1139,-7.9417,-7.8888,-7.8888,-7.8955,-7.9254,-7.9554,-7.9554,-7.992,-8.0186,-8.0153,-7.982,-7.982,-8.0452,-8.0652,-8.0952,-8.1551,-8.1717,-8.185,-8.225,-8.2017,-8.1751,-8.1617,-8.0819,-8.0253,-8.012,-8.0186,-8.0319,-8.0519,-8.0979,-8.1427,-8.2179,-8.2226,-8.2125,-8.2347,-8.2078,-8.1628,-8.1266,-8.0918,-8.0619,-8.0419,-8.0086,-7.9554,-7.9554,-7.9188,-7.8955,-12.9953,-13.001,-13.0123,-13.0179,-13.0461,-13.1646,-13.2154,-13.2323,-13.3283,-13.3659,-13.3471,-13.3659,-13.3659,-13.3659,-13.3659,-13.3659,-13.3659,-13.3659,-13.3659,-13.3584,-13.3132,-13.279,-13.2447,-12.9723,-12.8203,-12.7624,-12.4957,-12.2993,-12.1856,-12.0133,-11.7336,-11.3728,-11.0731,-10.9065,-10.8372,-10.7672,-10.7204,-10.7338,-10.8052,-10.8499,-10.8588,-10.8588,-10.8633,-10.8722,-10.8722,-10.8558,-10.8484,-10.6995,-10.6084,-10.5589,-10.2468,-10.1086,-10.1329,-9.8502,-9.6924,-9.76,-9.6116,-9.5121,-9.5287,-9.5121,-9.5041,-9.4955,-9.4123,-9.3495,-9.316,-9.0935,-8.7158,-8.2779,-8.0934,-7.9816,-7.8864,-7.8688,-7.8722,-7.8688,-7.8855,-7.8888,-7.8955,-7.8888,-7.8888,-7.8888,-7.9021,-7.9154,-7.9787,-7.992,-8.0153,-8.0685,-8.0852,-8.1085,-8.1251,-8.1118,-8.0985,-8.0933,-8.0053,-7.9354,-7.9354,-7.9121,-7.9687,-8.0299,-8.0869,-8.1699,-8.2306,-8.3019,-8.3674,-8.2765,-8.2542,-8.2078,-8.1481,-8.0652,-8.0253,-8.0319,-7.992,-7.9188,-7.9021,-7.8955,-7.8888,-13.001,-13.0123,-13.1082,-13.1477,-13.1646,-13.2831,-13.3396,-13.3396,-13.3678,-13.3396,-13.3055,-13.3055,-13.3055,-13.3055,-13.3055,-13.3055,-13.3055,-13.3527,-13.3396,-13.2999,-13.3396,-13.2999,-13.1746,-12.9341,-12.684,-12.4274,-12.174,-11.9997,-11.8994,-11.768,-11.6329,-11.4758,-11.1472,-10.9285,-10.865,-10.7675,-10.7174,-10.7249,-10.6758,-10.6803,-10.7606,-10.7651,-10.8008,-10.8633,-10.8677,-10.8068,-10.6831,-10.6869,-10.5821,-10.3112,-10.1443,-10.0157,-9.8961,-9.6159,-9.4723,-9.477,-9.4,-9.327,-9.3311,-9.327,-9.3148,-9.2495,-9.1443,-9.0295,-8.8878,-8.7045,-8.4358,-8.0795,-7.9667,-7.898,-7.7669,-7.7723,-7.8056,-7.8089,-7.8522,-7.8788,-7.8855,-7.8888,-7.8888,-7.8888,-7.8888,-7.8921,-7.9088,-7.9154,-7.9221,-7.9454,-7.9887,-8.0486,-8.0885,-8.0552,-8.0645,-8.097,-8.0992,-8.0599,-8.0586,-8.0486,-8.0766,-8.0752,-8.118,-8.191,-8.2448,-8.25,-8.2667,-8.3036,-8.2835,-8.225,-8.2033,-8.1285,-8.0819,-8.0652,-8.0419,-8.0219,-7.972,-7.9254,-7.8888,-13.1759,-13.1816,-13.2493,-13.2775,-13.2831,-13.3508,-13.3659,-13.3659,-13.3075,-13.2546,-13.2147,-13.2202,-13.2202,-13.2202,-13.2147,-13.2202,-13.2147,-13.2546,-13.2546,-13.2336,-13.2546,-13.2413,-13.1289,-12.7725,-12.5236,-12.3255,-11.9357,-11.7142,-11.66,-11.5271,-11.4365,-11.3456,-11.0791,-10.8626,-10.7378,-10.6838,-10.6521,-10.6535,-10.5151,-10.4482,-10.4616,-10.4616,-10.466,-10.4705,-10.5598,-10.5521,-10.4562,-10.3796,-10.252,-10.0565,-9.8869,-9.7297,-9.6068,-9.4688,-9.3799,-9.3554,-9.2948,-9.2667,-9.2667,-9.2667,-9.2383,-9.1571,-9.0698,-8.8133,-8.3513,-8.1963,-8.0442,-7.8436,-7.8265,-7.7752,-7.6896,-7.7057,-7.7324,-7.7324,-7.7656,-7.7889,-7.7923,-7.8156,-7.8256,-7.7989,-7.8189,-7.8256,-7.7923,-7.8189,-7.8564,-7.8981,-7.9761,-8.0509,-8.1203,-8.1414,-8.1491,-8.1573,-8.1694,-8.1777,-8.1777,-8.1811,-8.2115,-8.2791,-8.337,-8.3892,-8.454,-8.437,-8.4221,-8.4125,-8.3101,-8.2332,-8.1651,-8.1085,-8.0685,-8.0552,-8.0353,-7.9986,-7.962,-7.9221,-7.8888,-13.3659,-13.3659,-13.3659,-13.3659,-13.3659,-13.3659,-13.3527,-13.3527,-13.228,-13.1668,-13.17,-13.17,-13.1811,-13.1978,-13.1756,-13.17,-13.17,-13.1668,-13.1557,-13.1423,-13.1557,-13.1289,-13.0561,-12.5728,-12.3225,-12.2362,-11.6997,-11.4493,-11.4594,-11.3214,-11.1937,-11.0997,-10.9466,-10.7787,-10.5959,-10.5711,-10.5622,-10.533,-10.3678,-10.2518,-10.1849,-10.1938,-10.1402,-10.0153,-10.1893,-10.2498,-10.1898,-10.0006,-9.8646,-9.8011,-9.6007,-9.4425,-9.3661,-9.3578,-9.3279,-9.2825,-9.2624,-9.2624,-9.2425,-9.2305,-9.1701,-9.085,-8.9542,-8.5714,-7.8511,-7.7315,-7.6733,-7.6392,-7.6496,-7.6392,-7.6425,-7.6491,-7.6558,-7.6558,-7.6658,-7.6724,-7.6791,-7.729,-7.749,-7.7091,-7.7357,-7.7423,-7.7157,-7.7697,-7.8378,-7.914,-7.9958,-8.0716,-8.1555,-8.2426,-8.2706,-8.2254,-8.2492,-8.2905,-8.2969,-8.2974,-8.3347,-8.4585,-8.5199,-8.5519,-8.5743,-8.5363,-8.4905,-8.4575,-8.3053,-8.1923,-8.1099,-8.0353,-7.9953,-7.982,-7.9454,-7.9054,-7.8988,-7.8788,-7.8688,-13.3659,-13.3659,-13.3659,-13.3659,-13.3659,-13.3132,-13.2867,-13.2923,0.0,0.0,0.0,-13.2296,-13.2848,-13.3538,-13.2738,-13.2296,-13.2241,-13.1788,-13.1344,-13.0806,-13.1344,-13.002,-12.6895,-12.3986,-12.0648,-11.6922,-11.39,-11.2256,-11.1874,-11.1558,-11.1083,-11.0197,-10.9695,-10.8692,-10.6738,-10.5979,-10.4794,-10.3366,-10.3009,-10.3143,-10.3857,-10.4616,-10.3411,-10.0063,-10.1804,-10.1058,-9.7356,-9.8788,-9.7989,-9.4591,-9.5134,-9.4983,-9.3482,-9.2614,-9.2462,-9.315,-9.2562,-9.2063,-9.1428,-9.0031,-8.8551,-8.7236,-8.3544,-8.0032,-7.6623,-7.6784,-7.6564,-7.5061,-7.4894,-7.4894,-7.4894,-7.546,-7.5859,-7.5826,-7.6358,-7.6691,-7.6724,-7.6858,-7.7091,-7.749,-7.719,-7.7057,-7.7457,-7.8177,-7.9005,-7.9246,-8.0486,-8.1524,-8.1874,-8.3096,-8.4076,-8.376,-8.3646,-8.3698,-8.3767,-8.3698,-8.3511,-8.3278,-8.3313,-8.2951,-8.2509,-8.2045,-8.1977,-8.1977,-8.1226,-8.0466,-8.0332,-7.9654,-7.9121,-7.9088,-7.8988,-7.8888,-7.8821,-7.8422,-7.8023,-13.3659,0.0,-13.3659,-13.3659,0.0,-13.3055,-13.2336,-13.1668,-13.0806,-13.1061,-13.1805,-13.2463,-13.3066,-13.3615,-13.3011,-13.2408,-13.175,-13.1557,-13.0679,-12.945,-12.9804,-12.8109,-12.4657,-12.2041,-11.8795,-11.5329,-11.2285,-11.0654,-11.0337,-10.9516,-10.8614,-10.7627,-10.6628,-10.5474,-10.4107,-10.3151,-10.2307,-10.1358,-10.1402,-10.1358,-10.1358,-10.1038,-9.9916,-9.7958,0.0,0.0,0.0,0.0,0.0,0.0,0.0,0.0,0.0,0.0,0.0,-9.0601,-8.9665,-8.9222,-8.9265,-8.7185,-8.5642,-8.5217,-8.1475,-7.7552,-7.3878,-7.4224,-7.4379,-7.3396,-7.3729,-7.4095,-7.4461,-7.4827,-7.506,-7.5093,-7.5393,-7.5593,-7.5626,-7.5926,-7.6325,-7.6625,-7.6724,-7.6863,-7.7376,-7.8326,-7.9355,-7.9907,-8.146,-8.2398,-8.2572,-8.3652,-8.4632,-8.4887,-8.4815,-8.4848,-8.4848,-8.4492,-8.4027,-8.4085,-8.3614,-8.3074,-8.2533,-8.1868,-8.1239,-8.1205,-8.0277,-7.9454,-7.9421,-7.9154,-7.8888,-7.8888,-7.8888,-7.8722,-7.7889,-7.7523,-7.7257,-13.3452,-13.3452,-13.3678,-13.3659,-13.3471,-13.223,-13.1001,-12.9875,-12.9201,-12.9286,-13.0324,-13.1744,-13.2782,-13.3383,-13.2946,-13.2345,-13.158,-13.1089,-12.9966,-12.8354,-12.8354,-12.6307,-12.2667,-12.0161,-11.7369,-11.4425,-11.1021,-10.9412,-10.9597,-10.7423,-10.6056,-10.5236,-10.3322,-10.1982,-10.0822,0.0,0.0,0.0,-9.9901,-9.9766,-9.9141,-9.8126,-9.6963,-9.5815,-9.6271,0.0,-9.5408,-9.466,-9.3897,-9.2965,-9.2202,0.0,0.0,0.0,0.0,0.0,0.0,0.0,0.0,0.0,0.0,0.0,-7.9614,-7.5274,-7.1169,-7.1274,-7.1592,-7.1332,-7.2331,-7.3129,-7.3429,-7.3595,-7.3795,-7.4062,-7.4095,-7.4195,-7.4494,-7.506,-7.5559,-7.5792,-7.6225,-7.6733,-7.7246,-7.8399,-7.9804,-8.076,-8.2391,-8.3408,-8.3478,-8.4,-8.477,-8.513,-8.5061,-8.5132,-8.4956,-8.4253,-8.3757,-8.4244,-8.3739,-8.3134,-8.2707,-8.1728,-8.1033,-8.0856,-7.9819,-7.8888,-7.8888,-7.8888,-7.8855,-7.8722,-7.8688,-7.8289,-7.6818,-7.6282,-7.5978,-13.2211,-13.2267,-13.3339,-13.3396,-13.2622,-12.9204,-12.7605,-12.7342,-12.6735,-12.6579,-12.6719,-12.8904,-13.169,-13.4475,-13.24,-13.1963,-13.2727,-13.0652,-12.9149,-12.8354,-12.8354,-12.5132,-11.9577,-11.9138,-11.6377,-11.1363,-10.929,-10.8673,-10.9551,-10.6273,-10.4396,-10.4197,-10.2549,-10.0705,-9.8814,-9.7876,-9.7385,-9.743,-9.9779,-10.1338,-10.2059,-10.2612,-10.0644,-9.6065,-9.675,-9.5371,-9.1523,-9.2032,-9.199,-9.1057,-9.0887,-9.074,-9.0677,-9.1032,-9.0456,0.0,-8.9011,0.0,0.0,0.0,0.0,0.0,0.0,0.0,0.0,-6.9438,-6.8965,-6.7755,-6.9934,-7.0999,-6.9834,-7.0333,-7.1232,-7.243,-7.2597,-7.3129,-7.4328,-7.4594,-7.5127,-7.6425,-7.6092,-7.6258,-7.7602,-7.9389,-8.0527,-8.0974,-8.2601,-8.3854,-8.4276,-8.424,-8.4102,-8.3549,-8.341,-8.334,-8.2641,-8.2222,-8.1765,-8.113,-8.088,-8.0425,-7.9962,-7.9508,-7.9231,-7.9198,-7.9131,-7.8855,-7.8888,-7.8855,-7.8622,-7.8056,-7.7923,-7.7276,-7.5759,-7.4418,-7.3378,-13.0599,-13.0453,-13.0959,-13.0532,-12.937,-12.7736,-12.6715,-12.6374,-12.6165,-12.6282,-12.6938,-12.7976,-12.9723,-13.1744,-13.0707,-13.016,-12.9996,-12.855,-12.7082,-12.5618,-12.4111,-12.0993,-11.6701,-11.5787,-11.3603,-10.9951,-10.8303,-10.7686,-10.7853,-10.4396,-10.2369,-10.1831,-10.0392,-9.8501,-9.6136,-9.6671,-9.7252,-9.7787,-9.8931,-10.002,-10.1007,-10.0653,-9.893,-9.6169,-9.5674,-9.4115,-9.1057,-9.1428,-9.1222,-9.0317,-9.0275,-9.0485,-9.0852,-8.8895,-8.808,0.0,0.0,0.0,0.0,0.0,0.0,0.0,0.0,0.0,0.0,0.0,-6.6587,-6.6239,-6.9268,-7.0433,-6.8603,-6.9501,-7.0234,-7.0467,-7.05,-7.0899,-7.1998,-7.243,-7.3096,-7.4161,-7.4361,-7.5295,-7.7722,-7.9153,-8.0592,-8.2039,-8.1337,-8.0571,-8.0641,-8.1342,-8.1833,-8.1868,-8.2188,-8.2398,-8.2572,-8.1524,-8.0682,-8.033,-7.9803,-7.9417,-7.9064,-7.8888,-7.8888,-7.8855,-7.8555,-7.8289,-7.8289,-7.7989,-7.759,-7.7224,-7.6547,-7.5332,-7.376,-7.283,-7.2299,-12.9176,-12.8312,-12.4924,-12.3427,-12.3303,-12.3303,-12.3592,-12.4337,-12.4152,-12.4239,-12.4358,-12.544,-12.5416,-12.4396,-12.4667,-12.5072,-12.5289,-12.4754,-12.3975,-12.3246,-12.0596,-11.7667,-11.4581,-11.3234,-11.1148,-10.8747,-10.7027,-10.6277,-10.6109,-10.26,-10.0258,-9.92,-9.7876,-9.627,-9.4217,-9.5779,-9.7252,-9.8412,-9.868,-9.9171,-10.0079,-9.853,-9.7208,-9.6398,-9.4528,-9.2799,-9.1098,-9.0979,-9.0617,-8.9974,-8.9443,-8.9448,-8.9934,-8.6702,0.0,0.0,0.0,0.0,0.0,0.0,0.0,0.0,0.0,-6.5252,-6.1519,0.0,-6.4237,0.0,-6.7537,-6.8769,-6.7338,-6.8037,0.0,0.0,-6.8103,-6.837,-6.9268,-7.0134,-7.0966,-7.1731,-7.2464,-7.4085,-7.6863,-7.7916,-7.9175,-8.1253,-7.9492,-7.7817,-7.7175,-7.8656,-7.9795,-7.9512,-7.9835,-8.0389,-8.0457,-7.9902,-7.9473,-7.9675,-7.9316,-7.8821,-7.8655,-7.8755,-7.8888,-7.8855,-7.8422,-7.8056,-7.7889,-7.739,-7.6891,-7.5917,-7.4571,-7.2967,-7.1777,-7.1513,-7.1313,-12.7882,-12.6099,-11.3087,-10.9727,-11.2704,-11.2758,-11.5317,-11.9291,-11.9346,-11.7466,-11.4915,-11.9113,-11.691,-10.9992,-11.0825,0.0,-11.8537,-11.846,-11.9799,-12.2621,-12.032,-11.7667,-11.4581,-11.2502,-11.001,-10.7334,-10.5056,-10.425,-10.4556,-10.0654,-9.8137,-9.7016,-9.5313,-9.4306,-9.4127,-9.5065,-9.6537,-9.8367,-9.9349,-10.014,-10.0977,-9.939,-9.773,-9.6338,-9.3877,-9.1897,-9.0172,-9.0015,-9.0015,-9.0011,-8.8013,-8.696,-8.6901,0.0,0.0,0.0,0.0,0.0,0.0,0.0,0.0,0.0,0.0,0.0,0.0,0.0,0.0,-6.2575,-6.3601,0.0,-6.4875,-6.4409,0.0,0.0,0.0,-6.554,-6.6938,-6.8336,-6.9501,-7.0234,0.0,0.0,-7.369,-7.4649,-7.5701,-7.6717,-7.8452,-7.8897,-7.6648,-7.8705,-7.9506,-7.6009,-7.6054,-7.596,-7.5259,-7.6099,-7.7029,-7.7697,-7.8455,-7.8489,-7.7989,-7.8322,-7.8821,-7.8788,-7.8821,-7.8555,-7.7923,-7.7416,-7.6746,-7.3817,-7.2114,-7.0903,-7.0608,-7.0039,-6.9533,-11.8497,-11.57,-11.0131,-10.7958,-10.8317,-10.7727,-10.9572,-11.3353,-11.3353,-11.2191,-11.0373,-11.2257,-10.9769,-10.4018,-10.4442,0.0,0.0,0.0,-11.1248,-11.4658,-11.0694,-10.9829,-11.1356,-10.8476,-10.631,-10.5036,-10.3403,-10.2309,-10.1648,-9.8891,-9.4626,-8.9169,0.0,0.0,-8.9753,-9.2922,-9.5288,-9.6671,-9.9394,-10.1276,-10.2029,-10.192,-10.0398,-9.7223,-9.6297,-9.3871,-9.0092,-8.9609,-8.8872,-8.8013,-8.6648,-8.5353,0.0,0.0,0.0,0.0,0.0,0.0,0.0,0.0,0.0,0.0,0.0,-6.0743,-5.7921,0.0,0.0,0.0,-5.9278,-5.9249,-5.9948,-6.1346,0.0,0.0,0.0,0.0,0.0,0.0,0.0,-6.797,-6.8802,-7.028,-7.26,-7.1355,-7.0378,-7.1162,-7.2051,-7.2379,-7.1454,0.0,-7.4386,-7.4224,-7.3974,-7.4052,-7.4788,-7.4189,-7.3629,-7.4361,-7.546,-7.6092,-7.5892,-7.6791,-7.7557,-7.7523,-7.7224,-7.6858,-7.6558,-7.525,-7.3555,-7.1485,-7.0038,-6.9077,-6.8579,-6.8216,-6.7883,-10.8157,0.0,0.0,0.0,0.0,-10.1729,-10.3222,-10.6837,-10.6515,-10.5434,-10.3813,-10.4799,0.0,0.0,0.0,0.0,0.0,0.0,-10.4199,-10.7378,-10.4708,-10.4944,-10.7804,-10.4679,-10.2573,-10.1662,-10.0498,-9.8819,-9.6582,-9.4377,-9.0021,-8.3907,0.0,0.0,0.0,0.0,-9.3949,-9.56,-9.9394,-10.1993,-10.3023,-10.3853,-10.2339,-9.8556,-9.7061,-9.414,-8.9416,-8.8516,-8.7455,-8.5559,-8.4133,0.0,0.0,0.0,0.0,0.0,0.0,0.0,0.0,0.0,0.0,0.0,0.0,0.0,0.0,0.0,0.0,0.0,0.0,0.0,-5.662,-5.875,-5.9649,0.0,0.0,0.0,0.0,0.0,0.0,0.0,0.0,0.0,-6.9724,-6.7823,-6.6572,0.0,0.0,-6.9316,-6.8222,-6.9867,-7.122,-7.1377,-7.0748,0.0,-7.2524,-7.1542,-7.0899,-7.1865,-7.3229,-7.4128,-7.3928,-7.4561,-7.506,-7.4827,-7.4727,-7.4394,-7.3662,-7.1588,-6.9542,-6.8224,-6.6912,-6.5727,-6.4901,-6.471,-6.4648,0.0,0.0,0.0,0.0,0.0,0.0,0.0,0.0,-9.8608,-9.6315,0.0,-9.6635,0.0,0.0,0.0,0.0,0.0,-9.6838,0.0,0.0,-10.486,-10.5409,-10.382,-10.1495,-9.9305,-9.7142,-9.5799,-9.3089,-8.9063,-8.5877,0.0,0.0,0.0,0.0,0.0,0.0,-9.261,-9.5377,-9.9394,-10.2307,-10.4079,-10.4215,-10.28,-10.0136,-9.5381,-9.1209,-8.7753,-8.713,-8.5518,-8.2881,-8.0152,0.0,0.0,0.0,0.0,0.0,0.0,0.0,0.0,0.0,0.0,0.0,0.0,0.0,0.0,0.0,0.0,0.0,0.0,0.0,0.0,-5.6653,0.0,0.0,0.0,0.0,0.0,0.0,0.0,0.0,0.0,0.0,-6.3985,-6.4486,-6.5274,-6.6672,0.0,0.0,0.0,0.0,-7.1926,-6.6903,-6.6006,-6.584,-6.5387,-6.7338,-6.9535,-7.0899,0.0,0.0,-7.2464,-7.1831,-7.1199,-7.0533,-7.1532,-7.1532,-6.8736,-6.627,-6.448,-6.3664,-6.1865,-6.0097,-5.9436,-5.9436,-5.9406,0.0,0.0,0.0,0.0,0.0,0.0,0.0,0.0,0.0,-9.0841,0.0,-9.0371,0.0,0.0,0.0,0.0,0.0,0.0,0.0,0.0,-9.4372,-9.5575,-9.7389,-9.5716,-9.3528,0.0,-9.0053,-8.6314,0.0,0.0,0.0,0.0,0.0,0.0,0.0,0.0,-9.0605,-9.3577,-9.8707,-10.2657,-10.4827,-10.5048,-10.4558,-10.3412,-9.9018,-9.3823,-8.7861,-8.5555,-8.3663,0.0,0.0,0.0,0.0,0.0,0.0,0.0,0.0,0.0,0.0,0.0,0.0,0.0,0.0,0.0,0.0,0.0,0.0,0.0,0.0,0.0,0.0,0.0,-5.5636,0.0,0.0,0.0,0.0,0.0,0.0,0.0,0.0,0.0,-6.078,-6.1346,-6.2711,-6.5108,-6.6898,-6.7955,-6.8022,0.0,0.0,0.0,0.0,0.0,0.0,0.0,-6.6206,-6.6173,-6.6239,-6.6672,-6.787,-6.8636,-6.9035,-6.8802,0.0,0.0,-6.26,-6.0892,-5.9967,-5.9029,-5.8036,-5.7107,-5.6481,-5.669,-5.6869,0.0,0.0,0.0,0.0,0.0,0.0,0.0,0.0,0.0,-8.6112,-8.5537,0.0,0.0,0.0,0.0,0.0,0.0,0.0,0.0,0.0,0.0,0.0,-9.2105,-9.1232,0.0,0.0,0.0,0.0,0.0,0.0,0.0,0.0,0.0,0.0,0.0,0.0,-8.953,-9.2545,-9.834,-10.26,-10.5285,-10.551,-10.5219,-10.4372,-9.9931,-9.489,-8.9087,0.0,0.0,0.0,0.0,0.0,0.0,0.0,0.0,0.0,0.0,0.0,0.0,0.0,0.0,0.0,0.0,0.0,0.0,0.0,0.0,0.0,0.0,0.0,0.0,0.0,-5.3987,0.0,0.0,0.0,0.0,0.0,0.0,0.0,0.0,0.0,0.0,0.0,-6.0181,-6.2844,-6.4329,-6.5499,-6.6821,-6.7171,-6.7505,0.0,0.0,0.0,0.0,0.0,0.0,0.0,0.0,0.0,0.0,0.0,0.0,0.0,0.0,-6.2578,-5.7313,-5.612,-5.5564,-5.4103,0.0,0.0,0.0,0.0,0.0,0.0,0.0,0.0,0.0,0.0,0.0,0.0,0.0,0.0,0.0,0.0,0.0,0.0,-8.3339,0.0,0.0,0.0,0.0,0.0,0.0,0.0,0.0,0.0,0.0,0.0,0.0,0.0,0.0,0.0,0.0,0.0,0.0,0.0,0.0,0.0,0.0,-8.9485,-9.2364,-9.8055,-10.233,-10.5194,-10.5285,-10.4372,-10.2571,-9.7775,-9.4081,-9.1404,0.0,0.0,0.0,0.0,0.0,0.0,0.0,0.0,0.0,0.0,0.0,0.0,0.0,0.0,0.0,0.0,0.0,0.0,0.0,0.0,0.0,0.0,0.0,0.0,0.0,0.0,-5.0861,-5.3045,-5.4954,0.0,0.0,0.0,0.0,0.0,0.0,0.0,0.0,0.0,0.0,-6.3479,-6.5474,-6.4886,-6.5431,-6.5676,-6.4986,-6.3576,-6.2811,-6.3543,-6.4808,-6.5507,0.0,0.0,0.0,0.0,0.0,0.0,0.0,0.0,0.0,0.0,0.0,0.0,0.0,0.0,0.0,0.0,0.0,0.0,0.0,0.0,0.0,0.0,0.0,0.0,0.0,0.0,0.0,0.0,0.0,0.0,0.0,0.0,0.0,0.0,0.0,0.0,0.0,0.0,0.0,0.0,0.0,0.0,0.0,0.0,0.0,0.0,0.0,0.0,0.0,0.0,0.0,0.0,0.0,0.0,-8.7781,-9.1279,-9.6443,-10.0588,-10.3281,-10.2916,-10.201,-10.0632,-9.6653,-9.2773,0.0,0.0,0.0,0.0,0.0,0.0,0.0,0.0,0.0,0.0,0.0,0.0,0.0,0.0,0.0,0.0,0.0,0.0,0.0,0.0,0.0,0.0,0.0,0.0,0.0,0.0,0.0,0.0,-5.4598,-5.5349,-5.4954,0.0,0.0,0.0,0.0,0.0,0.0,0.0,0.0,0.0,0.0,-6.3393,-6.5141,-6.5298,-6.5131,-6.5374,-6.4642,-6.3909,-6.3576,-6.4808,-6.5008,-6.2711,0.0,0.0,0.0,0.0,0.0,0.0,0.0,0.0,0.0,0.0,0.0,0.0,0.0,0.0,0.0,0.0,0.0,0.0,0.0,0.0,0.0,0.0,0.0,0.0,0.0,0.0,0.0,0.0,0.0,0.0,0.0,0.0,0.0,0.0,0.0,0.0,0.0,0.0,0.0,0.0,0.0,0.0,0.0,0.0,0.0,0.0,0.0,0.0,0.0,0.0,0.0,0.0,0.0,-8.6616,-8.9695,-9.5012,-9.879,-10.0765,-10.0453,-9.9737,-9.8858,-9.4472,-9.0579,0.0,0.0,0.0,0.0,0.0,0.0,0.0,0.0,0.0,0.0,0.0,0.0,0.0,0.0,0.0,0.0,0.0,0.0,0.0,0.0,0.0,0.0,0.0,0.0,0.0,0.0,0.0,0.0,-5.2757,-5.3534,-5.3071,0.0,0.0,0.0,0.0,0.0,0.0,0.0,0.0,0.0,0.0,-6.088,-6.2911,-6.2844,0.0,0.0,-6.3443,-6.2911,-6.2744,-6.4209,-6.4242,-6.1047,-6.0514,0.0,0.0,0.0,0.0,0.0,0.0,0.0,0.0,0.0,0.0,0.0,0.0,0.0,0.0,0.0,0.0,0.0,0.0,0.0,0.0,0.0,0.0,0.0,0.0,0.0,0.0,0.0,0.0,0.0,0.0,0.0,0.0,0.0,0.0,0.0,0.0,0.0,0.0,0.0,0.0,0.0,0.0,0.0,0.0,0.0,0.0,0.0,0.0,0.0,0.0,0.0,0.0,0.0,-8.7847,-9.3583,-9.7008,-9.81,-9.8145,-9.771,-9.6939,-9.1821,-8.7802,0.0,0.0,0.0,0.0,0.0,0.0,0.0,0.0,0.0,0.0,0.0,0.0,0.0,0.0,0.0,0.0,0.0,0.0,0.0,0.0,0.0,0.0,0.0,0.0,0.0,0.0,0.0,0.0,0.0,0.0,0.0,0.0,0.0,0.0,0.0,0.0,0.0,0.0,0.0,0.0,0.0,-5.8384,-5.9049,-5.9116,-5.9582,0.0,0.0,-6.0348,-6.098,-6.2944,-6.3069,-5.9449,0.0,0.0,0.0,0.0,0.0,0.0,0.0,0.0,0.0,0.0,0.0,0.0,0.0,0.0,0.0,0.0,0.0,0.0,0.0,0.0,0.0,0.0,0.0,0.0,0.0,0.0,0.0,0.0,0.0,0.0,0.0,0.0,0.0,0.0,0.0,0.0,0.0,0.0,0.0,0.0,0.0,0.0,0.0,0.0,0.0,0.0,0.0,0.0,0.0,0.0,0.0,0.0,0.0,0.0,-8.7024,-9.2753,-9.6245,-9.7275,-9.7275,-9.7129,-9.6939,-9.2097,0.0,0.0,0.0,0.0,0.0,0.0,0.0,0.0,0.0,0.0,0.0,0.0,0.0,0.0,0.0,0.0,0.0,0.0,0.0,0.0,0.0,0.0,0.0,0.0,0.0,0.0,0.0,-4.6274,0.0,0.0,0.0,0.0,0.0,0.0,0.0,0.0,0.0,0.0,0.0,0.0,0.0,0.0,-5.8384,-5.9049,-5.8717,-5.8683,0.0,0.0,-5.8517,-5.8151,-5.9569,-5.9743,0.0,0.0,0.0,0.0,0.0,0.0,0.0,0.0,0.0,0.0,0.0,0.0,0.0,0.0,0.0,0.0,0.0,0.0,0.0,0.0,0.0,0.0,0.0,0.0,0.0,0.0,0.0,0.0,0.0,0.0,0.0,0.0,0.0,0.0,0.0,0.0,0.0,0.0,0.0,0.0,0.0,0.0,0.0,0.0,0.0,0.0,0.0,0.0,0.0,0.0,0.0,0.0,0.0,0.0,-8.3594,-8.5514,-9.0378,-9.3636,-9.5065,-9.5109,-9.5109,-9.5109,-9.0289,-8.6094,0.0,0.0,0.0,0.0,0.0,0.0,0.0,0.0,0.0,0.0,0.0,0.0,0.0,0.0,0.0,0.0,0.0,0.0,0.0,0.0,0.0,0.0,0.0,0.0,0.0,0.0,0.0,0.0,0.0,0.0,0.0,0.0,0.0,0.0,0.0,0.0,0.0,0.0,0.0,0.0,0.0,0.0,-5.7651,-5.7152,0.0,0.0,0.0,-5.7452,-5.7052,0.0,0.0,0.0,0.0,0.0,0.0,0.0,0.0,0.0,0.0,0.0,0.0,0.0,0.0,0.0,0.0,0.0,0.0,0.0,0.0,0.0,0.0,0.0,0.0,0.0,0.0,0.0,0.0,0.0,0.0,0.0,0.0,0.0,0.0,0.0,0.0,0.0,0.0,0.0,0.0,0.0,0.0,0.0,0.0,0.0,0.0,0.0,0.0,0.0,0.0,0.0,0.0,0.0,0.0,0.0,0.0,0.0,-8.3773,-8.7567,-9.0423,-9.2203,-9.2476,-9.2431,-9.2203,-8.7924,-8.4041,0.0,0.0,0.0,0.0,0.0,0.0,0.0,0.0,0.0,0.0,0.0,0.0,0.0,0.0,0.0,0.0,0.0,0.0,0.0,0.0,0.0,0.0,0.0,0.0,0.0,0.0,0.0,0.0,0.0,0.0,0.0,0.0,0.0,0.0,0.0,0.0,0.0,0.0,0.0,0.0,0.0,-5.5088,-5.5821,-5.5288,-5.4789,0.0,0.0,-5.6719,-5.6719,-5.746,0.0,0.0,0.0,0.0,0.0,0.0,0.0,0.0,0.0,0.0,0.0,0.0,0.0,0.0,0.0,0.0,0.0,0.0,0.0,0.0,0.0,0.0,0.0,0.0,0.0,0.0,0.0,0.0,0.0,0.0,0.0,0.0,0.0,0.0,0.0,0.0,0.0,0.0,0.0,0.0,0.0,0.0,0.0,0.0,0.0,0.0,0.0,0.0,0.0,0.0,0.0,0.0,0.0,0.0,0.0,0.0,-8.3728,-8.6852,-8.9396,-9.1316,-9.1405,-9.1405,-9.136,-8.8905,-8.5552,0.0,0.0,0.0,0.0,0.0,0.0,0.0,0.0,0.0,0.0,0.0,0.0,0.0,0.0,0.0,0.0,0.0,0.0,0.0,0.0,0.0,0.0,0.0,0.0,0.0,0.0,0.0,0.0,0.0,0.0,0.0,0.0,0.0,0.0,0.0,0.0,0.0,0.0,0.0,0.0,0.0,-5.5088,-5.5821,-5.5288,0.0,0.0,0.0,0.0,-5.5255,-5.3228,0.0,0.0,0.0,0.0,0.0,0.0,0.0,0.0,0.0,0.0,0.0,0.0,0.0,0.0,0.0,0.0,0.0,0.0,0.0,0.0,0.0,0.0,0.0,0.0,0.0,0.0,0.0,0.0,0.0,0.0,0.0,0.0,0.0,0.0,0.0,0.0,0.0,0.0,0.0,0.0,0.0,0.0,0.0,0.0,0.0,0.0,0.0,0.0,0.0,0.0,0.0,0.0,0.0,0.0,0.0,0.0,-8.1541,-8.4085,-8.654,-8.8905,-8.8995,-8.9218,-8.9754,-8.6536,-8.3193,0.0,0.0,0.0,0.0,0.0,0.0,0.0,0.0,0.0,0.0,0.0,0.0,0.0,0.0,0.0,0.0,0.0,0.0,0.0,0.0,0.0,0.0,0.0,0.0,0.0,0.0,0.0,0.0,0.0,0.0,0.0,0.0,0.0,0.0,0.0,0.0,0.0,0.0,0.0,0.0,-5.3258,-5.389,-5.429,0.0,0.0,0.0,0.0,0.0,0.0,-5.2178,-5.0148,0.0,0.0,0.0,0.0,0.0,0.0,0.0,0.0,0.0,0.0,0.0,0.0,0.0,0.0,0.0,0.0,0.0,0.0,0.0,0.0,0.0,0.0,0.0,0.0,0.0,0.0,0.0,0.0,0.0,0.0,0.0,0.0,0.0,0.0,0.0,0.0,0.0,0.0,0.0,0.0,0.0,0.0,0.0,0.0,0.0,0.0,0.0,0.0,0.0,0.0,0.0,0.0,0.0,0.0,0.0,-7.8819,-8.0661,-8.3148,-8.5915,-8.6272,-8.6763,-8.743,-8.3282,-8.0381,-7.8863,0.0,0.0,0.0,0.0,0.0,0.0,0.0,0.0,0.0,0.0,0.0,0.0,0.0,0.0,0.0,0.0,0.0,0.0,0.0,0.0,0.0,0.0,0.0,0.0,0.0,0.0,0.0,0.0,0.0,0.0,0.0,0.0,0.0,0.0,0.0,0.0,0.0,0.0,0.0,-5.2059,-5.2659,0.0,0.0,0.0,0.0,0.0,0.0,0.0,0.0,-4.9706,0.0,0.0,0.0,0.0,0.0,0.0,0.0,0.0,0.0,0.0,0.0,0.0,0.0,0.0,0.0,0.0,0.0,0.0,0.0,0.0,0.0,0.0,0.0,0.0,0.0,0.0,0.0,0.0,0.0,0.0,0.0,0.0,0.0,0.0,0.0,0.0,0.0,0.0,0.0,0.0,0.0,0.0,0.0,0.0,0.0,0.0,0.0,0.0,0.0,0.0,0.0,0.0,0.0,0.0,0.0,0.0,-7.8819,-8.0827,-8.2925,-8.4576,-8.5067,-8.4442,-8.2925,-8.0426,-7.6989,0.0,0.0,0.0,0.0,0.0,0.0,0.0,0.0,0.0,0.0,0.0,0.0,0.0,0.0,0.0,0.0,0.0,0.0,0.0,0.0,0.0,0.0,0.0,0.0,0.0,0.0,0.0,0.0,0.0,0.0,0.0,0.0,0.0,0.0,0.0,0.0,0.0,0.0,-5.0462,-5.176,0.0,0.0,0.0,0.0,0.0,0.0,0.0,0.0,-4.9839,0.0,0.0,0.0,0.0,0.0,0.0,0.0,0.0,0.0,0.0,0.0,0.0,0.0,0.0,0.0,0.0,0.0,0.0,0.0,0.0,0.0,0.0,0.0,0.0,0.0,0.0,0.0,0.0,0.0,0.0,0.0,0.0,0.0,0.0,0.0,0.0,0.0,0.0,0.0,0.0,0.0,0.0,0.0,0.0,0.0,0.0,0.0,0.0,0.0,0.0,0.0,0.0,0.0,0.0,0.0,0.0,0.0,0.0,-7.9265,-8.0693,-8.2657,-8.3416,-8.2925,-8.0515,-7.7792,0.0,0.0,0.0,0.0,0.0,0.0,0.0,0.0,0.0,0.0,0.0,0.0,0.0,0.0,0.0,0.0,0.0,0.0,0.0,0.0,0.0,0.0,0.0,0.0,0.0,0.0,0.0,0.0,0.0,0.0,0.0,0.0,0.0,0.0,0.0,0.0,0.0,0.0,0.0,0.0,0.0,0.0,0.0,0.0,0.0,0.0,0.0,0.0,0.0,0.0,0.0,0.0,0.0,0.0,0.0,0.0,0.0,0.0,0.0,0.0,0.0,0.0,0.0,0.0,0.0,0.0,0.0,0.0,0.0,0.0,0.0,0.0,0.0,0.0,0.0,0.0,0.0,0.0,0.0,0.0,0.0,0.0,0.0,0.0,0.0,0.0,0.0,0.0,0.0,0.0,0.0,0.0,0.0,0.0,0.0,0.0,0.0,0.0,0.0,0.0,0.0,0.0,0.0,0.0,0.0,0.0,0.0,0.0,-7.7926,-7.873,-8.0929,-8.1954,-8.1675,-7.8239,-7.5135,0.0,0.0,0.0,0.0,0.0,0.0,0.0,0.0,0.0,0.0,0.0,0.0,0.0,0.0,0.0,0.0,0.0,0.0,0.0,0.0,0.0,0.0,0.0,0.0,0.0,0.0,0.0,0.0,0.0,0.0,0.0,0.0,0.0,0.0,0.0,0.0,0.0,0.0,0.0,0.0,0.0,0.0,0.0,0.0,0.0,0.0,0.0,0.0,-4.8932,0.0,0.0,0.0,0.0,0.0,0.0,0.0,0.0,0.0,0.0,0.0,0.0,0.0,0.0,0.0,0.0,0.0,0.0,0.0,0.0,0.0,0.0,0.0,0.0,0.0,0.0,0.0,0.0,0.0,0.0,0.0,0.0,0.0,0.0,0.0,0.0,0.0,0.0,0.0,0.0,0.0,0.0,0.0,0.0,0.0,0.0,0.0,0.0,0.0,0.0,0.0,0.0,0.0,0.0,0.0,0.0,0.0,0.0,0.0,-7.6587,-7.6766,-8.0381,-8.133,-7.9667,-7.7569,-7.4219,0.0,0.0,0.0,0.0,0.0,0.0,0.0,0.0,0.0,0.0,0.0,0.0,0.0,0.0,0.0,0.0,0.0,0.0,0.0,0.0,0.0,0.0,0.0,0.0,0.0,0.0,0.0,0.0,0.0,0.0,0.0,0.0,0.0,0.0,0.0,0.0,0.0,0.0,0.0,0.0,0.0,0.0,0.0,0.0,0.0,0.0,0.0,0.0,0.0,0.0,0.0,0.0,0.0,0.0,0.0,0.0,0.0,0.0,0.0,0.0,0.0,0.0,0.0,0.0,0.0,0.0,0.0,0.0,0.0,0.0,0.0,0.0,0.0,0.0,0.0,0.0,0.0,0.0,0.0,0.0,0.0,0.0,0.0,0.0,0.0,0.0,0.0,0.0,0.0,0.0,0.0,0.0,0.0,0.0,0.0,0.0,0.0,0.0,0.0,0.0,0.0,0.0,0.0,0.0,0.0,0.0,0.0,0.0,-7.4981,-7.5605,-7.8863,-7.9399,-7.69,-7.4891,-7.2575,0.0,0.0,0.0,0.0,0.0,0.0,0.0,0.0,0.0,0.0,0.0,0.0,0.0,0.0,0.0,0.0,0.0,0.0,0.0,0.0,0.0,0.0,0.0,0.0,0.0,0.0,0.0,0.0,0.0,0.0,0.0,0.0,0.0,0.0,0.0,0.0,0.0,0.0,0.0,0.0,0.0,0.0,0.0,0.0,0.0,0.0,0.0,0.0,0.0,0.0,0.0,0.0,0.0,0.0,0.0,0.0,0.0,0.0,0.0,0.0,0.0,0.0,0.0,0.0,0.0,0.0,0.0,0.0,0.0,0.0,0.0,0.0,0.0,0.0,0.0,0.0,0.0,0.0,0.0,0.0,0.0,0.0,0.0,0.0,0.0,0.0,0.0,0.0,0.0,0.0,0.0,0.0,0.0,0.0,0.0,0.0,0.0,0.0,0.0,0.0,0.0,0.0,0.0,0.0,0.0,0.0,0.0,0.0,0.0,-7.4579,-7.6186,-7.5893,-7.3532,-7.1907,-7.0199,0.0,0.0,0.0,0.0,0.0,0.0,0.0,0.0,0.0,0.0,0.0,0.0,0.0,0.0,0.0,0.0,0.0,0.0,0.0,0.0,0.0,0.0,0.0,0.0,0.0,0.0,0.0,0.0,0.0,0.0,0.0,0.0,0.0,0.0,0.0,0.0,0.0,0.0,0.0,0.0,0.0,0.0,0.0,0.0,0.0,0.0,0.0,0.0,0.0,0.0,0.0,0.0,0.0,0.0,0.0,0.0,0.0,0.0,0.0,0.0,0.0,0.0,0.0,0.0,0.0,0.0,0.0,0.0,0.0,0.0,0.0,0.0,0.0,0.0,0.0,0.0,0.0,0.0,0.0,0.0,0.0,0.0,0.0,0.0,0.0,0.0,0.0,0.0,0.0,0.0,0.0,0.0,0.0,0.0,0.0,0.0,0.0,0.0,0.0,0.0,0.0,0.0,0.0,0.0,0.0,0.0,0.0,0.0,0.0,-7.3508,-7.1856,-7.0581,-6.9397,-6.9234,-6.6817,0.0,0.0,0.0,0.0,0.0,0.0,0.0,0.0,0.0,0.0,0.0,0.0,0.0,0.0,0.0,0.0,0.0,0.0,0.0,0.0,0.0,0.0,0.0,0.0,0.0,0.0,0.0,0.0,0.0,0.0,0.0,0.0,0.0,0.0,0.0,0.0,0.0,0.0,0.0,0.0,0.0,0.0,0.0,0.0,0.0,0.0,0.0,0.0,0.0,0.0,0.0,0.0,0.0,0.0,0.0,0.0,0.0,0.0,0.0,0.0,0.0,0.0,0.0,0.0,0.0,0.0,0.0,0.0,0.0,0.0,0.0,0.0,0.0,0.0,0.0,0.0,0.0,0.0,0.0,0.0,0.0,0.0,0.0,0.0,0.0,0.0,0.0,0.0,0.0,0.0,0.0,0.0,0.0,0.0,0.0,0.0,0.0,0.0,0.0,0.0,0.0,0.0,0.0,0.0,0.0,0.0,0.0,0.0,0.0,-7.0651,-6.9925,-6.9359,-6.8996,-6.7096,-6.4959,-6.2624,0.0,0.0,0.0,0.0,0.0,0.0,0.0,0.0,0.0,0.0,0.0,0.0,0.0,0.0,0.0,0.0,0.0,0.0,0.0,0.0,0.0,0.0,0.0,0.0,0.0,0.0,0.0,0.0,0.0,0.0,0.0,0.0,0.0,0.0,0.0,0.0,0.0,0.0,0.0,0.0,0.0,0.0,0.0,0.0,0.0,0.0,0.0,0.0,0.0,0.0,0.0,0.0,0.0,0.0,0.0,0.0,0.0,0.0,0.0,0.0,0.0,0.0,0.0,0.0,0.0,0.0,0.0,0.0,0.0,0.0,0.0,0.0,0.0,0.0,0.0,0.0,0.0,0.0,0.0,0.0,0.0,0.0,0.0,0.0,0.0,0.0,0.0,0.0,0.0,0.0,0.0,0.0,0.0,0.0,0.0,0.0,0.0,0.0,0.0,0.0,0.0,0.0,0.0,0.0,0.0,0.0,0.0,0.0,-6.7706,-6.7875,-6.7712,-6.705,-6.5586,-6.4048,0.0,0.0,0.0,0.0,0.0,0.0,0.0,0.0,0.0,0.0,0.0,0.0,0.0,0.0,0.0,0.0,0.0,0.0,0.0,0.0,0.0,0.0,0.0,0.0,0.0,0.0,0.0,0.0,0.0,0.0,0.0,0.0,0.0,0.0,0.0,0.0,0.0,0.0,0.0,0.0,0.0,0.0,0.0,0.0,0.0,0.0,0.0,0.0,0.0,0.0,0.0,0.0,0.0,0.0,0.0,0.0,0.0,0.0,0.0,0.0,0.0,0.0,0.0,0.0,0.0,0.0,0.0,0.0,0.0,0.0,0.0,0.0,0.0,0.0,0.0,0.0,0.0,0.0,0.0,0.0,0.0,0.0,0.0,0.0,0.0,0.0,0.0,0.0,0.0,0.0,0.0,0.0,0.0,0.0,0.0,0.0,0.0,0.0,0.0,0.0,0.0,0.0,0.0,0.0,0.0,0.0,0.0,0.0,-6.4805,-6.4849,-6.5742,-6.5237,-6.3249,-6.4971,-6.4087,0.0,0.0,0.0,0.0,0.0,0.0,0.0,0.0,0.0,0.0,0.0,0.0,0.0,0.0,0.0,0.0,0.0,0.0,0.0,0.0,0.0,0.0,0.0,0.0,0.0,0.0,0.0,0.0,0.0,0.0,0.0,0.0,0.0,0.0,0.0,0.0,0.0,0.0,0.0,0.0,0.0,0.0,0.0,0.0,0.0,0.0,0.0,0.0,0.0,0.0,0.0,0.0,0.0,0.0,0.0,0.0,0.0,0.0,0.0,0.0,0.0,0.0,0.0,0.0,0.0,0.0,0.0,0.0,0.0,0.0,0.0,0.0,0.0,0.0,0.0,0.0,0.0,0.0,0.0,0.0,0.0,0.0,0.0,0.0,0.0,0.0,0.0,0.0,0.0,0.0,0.0,0.0,0.0,0.0,0.0,0.0,0.0,0.0,0.0,0.0,0.0,0.0,0.0,0.0,0.0,0.0,0.0,0.0,0.0,-6.5608,0.0,-6.4927,0.0,-6.375,-6.2069,0.0,0.0,0.0,0.0,0.0,0.0,0.0,0.0,0.0,0.0,0.0,0.0,0.0,0.0,0.0,0.0,0.0,0.0,0.0,0.0,0.0,0.0,0.0,0.0,0.0,0.0,0.0,0.0,0.0,0.0,0.0,0.0,0.0,0.0,0.0,0.0,0.0,0.0,0.0,0.0,0.0,0.0,0.0,0.0,0.0,0.0,0.0,0.0,0.0,0.0,0.0,0.0,0.0,0.0,0.0,0.0,0.0,0.0,0.0,0.0,0.0,0.0,0.0,0.0,0.0,0.0,0.0,0.0,0.0,0.0,0.0,0.0,0.0,0.0,0.0,0.0,0.0,0.0,0.0,0.0,0.0,0.0,0.0,0.0,0.0,0.0,0.0,0.0,0.0,0.0,0.0,0.0,0.0,0.0,0.0,0.0,0.0,0.0,0.0,0.0,0.0,0.0,0.0,0.0,0.0,0.0,0.0,0.0,0.0,-6.5028,-6.4696,-6.474,-6.5028,-6.4166,-6.2569,0.0,0.0,0.0,0.0,0.0,0.0,0.0,0.0,0.0,0.0,0.0,0.0,0.0,0.0,0.0,0.0,0.0,0.0,0.0,0.0,0.0,0.0,0.0,0.0,0.0,0.0,0.0,0.0,0.0,0.0,0.0,0.0,0.0,0.0,0.0,0.0,0.0,0.0,0.0,0.0,0.0,0.0,0.0,0.0,0.0,0.0,0.0,0.0,0.0,0.0,0.0,0.0,0.0,0.0,0.0,0.0,0.0,0.0,0.0,0.0,0.0,0.0,0.0,0.0,0.0,0.0,0.0,0.0,0.0,0.0,0.0,0.0,0.0,0.0,0.0,0.0,0.0,0.0,0.0,0.0,0.0,0.0,0.0,0.0,0.0,0.0,0.0,0.0,0.0,0.0,0.0,0.0,0.0,0.0,0.0,0.0,0.0,0.0,0.0,0.0,0.0,0.0,0.0,0.0,0.0,0.0,0.0,0.0,0.0,0.0,-6.4224,-6.4224,-6.3376,-6.5965,-6.5206,0.0,0.0,0.0,0.0,0.0,0.0,0.0,0.0,0.0,0.0,0.0,0.0,0.0,0.0,0.0,0.0,0.0,0.0,0.0,0.0,0.0,0.0,0.0,0.0,0.0,0.0,0.0,0.0,0.0,0.0,0.0,0.0,0.0,0.0,0.0,0.0,0.0,0.0,0.0,0.0,0.0,0.0,0.0,0.0,0.0,0.0,0.0,0.0,0.0,0.0,0.0,0.0,0.0,0.0,0.0,0.0,0.0,0.0,0.0,0.0,0.0,0.0,0.0,0.0,0.0,0.0,0.0,0.0,0.0,0.0,0.0,0.0,0.0,0.0,0.0,0.0,0.0,0.0,0.0,0.0,0.0,0.0,0.0,0.0,0.0,0.0,0.0,0.0,0.0,0.0,0.0,0.0,0.0,0.0,0.0,0.0,0.0,0.0,0.0,0.0,0.0,0.0,0.0,0.0,0.0,0.0,0.0,0.0,0.0,0.0,-6.4537,0.0,-6.4269,-6.4358,-6.3466,-6.1413,0.0,0.0,0.0,0.0,0.0,0.0,0.0,0.0,0.0,0.0,0.0,0.0,0.0,0.0,0.0,0.0,0.0,0.0,0.0,0.0,0.0,0.0,0.0,0.0,0.0,0.0,0.0,0.0,0.0,0.0,0.0,0.0,0.0,0.0,0.0,0.0,0.0,0.0,0.0,0.0,0.0,0.0,0.0,0.0,0.0,0.0,0.0,0.0,0.0,0.0,0.0,0.0,0.0,0.0,0.0,0.0,0.0,0.0,0.0,0.0,0.0,0.0,0.0,0.0,0.0,0.0,0.0,0.0,0.0,0.0,0.0,0.0,0.0,0.0,0.0,0.0,0.0,0.0,0.0,0.0,0.0,0.0,0.0,0.0,0.0,0.0,0.0,0.0,0.0,0.0,0.0,0.0,0.0,0.0,0.0,0.0,0.0,0.0,0.0,0.0,0.0,0.0,0.0,0.0,0.0,0.0,0.0,0.0,0.0,0.0,0.0,-6.409,-6.3466,-6.2528,0.0,0.0,0.0,0.0,0.0,0.0,0.0,0.0,0.0,0.0,0.0,0.0,0.0,0.0,0.0,0.0,0.0,0.0,0.0,0.0,0.0,0.0,0.0,0.0,0.0,0.0,0.0,0.0,0.0,0.0,0.0,0.0,0.0,0.0,0.0,0.0,0.0,0.0,0.0,0.0,0.0,0.0,0.0,0.0,0.0,0.0,0.0,0.0,0.0,0.0,0.0,0.0,0.0,0.0,0.0,0.0,0.0,0.0,0.0,0.0,0.0,0.0,0.0,0.0,0.0,0.0,0.0,0.0,0.0,0.0,0.0,0.0,0.0,0.0,0.0,0.0,0.0,0.0,0.0,0.0,0.0,0.0,0.0,0.0,0.0,0.0,0.0,0.0,0.0,0.0,0.0,0.0,0.0,0.0,0.0,0.0,0.0,0.0,0.0,0.0,0.0,0.0,0.0,0.0,0.0,0.0,0.0,0.0,0.0,0.0,0.0,-6.409,-6.3421,-6.2975,0.0,-6.0654,0.0,0.0,0.0,0.0,0.0,0.0,0.0,0.0,0.0,0.0,0.0,0.0,0.0,0.0,0.0,0.0,0.0,0.0,0.0,0.0,0.0,0.0,0.0,0.0,0.0,0.0,0.0,0.0,0.0,0.0,0.0,0.0,0.0,0.0,0.0,0.0,0.0,0.0,0.0,0.0,0.0,0.0,0.0,0.0,0.0,0.0,0.0,0.0,0.0,0.0,0.0,0.0,0.0,0.0,0.0,0.0,0.0,0.0,0.0,0.0,0.0,0.0,0.0,0.0,0.0,0.0,0.0,0.0,0.0,0.0,0.0,0.0,0.0,0.0,0.0,0.0,0.0,0.0,0.0,0.0,0.0,0.0,0.0,0.0,0.0,0.0,0.0,0.0,0.0,0.0,0.0,0.0,0.0,0.0,0.0,0.0,0.0,0.0,0.0,0.0,0.0,0.0,0.0,0.0,0.0,0.0,0.0,0.0,0.0,0.0,0.0,0.0,-6.1725,-6.0609,-6.2305,0.0,0.0,0.0,0.0,0.0,0.0,0.0,0.0,0.0,0.0,0.0,0.0,0.0,0.0,0.0,0.0,0.0,0.0,0.0,0.0,0.0,0.0,0.0,0.0,0.0,0.0,0.0,0.0,0.0,0.0,0.0,0.0,0.0,0.0,0.0,0.0,0.0,0.0,0.0,0.0,0.0,0.0,0.0,0.0,0.0,0.0,0.0,0.0,0.0,0.0,0.0,0.0,0.0,0.0,0.0,0.0,0.0,0.0,0.0,0.0,0.0,0.0,0.0,0.0,0.0,0.0,0.0,0.0,0.0,0.0,0.0,0.0,0.0,0.0,0.0,0.0,0.0,0.0,0.0,0.0,0.0,0.0,0.0,0.0,0.0,0.0,0.0,0.0,0.0,0.0,0.0,0.0,0.0,0.0,0.0,0.0,0.0,0.0,0.0,0.0,0.0,0.0,0.0,0.0,0.0,0.0,0.0,0.0,0.0,0.0,-6.293,-6.5296,-6.1993,-6.0877,-6.2488,0.0,0.0,0.0,0.0,0.0,0.0,0.0,0.0,0.0,0.0,0.0,0.0,0.0,0.0,0.0,0.0,0.0,0.0,0.0,0.0,0.0,0.0,0.0,0.0,0.0,0.0,0.0,0.0,0.0,0.0,0.0,0.0,0.0,0.0,0.0,0.0,0.0,0.0,0.0,0.0,0.0,0.0,0.0,0.0,0.0,0.0,0.0,0.0,0.0,0.0,0.0,0.0,0.0,0.0,0.0,0.0,0.0,0.0,0.0,0.0,0.0,0.0,0.0,0.0,0.0,0.0,0.0,0.0,0.0,0.0,0.0,0.0,0.0,0.0,0.0,0.0,0.0,0.0,0.0,0.0,0.0,0.0,0.0,0.0,0.0,0.0,0.0,0.0,0.0,0.0,0.0,0.0,0.0,0.0,0.0,0.0,0.0,0.0,0.0,0.0,0.0,0.0,0.0,0.0,0.0,0.0,0.0,0.0,0.0,0.0,0.0,0.0,0.0,0.0,-6.1594,0.0,0.0,0.0,0.0,0.0,0.0,0.0,0.0,0.0,0.0,0.0,0.0,0.0,0.0,0.0,0.0,0.0,0.0,0.0,0.0,0.0,0.0,0.0,0.0,0.0,0.0,0.0,0.0,0.0,0.0,0.0,0.0,0.0,0.0,0.0,0.0,0.0,0.0,0.0,0.0,0.0,0.0,0.0,0.0,0.0,0.0,0.0,0.0,0.0,0.0,0.0,0.0,0.0,0.0,0.0,0.0,0.0,0.0,0.0,0.0,0.0,0.0,0.0,0.0,0.0,0.0,0.0,0.0,0.0,0.0,0.0,0.0,0.0,0.0,0.0,0.0,0.0,0.0,0.0,0.0,0.0,0.0,0.0,0.0,0.0,0.0,0.0,0.0,0.0,0.0,0.0,0.0,0.0,0.0,0.0,0.0,0.0,0.0,0.0,0.0,0.0,0.0,0.0,0.0,0.0,0.0,0.0,0.0,0.0,0.0,0.0,0.0,0.0,0.0,0.0,0.0,0.0,0.0,0.0,0.0,0.0,0.0,0.0,0.0,0.0,0.0,0.0,0.0,0.0,0.0,0.0,0.0,0.0,0.0,0.0,0.0,0.0,0.0,0.0,0.0,0.0,0.0,0.0,0.0,0.0,0.0,0.0,0.0,0.0,0.0,0.0,0.0,0.0,0.0,0.0,0.0,0.0,0.0,0.0,0.0,0.0,0.0,0.0,0.0,0.0,0.0,0.0,0.0,0.0,0.0,0.0,0.0,0.0,0.0,0.0,0.0,0.0,0.0,0.0,0.0,0.0,0.0,0.0,0.0,0.0,0.0,0.0,0.0,0.0,0.0,0.0,0.0,0.0,0.0,0.0,0.0,0.0,0.0,0.0,0.0,0.0,0.0,0.0,0.0,0.0,0.0,0.0,0.0,0.0,0.0,0.0,0.0,0.0,0.0,0.0,0.0,0.0,0.0,0.0,0.0,0.0,0.0,0.0,0.0,0.0,0.0,0.0,0.0,0.0,0.0,0.0,0.0,0.0,0.0,0.0,0.0,0.0,0.0,0.0,0.0,0.0,0.0,0.0,0.0,0.0,0.0,0.0,0.0,0.0,0.0,0.0,0.0,0.0,0.0,0.0,0.0,0.0,0.0,0.0,0.0,0.0,0.0,0.0,0.0,0.0,0.0,0.0,0.0,0.0,0.0,0.0,0.0,0.0,0.0,0.0,0.0,0.0,0.0,0.0,0.0,0.0,0.0,0.0,0.0,0.0,0.0,0.0,0.0,0.0,0.0,0.0,0.0,0.0,0.0,0.0,0.0,0.0,0.0,0.0,0.0,0.0,0.0,0.0,0.0,0.0,0.0,0.0,0.0,0.0,0.0,0.0,0.0,0.0,0.0,0.0,0.0,0.0,0.0,0.0,0.0,0.0,0.0,0.0,0.0,0.0,0.0,0.0,0.0,0.0,0.0,0.0,0.0,0.0,0.0,0.0,0.0,0.0,0.0,0.0,0.0,0.0,0.0,0.0,0.0,0.0,0.0,0.0,0.0,0.0,0.0,0.0,0.0,0.0,0.0,0.0,0.0,0.0,0.0,0.0,0.0,0.0,0.0,0.0,0.0,0.0,0.0,0.0,0.0,0.0,0.0,0.0,0.0,0.0,0.0,0.0,0.0,0.0,0.0,0.0,0.0,0.0,0.0,0.0,0.0,0.0,0.0,0.0,0.0,0.0,0.0,0.0,0.0,0.0,0.0,0.0,0.0,0.0,0.0,0.0,0.0,0.0,0.0,0.0,0.0,0.0,0.0,0.0,0.0,0.0,0.0,0.0,0.0,0.0,0.0,0.0,0.0,0.0,0.0,0.0,0.0,0.0,0.0,0.0,0.0,0.0,0.0,0.0,0.0,0.0,0.0,0.0,0.0,0.0,0.0,0.0,0.0,0.0,0.0,0.0,0.0,0.0,0.0,0.0,0.0,0.0,0.0,0.0,0.0,0.0,0.0,0.0,0.0,0.0,0.0,0.0,0.0,0.0,0.0,0.0,0.0,0.0,0.0,0.0,0.0,0.0,0.0,0.0,0.0,0.0,0.0,0.0,0.0,0.0,0.0,0.0,0.0,0.0,0.0,0.0,0.0,0.0,0.0,0.0,0.0,0.0,0.0,0.0,0.0,0.0,0.0,0.0,0.0,0.0,0.0,0.0,0.0,0.0,0.0,0.0,0.0,0.0,0.0,0.0,0.0,0.0,0.0,0.0,0.0,0.0,0.0,0.0,0.0,0.0,0.0,0.0,0.0,0.0,0.0,0.0,0.0,0.0,0.0,0.0,0.0,0.0,0.0,0.0,0.0,0.0,0.0,0.0,0.0,0.0,0.0,0.0,0.0,0.0,0.0,0.0,0.0,0.0,0.0,0.0,0.0,0.0,0.0,0.0,0.0,0.0,0.0,0.0,0.0,0.0,0.0,0.0,0.0,0.0,0.0,0.0,0.0,0.0,0.0,0.0,0.0,0.0,0.0,0.0,0.0,0.0,0.0,0.0,0.0,0.0,0.0,0.0,0.0,0.0,0.0,0.0,0.0,0.0,0.0,0.0,0.0,0.0,0.0,0.0,0.0,0.0,0.0,0.0,0.0,0.0,0.0,0.0,0.0,0.0,0.0,0.0,0.0,0.0,0.0,0.0,0.0,0.0,0.0,0.0,0.0,0.0,0.0,0.0,0.0,0.0,0.0,0.0,0.0,0.0,0.0,0.0,0.0,0.0,0.0,0.0,0.0,0.0,0.0,0.0,0.0,0.0,0.0,0.0,0.0,0.0,0.0,0.0,0.0,0.0,0.0,0.0,0.0,0.0,0.0,0.0,0.0,0.0,0.0,0.0,0.0,0.0,0.0,0.0,0.0,0.0,0.0,0.0,0.0,0.0,0.0,0.0,0.0,0.0,0.0,0.0,0.0,0.0,0.0,0.0,0.0,0.0,0.0,0.0,0.0,0.0,0.0,0.0,0.0,0.0,0.0,0.0,0.0,0.0,0.0,0.0,0.0,0.0,0.0,0.0,0.0,0.0,0.0,0.0,0.0,0.0,0.0,0.0,0.0,0.0,0.0,0.0,0.0,0.0,0.0,0.0,0.0,0.0,0.0,0.0,0.0,0.0,0.0,0.0,0.0,0.0,0.0,0.0,0.0,0.0,0.0,0.0,0.0,0.0,0.0,0.0,0.0,0.0,0.0,0.0,0.0,0.0,0.0,0.0,0.0,0.0,0.0,0.0,0.0,0.0,0.0,0.0,0.0,0.0,0.0,0.0,0.0,0.0,0.0,0.0,0.0,0.0,0.0,0.0,0.0,0.0,0.0,0.0,0.0,0.0,0.0,0.0,0.0,0.0,0.0,0.0,0.0,0.0,0.0,0.0,0.0,0.0,0.0,0.0,0.0,0.0,0.0,0.0,0.0,0.0,0.0,0.0,0.0,0.0,0.0,0.0,0.0,0.0,0.0,0.0,0.0,0.0,0.0,0.0,0.0,0.0,0.0,0.0,0.0,0.0,0.0,0.0,0.0,0.0,0.0,0.0,0.0,0.0,0.0,0.0,0.0,0.0,0.0,0.0,0.0,0.0,0.0,0.0,0.0,0.0,0.0,0.0,0.0,0.0,0.0,0.0,0.0,0.0,0.0,0.0,0.0,0.0,0.0,0.0,0.0,0.0,0.0,0.0,0.0,0.0,0.0,0.0,0.0,0.0,0.0,0.0,0.0,0.0,0.0,0.0,0.0,0.0,0.0,0.0,0.0,0.0,0.0,0.0,0.0,0.0,0.0,0.0,0.0,0.0,0.0,0.0,0.0,0.0,0.0,0.0,0.0,0.0,0.0,0.0,0.0,0.0,0.0,0.0,0.0,0.0,0.0,0.0,0.0,0.0,0.0,0.0,0.0,0.0,0.0,0.0,0.0,0.0,0.0,0.0,0.0,0.0,0.0,0.0,0.0,0.0,0.0,0.0,0.0,0.0,0.0,0.0,0.0,0.0,0.0,0.0,0.0,0.0,0.0,0.0,0.0,0.0,0.0,0.0,0.0,0.0,0.0,0.0,0.0,0.0,0.0,0.0,0.0,0.0,0.0,0.0,0.0,0.0,0.0,0.0,0.0,0.0,0.0,0.0,0.0,0.0,0.0,0.0,0.0,0.0,0.0,0.0,0.0,0.0,0.0,0.0,0.0,0.0,0.0,0.0,0.0,0.0,0.0,0.0,0.0,0.0,0.0,0.0,0.0,0.0,0.0,0.0,0.0,0.0,0.0,0.0,0.0,0.0,0.0,0.0,0.0,0.0,0.0,0.0,0.0,0.0,0.0,0.0,0.0,0.0,0.0,0.0,0.0,0.0,0.0,0.0,0.0]}],[{"header":{"parameterUnit":"kt","parameterCategory":2,"dx":1,"dy":1,"la1":29.587661999999998,"la2":31.0,"lo1":-88.76705300000003,"lo2":-86.6583820000003,"nx":115,"ny":88,"refTime":"2022-10-27T18:00:00:Z","depth":0,"parameterNumber":2,"parameterNumberName":"V-component_of_WINDS"},"data":[8.4929,8.5128,8.612,8.7347,8.8818,8.9304,9.05,9.2503,9.2826,9.3431,9.4437,9.5121,9.5363,9.5363,9.5363,9.5363,9.5363,9.5363,9.5363,9.5363,9.5363,9.5363,9.5443,9.5604,9.6449,9.7415,9.8381,9.9531,10.1401,10.182,10.2385,10.4081,10.4171,10.6751,11.0065,11.1411,11.2414,11.3774,11.5913,11.7859,11.989,12.2256,12.3619,12.4532,12.5597,12.6308,12.6766,12.7071,12.7121,12.7121,12.7121,12.7121,12.7121,12.7121,12.7121,12.7121,12.7685,12.7838,12.845,12.9211,13.1119,13.1866,13.3735,13.6784,14.0123,14.3208,14.5092,14.7132,14.7973,14.9323,14.9579,14.9579,14.9706,14.9706,14.9706,14.9706,14.9961,15.0088,15.0342,15.0721,15.0973,15.135,15.191,15.2222,15.2593,15.3024,15.3514,15.3514,15.3637,15.3637,15.3758,15.3758,15.3758,15.3758,15.3758,15.3758,15.388,15.388,15.4425,15.656,15.8914,16.1247,16.2968,16.4057,16.5991,16.7392,16.8122,16.8823,17.0022,17.0424,17.1162,17.1698,17.1765,17.1765,17.2232,8.4929,8.5242,8.6858,8.809,8.9013,9.0411,9.177,9.269,9.3506,9.4317,9.5121,9.5282,9.5363,9.5363,9.5363,9.5363,9.5363,9.5363,9.5363,9.5363,9.5363,9.5363,9.5363,9.5403,9.6007,9.6932,9.826,10.0334,10.2692,10.3388,10.4255,10.6151,10.8031,11.0065,11.0234,11.1746,11.3985,11.5236,11.6842,11.8682,12.1573,12.4516,12.519,12.5699,12.6258,12.6867,12.702,12.7121,12.7121,12.7121,12.7121,12.7121,12.7121,12.7121,12.7121,12.7685,12.8297,12.9059,12.9666,13.1022,13.3052,13.4905,13.6442,13.9143,14.2743,14.5359,14.7002,14.8362,14.9007,14.9579,14.9579,14.9706,14.9706,14.9706,14.9706,14.9834,15.0215,15.0535,15.1099,15.16,15.1725,15.1974,15.2346,15.2593,15.2963,15.3514,15.3758,15.3758,15.3758,15.3758,15.3758,15.3758,15.3758,15.3758,15.3758,15.3758,15.388,15.4244,15.5441,15.8232,16.0809,16.2649,16.4434,16.5927,16.6594,16.719,16.7918,16.848,16.8279,16.8413,16.9083,16.9687,16.9888,17.0357,17.1024,8.5288,8.6044,8.814,8.9847,9.092,9.1896,9.2701,9.3422,9.3871,9.4518,9.5282,9.5363,9.5363,9.5363,9.5363,9.5363,9.5363,9.5363,9.5363,9.5363,9.5363,9.5363,9.5363,9.5403,9.5765,9.6288,9.7948,10.0171,10.2875,10.4255,10.5765,10.769,10.8711,11.0234,11.1623,11.2414,11.4178,11.6122,11.8039,12.0679,12.371,12.4481,12.4887,12.5648,12.5953,12.6461,12.6766,12.7121,12.7121,12.7121,12.7121,12.7121,12.7121,12.7224,12.7583,12.845,12.9462,13.0519,13.1866,13.3735,13.592,13.7871,13.9564,14.1647,14.5417,14.7132,14.8749,14.8878,14.9579,14.9706,14.9706,14.9706,14.9706,14.9706,14.9834,15.0088,15.0595,15.1099,15.1725,15.2098,15.2346,15.2654,15.2901,15.327,15.3392,15.3758,15.3758,15.3758,15.3758,15.3758,15.3758,15.3758,15.3758,15.3758,15.3758,15.388,15.4244,15.5203,15.6207,15.8963,16.179,16.381,16.5523,16.6594,16.7352,16.7547,16.7547,16.7846,16.7809,16.7742,16.7876,16.8011,16.8279,16.8815,16.9504,8.5768,8.6645,8.9142,9.1293,9.3013,9.3185,9.3793,9.4317,9.4357,9.4925,9.5282,9.5363,9.5363,9.5363,9.5363,9.5363,9.5363,9.5363,9.5363,9.5363,9.5363,9.5363,9.5363,9.5363,9.5403,9.5926,9.7391,9.9562,10.2567,10.4824,10.6836,10.922,11.0571,11.1623,11.2959,11.4407,11.6147,11.8426,12.0435,12.2807,12.4582,12.443,12.4632,12.514,12.5953,12.6512,12.6766,12.7121,12.7121,12.7121,12.7121,12.7121,12.7275,12.7532,12.845,12.9666,13.1119,13.2555,13.4175,13.6442,13.8579,14.0541,14.2606,14.4959,14.7002,14.862,14.9579,14.9579,14.9706,14.9706,14.9706,14.9706,14.9706,14.9834,14.9961,15.0469,15.0973,15.16,15.2222,15.2593,15.2963,15.327,15.3514,15.3637,15.3758,15.3758,15.3758,15.3758,15.3758,15.3758,15.3758,15.3758,15.3758,15.388,15.4002,15.4244,15.5203,15.6207,15.8054,16.0304,16.2649,16.4603,16.6394,16.7253,16.7742,16.7645,16.7645,16.7742,16.7742,16.7742,16.7809,16.7876,16.8011,16.8369,16.8677,8.6248,8.6645,8.9063,9.1538,9.383,9.4719,9.5081,9.5242,9.5162,9.5489,9.5363,9.5363,9.5363,9.5363,9.5363,9.5363,9.5363,9.5363,9.5363,9.5363,9.5363,9.5363,9.5363,9.5363,9.5363,9.5966,9.7439,9.9424,10.2253,10.6066,10.9389,11.1544,11.2838,11.379,11.4737,11.6216,11.8514,12.0947,12.3046,12.4251,12.4836,12.5597,12.6461,12.5851,12.6308,12.6918,12.7071,12.7121,12.7121,12.7121,12.7121,12.7275,12.7736,12.8297,12.9462,13.0969,13.3347,13.4959,13.6927,13.9199,14.1152,14.3072,14.4959,14.6739,14.7844,14.9195,14.9579,14.9706,14.9706,14.9706,14.9706,14.9834,15.0088,15.0215,15.0535,15.0973,15.1475,15.2098,15.2778,15.3147,15.3392,15.3514,15.3758,15.3758,15.3758,15.3758,15.3758,15.3758,15.3758,15.3758,15.3758,15.3758,15.388,15.4002,15.4304,15.5322,15.6325,15.8168,16.0414,16.2543,16.4019,16.5624,16.7155,16.745,16.7742,16.7742,16.7742,16.7742,16.7742,16.7742,16.7742,16.7742,16.7937,16.839,16.8693,8.6886,8.7997,8.9622,9.1019,9.2465,9.3954,9.5086,9.5322,9.5363,9.5363,9.5363,9.5363,9.5363,9.5363,9.5363,9.5363,9.5363,9.5363,9.5363,9.5363,9.5363,9.5363,9.5363,9.5363,9.5529,9.6226,9.7666,9.9867,10.2764,10.7413,11.1958,11.3171,11.4333,11.5606,11.687,11.8495,12.1065,12.349,12.5268,12.5794,12.6257,12.6613,12.6817,12.6613,12.6766,12.702,12.7121,12.7121,12.7429,12.7736,12.7736,12.8043,12.8858,12.9263,13.0171,13.2905,13.5395,13.7554,13.962,14.1898,14.3807,14.555,14.7002,14.8233,14.9066,14.9451,14.9579,14.9706,14.9706,14.9706,14.9834,15.0088,15.0342,15.0661,15.1164,15.16,15.2098,15.2593,15.3147,15.3637,15.3758,15.3758,15.3758,15.3758,15.3758,15.3758,15.3758,15.3758,15.3758,15.3758,15.3758,15.3758,15.388,15.4425,15.556,15.6677,15.851,16.0681,16.2584,16.4019,16.5523,16.6792,16.7352,16.7547,16.7742,16.7742,16.7742,16.7742,16.7742,16.7742,16.7742,16.7899,16.8121,16.8666,16.9097,8.7562,8.8949,9.0141,9.094,9.1983,9.3109,9.4317,9.5322,9.5363,9.5363,9.5363,9.5363,9.5363,9.5363,9.5363,9.5363,9.5363,9.5363,9.5363,9.5363,9.5363,9.5363,9.5363,9.5529,9.5862,9.681,9.8755,10.1169,10.4354,10.8446,11.2508,11.4948,11.6426,11.7568,11.8979,12.0586,12.3333,12.5574,12.6813,12.7225,12.7481,12.743,12.7481,12.7276,12.7224,12.7071,12.7275,12.7429,12.7736,12.8349,12.8501,12.8858,12.9769,13.0171,13.1224,13.4282,13.7125,13.9676,14.223,14.4135,14.5608,14.706,14.8233,14.9195,14.9451,14.9579,14.9579,14.9834,14.9834,15.0088,15.0215,15.0721,15.1224,15.1475,15.1849,15.2346,15.2901,15.327,15.327,15.3637,15.3758,15.3758,15.3758,15.3758,15.3758,15.3758,15.3758,15.3758,15.3758,15.3758,15.3758,15.388,15.4244,15.5441,15.656,15.851,16.079,16.2903,16.4161,16.5624,16.6594,16.7155,16.7547,16.7742,16.7742,16.7742,16.7742,16.7742,16.7742,16.7742,16.8033,16.8149,16.8396,16.9232,16.9791,8.8038,8.8989,9.058,9.1661,9.2546,9.2707,9.3793,9.5322,9.5363,9.5363,9.5363,9.5363,9.5363,9.5363,9.5363,9.5363,9.5363,9.5363,9.5695,9.5695,9.6194,9.6319,9.6194,9.6441,9.7599,9.8549,10.0496,10.3749,10.7456,11.0795,11.3884,11.6357,11.838,11.9832,12.1591,12.349,12.5524,12.6659,12.7736,12.8043,12.8196,12.8349,12.8349,12.8196,12.789,12.7583,12.7736,12.8043,12.8349,12.8806,12.9314,12.9618,13.0171,13.0969,13.2662,13.5013,13.8604,14.0931,14.3322,14.5284,14.6798,14.7844,14.8938,14.9451,14.9706,14.9706,14.9706,14.9834,15.0088,15.0282,15.0661,15.135,15.1974,15.2222,15.2593,15.2963,15.3514,15.3637,15.3637,15.3637,15.3758,15.3758,15.3758,15.3758,15.3758,15.3758,15.3758,15.3758,15.3758,15.3758,15.388,15.4123,15.5322,15.6442,15.8396,16.0525,16.2691,16.4574,16.5927,16.6494,16.7088,16.7645,16.7742,16.7742,16.7742,16.7742,16.7742,16.7742,16.7742,16.813,16.8419,16.8598,16.8826,16.9655,17.0228,8.883,8.9659,9.0296,9.0735,9.1138,9.2224,9.3713,9.5162,9.5363,9.5363,9.5363,9.5363,9.5529,9.5529,9.5363,9.5363,9.5363,9.5529,9.5862,9.797,9.797,9.875,9.9778,10.0813,10.0691,10.2556,10.4393,10.6863,11.0656,11.3039,11.5564,11.821,12.0314,12.1909,12.3962,12.5524,12.7121,12.7736,12.8349,12.8654,12.901,12.9162,12.9162,12.9162,12.8858,12.8654,12.8806,12.9162,12.9466,13.0171,13.1224,13.2269,13.3011,13.4136,13.5739,13.6893,13.9451,14.1208,14.4077,14.6403,14.7844,14.8749,14.9323,14.9579,14.9706,14.9834,14.9834,14.9961,15.0342,15.0595,15.0847,15.1974,15.247,15.2593,15.2963,15.3392,15.3637,15.3637,15.3758,15.3758,15.3758,15.3758,15.3758,15.3758,15.3758,15.3758,15.3758,15.3758,15.3758,15.388,15.4123,15.5203,15.656,15.851,16.0681,16.2584,16.433,16.6228,16.6891,16.7352,16.7742,16.7742,16.7742,16.7742,16.7742,16.7742,16.7742,16.784,16.7937,16.8323,16.88,16.9097,16.9316,16.9888,17.0571,8.9304,8.9934,8.9934,9.0414,9.1098,9.2224,9.3512,9.4799,9.5242,9.5363,9.5529,9.5695,9.5862,9.6028,9.6194,9.6319,9.6485,9.665,9.7641,9.9731,10.0341,10.1757,10.237,10.2759,10.3592,10.5281,10.7283,10.9707,11.3134,11.5622,11.7885,11.9784,12.1458,12.3805,12.5885,12.7429,12.8196,12.8654,12.9162,12.9466,12.9921,13.0072,13.0072,13.0072,12.9618,12.9466,12.9466,12.9921,13.0223,13.0675,13.2566,13.3454,13.419,13.6317,13.7752,13.8462,14.0431,14.1898,14.4346,14.7394,14.9007,14.9646,15.0342,15.0469,15.0342,15.0342,15.0342,15.0595,15.1224,15.1475,15.1475,15.247,15.3024,15.3147,15.327,15.3637,15.3758,15.3758,15.3758,15.3758,15.3758,15.3758,15.3758,15.3758,15.3758,15.3758,15.3758,15.3758,15.4123,15.4365,15.5322,15.6677,15.8396,16.0681,16.2626,16.433,16.6027,16.6891,16.745,16.7742,16.7742,16.7742,16.7742,16.7742,16.7742,16.7742,16.7742,16.7742,16.8033,16.861,16.9273,16.9791,16.9956,17.0366,17.0912,8.9384,8.9974,9.0015,9.1138,9.2586,9.2707,9.327,9.4397,9.5041,9.5529,9.5736,9.636,9.6691,9.6856,9.7311,9.7476,9.7806,9.9241,10.0383,10.1153,10.2445,10.3205,10.3774,10.4474,10.5966,10.6566,10.8786,11.1292,11.3539,11.7154,11.9297,12.1092,12.2988,12.5107,12.7121,12.8858,12.9618,12.9769,13.0322,13.0675,13.0826,13.0826,13.0774,13.0675,13.0374,13.0223,13.0223,13.0675,13.1074,13.1822,13.3601,13.4775,13.5358,13.7752,13.9169,13.9591,14.1817,14.3458,14.4865,14.8491,15.0035,15.042,15.1039,15.1168,15.1479,15.1661,15.1536,15.135,15.1974,15.247,15.284,15.327,15.3514,15.3637,15.3637,15.3758,15.3758,15.3758,15.3758,15.3758,15.3758,15.3758,15.3758,15.3758,15.3758,15.3758,15.3758,15.4123,15.4545,15.5441,15.7196,15.8737,16.0571,16.2626,16.4264,16.5927,16.6859,16.745,16.7742,16.7742,16.7742,16.7742,16.7742,16.7742,16.7742,16.7742,16.7742,16.7742,16.8226,16.8705,16.9623,17.0272,17.0639,17.0912,17.0912,9.106,9.1822,9.1299,9.2063,9.3431,9.2948,9.3552,9.484,9.5282,9.5695,9.636,9.7187,9.7476,9.7641,9.797,9.8135,9.8914,10.0057,10.1681,10.3293,10.5051,10.6795,10.8012,10.8737,10.933,11.1948,11.3252,11.4636,11.7551,11.9309,12.1103,12.2848,12.4907,12.6762,12.8654,12.9466,12.9921,13.0374,13.0774,13.0924,13.1576,13.1576,13.1523,13.1523,13.1276,13.1074,13.1276,13.1523,13.212,13.3306,13.4921,13.6317,13.7894,13.9591,14.1321,14.223,14.3458,14.4807,14.6666,14.9016,15.0239,15.0563,15.124,15.1303,15.0876,15.124,15.1974,15.2035,15.2346,15.2717,15.2717,15.3392,15.3758,15.3758,15.3758,15.3758,15.3758,15.3758,15.3758,15.3758,15.3758,15.3758,15.3758,15.3758,15.388,15.4123,15.4545,15.5322,15.5972,15.7543,15.9188,16.0964,16.2691,16.433,16.5826,16.6594,16.7253,16.7742,16.7742,16.7742,16.7742,16.7742,16.7742,16.7742,16.7742,16.7742,16.7937,16.8226,16.861,16.9058,16.9623,17.0364,17.0639,17.0912,17.0912,9.1943,9.2667,9.2506,9.327,9.4477,9.3592,9.4035,9.5242,9.5363,9.5862,9.6691,9.8463,9.9241,9.9568,9.9894,10.0871,10.1195,10.2649,10.4254,10.6004,10.7561,10.947,11.0714,11.1835,11.3054,11.4688,11.5935,11.7997,12.0351,12.1189,12.279,12.4857,12.6917,12.8858,12.9618,13.0223,13.0675,13.1074,13.1374,13.1374,13.1971,13.1971,13.1971,13.1971,13.1971,13.1971,13.212,13.2566,13.3306,13.4575,13.6317,13.7609,13.8887,14.1126,14.2504,14.3129,14.4807,14.6139,14.7583,14.9587,15.0987,15.1063,15.1737,15.2349,15.1922,15.2166,15.2409,15.2654,15.3024,15.327,15.3147,15.3514,15.3758,15.3758,15.3758,15.3758,15.3758,15.3758,15.3758,15.3758,15.3758,15.3758,15.3758,15.3758,15.4244,15.4666,15.5798,15.691,15.8232,15.9749,16.1183,16.2903,16.4434,16.5927,16.6792,16.7253,16.7645,16.7742,16.7742,16.7742,16.7742,16.7742,16.784,16.784,16.784,16.784,16.813,16.861,16.9085,16.9461,16.9995,17.0456,17.0639,17.0821,17.0912,9.2023,9.2868,9.3592,9.4397,9.5242,9.4397,9.4518,9.5363,9.5529,9.6028,9.7022,9.9937,10.1238,10.1681,10.3657,10.498,10.5458,10.747,10.7627,10.8412,10.9908,11.0949,11.2039,11.3024,11.4309,11.5824,11.7135,11.8331,12.0076,12.2799,12.5117,12.7275,12.8806,12.9921,13.0675,13.0924,13.1276,13.1673,13.1822,13.1971,13.1971,13.1971,13.1971,13.1971,13.1971,13.212,13.2269,13.3454,13.4429,13.5358,13.7466,13.9169,14.0292,14.2367,14.3865,14.4749,14.6403,14.7713,14.8749,15.0535,15.1974,15.2717,15.3086,15.2962,15.2595,15.333,15.3637,15.3514,15.3514,15.3637,15.3637,15.3758,15.3758,15.3758,15.3758,15.3758,15.3758,15.3758,15.3758,15.3758,15.3758,15.3758,15.3758,15.4486,15.4906,15.556,15.6677,15.8232,15.9813,16.1941,16.3496,16.464,16.6128,16.6891,16.7547,16.7712,16.7742,16.7742,16.7742,16.7742,16.784,16.784,16.784,16.7937,16.8226,16.813,16.8226,16.9085,16.9834,17.018,17.0364,17.0639,17.0821,17.0912,17.0912,9.2908,9.3633,9.319,9.3954,9.5242,9.4397,9.4723,9.5489,9.6194,9.6525,9.7517,10.0263,10.2854,10.4458,10.5458,10.6093,10.6093,10.747,10.8098,10.8881,10.9908,11.1181,11.2318,11.3444,11.4982,11.7031,11.8331,11.9959,12.2461,12.5327,12.7685,12.9869,13.0223,13.0976,13.1523,13.1673,13.1725,13.1971,13.1971,13.1971,13.1971,13.1971,13.1971,13.1971,13.212,13.2566,13.3601,13.4282,13.5884,13.718,13.9169,14.071,14.2036,14.4,14.5475,14.687,14.8233,14.9519,15.0721,15.16,15.2346,15.2534,15.2657,15.2591,15.253,15.3267,15.3758,15.3758,15.3758,15.3758,15.3758,15.3758,15.3758,15.3758,15.3758,15.3758,15.3758,15.3758,15.3758,15.3758,15.3758,15.3758,15.4486,15.5146,15.5916,15.656,15.7951,15.9589,16.179,16.4396,16.5523,16.6394,16.7253,16.745,16.7742,16.7742,16.7742,16.7742,16.7742,16.784,16.813,16.813,16.813,16.8323,16.861,16.8705,16.899,16.9902,17.0639,17.0548,17.0548,17.073,17.0912,17.0912,17.0912,9.2868,9.3995,9.3512,9.4075,9.5408,9.5336,9.6037,9.7558,9.8093,9.9078,10.0666,10.1961,10.4094,10.6524,10.7673,10.783,10.8144,10.9083,10.9395,10.9862,11.0685,11.1894,11.2782,11.4506,11.6178,11.8439,11.9959,12.2092,12.4972,12.7787,12.9363,13.0623,13.1074,13.1576,13.1822,13.1971,13.1971,13.1971,13.1971,13.1971,13.1971,13.1971,13.1971,13.1971,13.2715,13.3454,13.4429,13.5304,13.7609,13.9395,14.0931,14.231,14.4077,14.5815,14.7322,14.869,15.0028,15.1475,15.2531,15.2901,15.3147,15.3086,15.2901,15.253,15.2714,15.3328,15.3758,15.3758,15.3758,15.3758,15.3758,15.3758,15.3758,15.3758,15.3758,15.3758,15.3758,15.3758,15.3758,15.3758,15.3758,15.4545,15.5322,15.6325,15.7606,15.8687,16.0257,16.1747,16.3666,16.5691,16.6693,16.7645,16.7742,16.7742,16.7742,16.7742,16.7742,16.784,16.784,16.8033,16.8323,16.861,16.861,16.88,16.9179,16.9555,16.9995,17.0456,17.073,17.073,17.073,17.0821,17.0912,17.0912,17.0912,9.2546,9.4035,9.4323,9.5012,9.6112,9.727,9.8872,10.0786,10.099,10.2928,10.4644,10.4485,10.5484,10.7941,10.9707,11.053,11.0685,11.053,11.053,11.0839,11.1457,11.2451,11.3768,11.6406,11.7896,11.9618,12.2552,12.5889,12.7838,12.9211,13.0322,13.0924,13.1673,13.1971,13.1971,13.1971,13.1971,13.1971,13.1971,13.1971,13.1971,13.2269,13.2418,13.2863,13.3695,13.4867,13.5648,13.7752,13.9676,14.129,14.272,14.4212,14.5815,14.7654,14.8432,14.9714,15.1164,15.3147,15.3514,15.3637,15.3637,15.3637,15.3514,15.3758,15.3574,15.3697,15.3758,15.3758,15.3758,15.3758,15.3758,15.3758,15.3758,15.3758,15.3758,15.3758,15.3758,15.3758,15.3758,15.3758,15.4545,15.5322,15.6207,15.7836,15.9365,16.1029,16.2608,16.3837,16.5146,16.6094,16.7155,16.7547,16.7742,16.7742,16.7742,16.7742,16.784,16.7937,16.8033,16.8226,16.861,16.899,16.9085,16.9529,16.9902,17.0272,17.0456,17.0548,17.0821,17.0821,17.0821,17.0821,17.0912,17.0912,17.0912,9.3069,9.4199,9.624,9.7753,9.8994,10.1595,10.3045,10.3686,10.4325,10.5121,10.5711,10.6749,10.7582,10.8568,10.9862,11.0839,11.0839,11.0839,11.1149,11.1611,11.2073,11.2993,11.4523,11.6601,11.8993,12.1021,12.3852,12.6094,12.9059,13.0623,13.1374,13.1673,13.1822,13.1971,13.1971,13.1822,13.1971,13.1971,13.1971,13.1971,13.2269,13.3159,13.3896,13.4043,13.5358,13.6804,13.7894,13.9676,14.1347,14.2993,14.4749,14.6476,14.7784,14.8878,15.0155,15.1725,15.284,15.3514,15.3758,15.3758,15.3758,15.3758,15.3758,15.3758,15.3758,15.3758,15.3758,15.3758,15.3758,15.3758,15.3758,15.3758,15.3758,15.3758,15.3758,15.3758,15.3758,15.3758,15.3758,15.4545,15.5322,15.6387,15.7375,15.8914,16.1093,16.278,16.3941,16.5146,16.5757,16.6759,16.7253,16.7547,16.784,16.784,16.7937,16.8033,16.8033,16.8226,16.8419,16.861,16.899,16.9367,16.9834,17.0272,17.0639,17.0548,17.073,17.0912,17.0912,17.0912,17.0912,17.0912,17.0912,17.0912,17.0912,9.5134,9.624,9.8824,10.0298,10.1348,10.3526,10.528,10.6704,10.7334,10.8275,10.9568,10.9925,11.0018,11.0173,11.0839,11.0839,11.0839,11.0839,11.1303,11.2179,11.3251,11.4467,11.5767,11.9195,12.1051,12.2813,12.5597,12.845,13.0571,13.1673,13.1822,13.1971,13.1971,13.1971,13.1971,13.1673,13.1725,13.1822,13.1725,13.1523,13.212,13.3454,13.4775,13.5648,13.6893,13.8462,13.9956,14.1347,14.3129,14.5017,14.6403,14.7784,14.9203,15.0535,15.1849,15.2901,15.3514,15.3758,15.3758,15.3758,15.3758,15.3758,15.3758,15.3758,15.3758,15.3758,15.3758,15.3758,15.3758,15.3758,15.3758,15.3758,15.3758,15.3758,15.3758,15.3758,15.3758,15.3758,15.4365,15.5203,15.7026,15.846,15.914,16.0589,16.2673,16.4046,16.5248,16.5959,16.6461,16.7056,16.745,16.784,16.8033,16.8226,16.861,16.8514,16.8323,16.8773,16.9058,16.9273,16.9555,16.9716,17.0272,17.073,17.0821,17.0821,17.0912,17.0912,17.0912,17.0912,17.0912,17.0912,17.0912,17.0912,17.0912,9.8038,9.9035,10.1595,10.3029,10.3802,10.5325,10.7693,10.9878,11.0235,11.1931,11.3964,11.2792,11.1919,11.1919,11.1303,11.0839,11.0994,11.141,11.1872,11.3098,11.4872,11.6525,11.8014,12.1107,12.3616,12.5177,12.7563,13.0009,13.1418,13.1971,13.1971,13.1971,13.1971,13.1971,13.1822,13.1374,13.1576,13.1822,13.1576,13.1822,13.2566,13.3896,13.5212,13.7609,13.9169,14.0514,14.1841,14.3208,14.5017,14.7394,14.7973,14.9135,15.0661,15.1974,15.2901,15.3514,15.3758,15.3758,15.3758,15.3758,15.3758,15.3758,15.3758,15.3758,15.3758,15.3758,15.3758,15.3758,15.3758,15.3758,15.3758,15.3758,15.3758,15.3758,15.3758,15.3758,15.3758,15.4244,15.5026,15.656,15.9027,16.1029,16.1638,16.2714,16.4046,16.5146,16.5959,16.6561,16.6859,16.7155,16.7645,16.8033,16.8323,16.88,16.9247,16.8895,16.88,16.9247,16.9529,16.9741,17.0088,17.018,17.0272,17.073,17.0912,17.0912,17.0912,17.0912,17.0912,17.0912,17.0912,17.0912,17.0912,17.0912,17.0912,10.1617,10.2507,10.4988,10.6186,10.6952,11.0126,11.1872,11.2792,11.3403,11.4115,11.4872,11.2945,11.2534,11.2687,11.1611,11.0839,11.1303,11.2179,11.366,11.5023,11.6823,11.8309,12.0138,12.2494,12.5054,12.7774,12.9283,13.063,13.1506,13.1971,13.1971,13.1971,13.1971,13.1971,13.1971,13.1822,13.1822,13.212,13.1971,13.2418,13.3896,13.4483,13.6695,13.9536,14.1485,14.3129,14.4615,14.5815,14.7263,14.8303,14.9519,15.0913,15.2098,15.2717,15.3147,15.3637,15.3637,15.3637,15.3637,15.3758,15.3758,15.3758,15.3758,15.3758,15.3758,15.3758,15.3758,15.3758,15.3758,15.3758,15.3758,15.3758,15.3758,15.3758,15.3758,15.3758,15.4002,15.5265,15.656,15.8232,16.0589,16.2394,16.3311,16.4254,16.5146,16.5959,16.6561,16.6958,16.7056,16.7352,16.7937,16.8323,16.861,16.9085,16.9341,16.9152,16.9461,16.9809,16.9995,17.0272,17.0548,17.0639,17.0639,17.0821,17.0912,17.0912,17.0912,17.0912,17.0912,17.0912,17.0912,17.0912,17.0912,17.0912,17.0912,10.362,10.4613,10.7714,10.8927,10.9395,11.1611,11.284,11.3451,11.4164,11.4872,11.5072,11.3603,11.3041,11.3146,11.2486,11.2285,11.2898,11.3964,11.5324,11.6973,11.8456,12.0072,12.1791,12.4139,12.5947,12.7423,12.9334,13.0389,13.1127,13.1602,13.1918,13.1971,13.1971,13.1822,13.1374,13.1426,13.1822,13.2418,13.2566,13.3601,13.5449,13.6606,13.8973,14.0875,14.3208,14.5284,14.687,14.7784,14.8818,14.9901,15.0535,15.135,15.247,15.247,15.2654,15.3147,15.327,15.327,15.3392,15.3514,15.3758,15.3758,15.3758,15.3758,15.3758,15.3758,15.3758,15.3758,15.3758,15.3758,15.3758,15.3758,15.3758,15.3758,15.3758,15.4123,15.5026,15.7259,15.9252,16.0699,16.2394,16.3561,16.4565,16.5589,16.6361,16.666,16.7155,16.7547,16.7645,16.7937,16.8419,16.88,16.9085,16.9273,16.9435,16.9716,17.002,17.0204,17.0364,17.0639,17.0821,17.0821,17.0912,17.0912,17.0912,17.0912,17.0912,17.0912,17.0912,17.0912,17.0912,17.0912,17.0912,17.0912,17.0912,10.5778,10.6958,10.9693,11.0839,11.0994,11.1919,11.2687,11.3451,11.4315,11.5174,11.5222,11.4212,11.3603,11.3603,11.366,11.3916,11.457,11.5475,11.6823,11.8406,11.9926,12.1671,12.3368,12.4997,12.6343,12.7119,12.8701,12.9756,13.0389,13.1127,13.1707,13.1918,13.1971,13.1673,13.1374,13.1673,13.2269,13.3306,13.3896,13.5158,13.7323,13.9114,14.0458,14.1979,14.4423,14.6739,14.8303,14.8818,14.9774,15.1099,15.1475,15.1725,15.247,15.247,15.2654,15.2901,15.3024,15.2963,15.2963,15.3392,15.3758,15.3758,15.3758,15.3758,15.3758,15.3758,15.3758,15.3758,15.3758,15.3758,15.3758,15.3758,15.4002,15.4244,15.4304,15.4844,15.6731,15.9301,16.1421,16.2821,16.4254,16.5554,16.616,16.666,16.6958,16.7352,16.7742,16.813,16.8419,16.861,16.899,16.9367,16.9648,16.9809,16.9995,17.0272,17.0548,17.0639,17.073,17.0821,17.0821,17.0912,17.0912,17.0912,17.0912,17.0912,17.0912,17.0912,17.0912,17.0912,17.0912,17.0912,17.0912,17.0912,17.0912,10.9614,11.0188,11.0638,11.0839,11.1149,11.2534,11.3298,11.3603,11.4921,11.5524,11.5524,11.4769,11.4618,11.4418,11.5324,11.5475,11.5776,11.6774,11.7815,11.9436,12.1236,12.2965,12.4301,12.5184,12.58,12.6591,12.6855,12.8279,12.9598,13.0231,13.0916,13.1602,13.1866,13.1769,13.1822,13.3011,13.3842,13.4336,13.5358,13.7323,13.9395,14.0653,14.2116,14.3942,14.6271,14.7973,14.9007,14.9646,15.0215,15.1785,15.2346,15.247,15.2717,15.327,15.327,15.3024,15.3147,15.327,15.2963,15.3392,15.3758,15.3758,15.3758,15.3758,15.3758,15.3758,15.3758,15.3758,15.3758,15.3758,15.3758,15.3758,15.4365,15.5322,15.5498,15.708,15.9589,16.1202,16.2394,16.4046,16.4874,16.5858,16.6561,16.7056,16.7285,16.813,16.8323,16.8705,16.899,16.9179,16.9529,16.9902,17.018,17.0272,17.0548,17.073,17.0821,17.0912,17.0912,17.0912,17.0912,17.0912,17.0912,17.0912,17.0912,17.0912,17.0912,17.0912,17.0912,17.0912,17.0912,17.0912,17.0912,17.0912,17.0912,10.9816,11.1457,11.1457,11.1766,11.238,11.3603,11.4012,11.4164,11.5222,11.5975,11.6275,11.5975,11.6076,11.6674,11.7864,11.8604,11.8996,11.9486,12.0218,12.1236,12.2103,12.3304,12.4159,12.4867,12.522,12.58,12.638,12.7277,12.8173,12.8965,12.9861,13.0811,13.0524,13.0647,13.1471,13.2863,13.3989,13.5104,13.7037,13.931,14.1623,14.2584,14.4135,14.6006,14.7453,14.862,14.9579,15.0088,15.0721,15.1661,15.2035,15.2346,15.2717,15.2778,15.2654,15.2901,15.3024,15.3147,15.2963,15.3392,15.3758,15.3758,15.3758,15.3758,15.3758,15.3758,15.3758,15.3758,15.3758,15.3758,15.388,15.4425,15.5441,15.6731,15.8117,15.986,16.2608,16.3205,16.415,16.5488,16.6461,16.7056,16.7742,16.813,16.8514,16.88,16.899,16.9273,16.9716,16.9716,16.9902,17.0364,17.0639,17.0639,17.073,17.0821,17.0912,17.0912,17.0912,17.0912,17.0912,17.0912,17.0912,17.0912,17.0912,17.0912,17.0912,17.0912,17.0912,17.0912,17.0912,17.0912,17.0912,17.0912,17.0912,11.0599,11.2333,11.238,11.2687,11.3346,11.4164,11.4322,11.4231,11.5329,11.6078,11.6528,11.7171,11.7716,11.8406,12.0072,12.1236,12.1526,12.2011,12.2443,12.2679,12.2679,12.3109,12.3874,12.4584,12.5009,12.5114,12.58,12.6433,12.6802,12.7699,12.8859,13.0178,13.0241,13.0716,13.1909,13.3989,13.525,13.6496,13.8973,14.1623,14.3672,14.5075,14.6666,14.8233,14.9135,14.9834,15.0215,15.0721,15.1224,15.1785,15.1849,15.2222,15.2717,15.2654,15.2654,15.284,15.2963,15.2963,15.3024,15.3392,15.3758,15.3758,15.3758,15.3758,15.3758,15.3758,15.388,15.4183,15.4183,15.4425,15.4906,15.5679,15.6614,15.8232,16.0147,16.2286,16.415,16.494,16.5655,16.6958,16.7547,16.8033,16.861,16.8895,16.9179,16.9435,16.9623,16.9716,17.018,17.0364,17.0364,17.073,17.0912,17.0912,17.0912,17.0912,17.0912,17.0912,17.0912,17.0912,17.0912,17.0912,17.0912,17.0912,17.0912,17.0844,17.0844,17.0707,17.0844,17.0912,17.0912,17.0912,17.0912,17.0707,17.0707,11.3098,11.3193,11.3146,11.3155,11.346,11.4122,11.3893,11.3559,11.5537,11.6133,11.6132,11.7856,11.9042,11.9678,12.1619,12.2535,12.2679,12.3304,12.3304,12.2822,12.2679,12.3109,12.3732,12.4443,12.4867,12.5009,12.5114,12.5694,12.6486,12.6749,12.7962,12.9955,13.119,13.2811,13.4053,13.7037,13.8321,13.9114,14.2116,14.4154,14.5417,14.7784,14.9646,15.0282,15.0973,15.135,15.1536,15.1725,15.191,15.191,15.247,15.2717,15.284,15.3392,15.327,15.284,15.3392,15.327,15.3086,15.3392,15.3758,15.388,15.4002,15.3758,15.4123,15.4244,15.4545,15.5322,15.5441,15.5854,15.6793,15.7606,15.8117,15.8687,16.1574,16.3837,16.5248,16.6261,16.6891,16.7645,16.813,16.8705,16.9179,16.9341,16.9716,16.9902,17.0088,17.0272,17.0639,17.073,17.0821,17.0821,17.0912,17.0912,17.0912,17.0912,17.0912,17.0912,17.0912,17.0912,17.0912,17.0912,17.0912,17.0912,17.0844,17.0844,17.0775,17.0412,17.0343,16.9956,17.0024,17.0707,17.0707,17.0502,17.0366,11.2446,11.3002,11.2376,11.2338,11.2981,11.3525,11.3724,11.3626,11.4849,11.5771,11.6684,11.8696,12.0162,12.1319,12.3224,12.4106,12.4159,12.3874,12.3589,12.3304,12.3017,12.316,12.3732,12.3732,12.3964,12.4867,12.5009,12.522,12.5642,12.5694,12.6433,12.8107,12.9912,13.1883,13.3861,13.7114,13.99,14.1647,14.3885,14.5948,14.7914,14.9135,15.0282,15.1224,15.1661,15.1785,15.191,15.2654,15.3024,15.3024,15.327,15.3392,15.3392,15.3514,15.3637,15.3514,15.3637,15.3698,15.3514,15.3637,15.4002,15.4724,15.4844,15.5084,15.5916,15.6034,15.6152,15.6677,15.6739,15.7026,15.7951,15.8864,16.0322,16.179,16.381,16.5386,16.6361,16.7352,16.813,16.861,16.9179,16.9529,16.9902,17.0088,17.0364,17.0548,17.0639,17.073,17.0821,17.0912,17.0912,17.0912,17.0912,17.0912,17.0912,17.0912,17.0912,17.0912,17.0912,17.0912,17.0912,17.0912,17.0707,17.0639,17.0844,17.0844,16.9729,16.9593,16.9183,16.8296,16.7614,16.8228,16.8637,16.8842,16.9388,11.2438,11.2935,11.2207,11.2355,11.3231,11.3667,11.371,11.3463,11.4675,11.5578,11.6858,11.9218,12.1022,12.2463,12.4427,12.5325,12.492,12.481,12.4945,12.5063,12.4176,12.3876,12.4202,12.346,12.3589,12.4443,12.4867,12.5009,12.515,12.5572,12.6243,12.7695,13.0148,13.2558,13.5174,13.867,14.1372,14.3827,14.5889,14.7914,14.9714,15.0661,15.1414,15.2283,15.2407,15.2407,15.2531,15.327,15.3758,15.3758,15.3758,15.3758,15.3758,15.3758,15.3758,15.3758,15.3758,15.388,15.4244,15.4002,15.4304,15.5141,15.5498,15.5972,15.6677,15.7026,15.749,15.7951,15.8014,15.8409,15.9316,16.0386,16.151,16.3418,16.4265,16.4898,16.6348,16.7295,16.8233,16.93,16.9995,17.0364,17.0456,17.0548,17.0821,17.0753,17.0821,17.0821,17.0912,17.0912,17.0912,17.0912,17.0912,17.0912,17.0912,17.0912,17.0912,17.0912,17.0912,17.0912,17.0912,17.0844,17.0412,17.0343,17.0616,17.0275,16.9047,16.8228,16.7614,16.6863,16.6453,16.6385,16.6317,16.6795,16.7545,11.294,11.3328,11.3473,11.3664,11.4337,11.4481,11.3984,11.3529,11.5134,11.5694,11.6364,11.9385,12.1446,12.2708,12.5094,12.5958,12.5184,12.5779,12.6778,12.7568,12.6005,12.5442,12.539,12.4358,12.4031,12.4017,12.4584,12.5009,12.5291,12.636,12.7539,12.9334,13.2737,13.5555,13.8053,14.1671,14.4499,14.6022,14.863,15.0475,15.0853,15.247,15.3392,15.3514,15.3637,15.3514,15.3637,15.3637,15.3758,15.3758,15.3758,15.3758,15.3758,15.3758,15.3758,15.388,15.3697,15.4242,15.5079,15.4178,15.3993,15.5181,15.5548,15.5535,15.5996,15.6818,15.7801,15.8469,15.8934,15.9621,16.1054,16.2069,16.2527,16.2047,16.2704,16.3918,16.5778,16.6359,16.7275,16.9495,17.0456,17.0821,17.0753,17.0753,17.0912,17.0912,17.0912,17.0912,17.0912,17.0912,17.0912,17.0912,17.0912,17.0912,17.0912,17.0844,17.0844,17.0844,17.0775,17.0912,17.0912,17.0207,16.9797,16.9456,16.9661,16.9115,16.7887,16.6863,16.618,16.5361,16.5703,16.5566,16.543,16.5498,16.6044,11.3157,11.325,11.3201,11.3343,11.3629,11.4198,11.414,11.408,11.5088,11.616,11.729,11.9808,12.178,12.3112,12.4709,12.4758,12.3693,12.522,12.6241,12.6411,12.59,12.5888,12.607,12.5521,12.4658,12.3979,12.4584,12.5519,12.6307,12.6864,12.8187,12.9996,13.3118,13.6456,13.9733,14.2913,14.625,14.9212,15.0727,15.1789,15.2717,15.3392,15.3758,15.3758,15.3758,15.3758,15.3758,15.3758,15.3758,15.3758,15.3758,15.3758,15.3758,15.3758,15.4123,15.46,15.332,15.2765,15.3714,15.2851,15.3057,15.4945,15.5284,15.5621,15.6401,15.6843,15.7236,15.7609,15.7934,15.8473,15.9811,16.1401,16.2773,16.3338,16.4474,16.5847,16.7158,16.8409,16.9524,17.0207,17.0526,17.0207,16.9593,17.0275,17.0775,17.0912,17.0912,17.0912,17.0912,17.0912,17.0912,17.0912,17.0912,17.0844,17.0434,17.0229,17.0229,17.0297,17.0297,17.0707,17.0707,16.9661,16.9047,16.8569,16.816,16.7545,16.6726,16.5634,16.4474,16.3314,16.3587,16.4065,16.3928,16.4133,16.4542,11.2583,11.2583,11.2815,11.3097,11.3428,11.4392,11.4684,11.4825,11.5651,11.6695,11.8032,11.9822,12.1304,12.2482,12.3635,12.3746,12.3496,12.4512,12.5374,12.5738,12.5611,12.5743,12.5783,12.556,12.484,12.4121,12.4584,12.566,12.7141,12.8246,12.9613,13.1455,13.4332,13.7411,14.0738,14.4179,14.7652,15.0627,15.1979,15.284,15.3637,15.3758,15.3758,15.3758,15.3758,15.3758,15.3758,15.3758,15.3758,15.3758,15.4183,15.3998,15.3204,15.3804,15.4391,15.4537,15.3142,15.2761,15.3626,15.2761,15.2944,15.4844,15.5128,15.5411,15.6153,15.6905,15.7541,15.7857,15.838,15.8487,15.8938,15.9954,16.1548,16.2587,16.3814,16.4788,16.6305,16.7571,16.8637,16.9047,16.9183,16.9115,16.8842,16.9866,17.0844,17.0912,17.0912,17.0912,17.0912,17.0912,17.0912,17.0912,17.0844,17.0571,16.9593,16.9183,16.9183,16.9183,16.9251,16.9251,16.9047,16.8023,16.7477,16.6931,16.6931,16.6317,16.4747,16.3792,16.386,16.27,16.2154,16.2359,16.1744,16.2632,16.3109,11.1677,11.1866,11.2424,11.3371,11.4115,11.5232,11.5639,11.5842,11.6706,11.7537,11.8448,11.9525,12.0415,12.1087,12.2121,12.3104,12.3983,12.4087,12.4802,12.5682,12.5582,12.5113,12.4429,12.4735,12.469,12.4653,12.5414,12.6346,12.788,13.0456,13.2147,13.3019,13.679,13.9414,14.1651,14.5807,14.8804,15.0091,15.2168,15.3697,15.3758,15.3697,15.3636,15.3758,15.3758,15.3758,15.3758,15.3697,15.3636,15.3697,15.4534,15.4096,15.2211,15.3967,15.4617,15.3371,15.3057,15.3557,15.456,15.3529,15.3465,15.4636,15.4773,15.5028,15.5144,15.6578,15.7833,15.8879,15.9564,15.9923,15.875,15.9387,15.9961,16.0681,16.077,16.2096,16.3958,16.4796,16.4952,16.6044,16.6453,16.6863,16.8228,16.9729,17.0229,17.0571,17.0707,17.0685,17.0775,17.0775,17.0639,17.0639,17.0297,16.9524,16.6999,16.6931,16.6726,16.6863,16.7272,16.6658,16.6317,16.6112,16.5634,16.5293,16.5839,16.5225,16.3178,16.2632,16.3246,16.3178,16.27,16.2154,16.2427,16.2086,16.2017,11.3207,11.3308,11.4205,11.5752,11.7417,11.7773,11.7874,11.7925,11.8179,11.8761,11.9577,12.0654,12.1023,12.0733,12.0989,12.1296,12.1602,12.2235,12.2998,12.4019,12.4543,12.502,12.5258,12.5377,12.6222,12.7587,12.829,12.9979,13.2243,13.4704,13.6244,13.7222,13.9094,14.1604,14.4211,14.5603,14.7965,15.0822,15.1736,15.2776,15.3451,15.2776,15.2714,15.3697,15.3758,15.3758,15.3758,15.2776,15.2223,15.2223,15.2429,15.2155,15.1611,15.3849,15.4623,15.3283,15.2289,15.228,15.349,15.2255,15.2007,15.3139,15.3245,15.3456,15.3916,15.4745,15.5664,15.6833,15.8648,16.036,16.0453,16.0806,16.0982,16.138,16.2401,16.3169,16.3977,16.5088,16.5634,16.5976,16.5157,16.5225,16.6522,16.7204,16.8023,16.8978,16.9183,16.9456,17.0412,16.9797,16.9183,16.9115,16.8091,16.7136,16.6453,16.5976,16.618,16.618,16.6112,16.6453,16.7682,16.6726,16.5839,16.6003,16.618,16.5634,16.4679,16.4747,16.5293,16.4884,16.4133,16.3382,16.3041,16.2359,16.1881,11.508,11.5182,11.5791,11.6858,11.8078,11.8637,11.8789,11.884,11.9297,11.9789,12.0273,12.0887,12.0903,12.0611,12.0611,12.0611,12.0611,12.1048,12.1551,12.2114,12.2895,12.3476,12.4055,12.5154,12.6986,12.9,13.0674,13.3069,13.5869,13.7832,13.9332,14.0371,14.1077,14.259,14.4753,14.5956,14.7705,15.0011,15.0564,15.124,15.1916,15.124,15.124,15.1977,15.21,15.21,15.2038,15.1779,15.1524,15.158,15.2468,15.2466,15.151,15.3688,15.409,15.236,15.1929,15.2027,15.2735,15.2011,15.188,15.2508,15.282,15.3027,15.3439,15.4289,15.5683,15.7356,15.9193,16.0542,16.1485,16.1744,16.1744,16.1881,16.2495,16.3109,16.3109,16.386,16.4406,16.4338,16.3655,16.3655,16.4952,16.5361,16.5976,16.7204,16.7545,16.7818,16.8637,16.816,16.7614,16.7341,16.5703,16.4542,16.4269,16.4406,16.4679,16.5088,16.5117,16.5574,16.6642,16.628,16.6076,16.6983,16.6438,16.5982,16.616,16.5907,16.5293,16.4884,16.4201,16.3109,16.3109,16.2359,16.1881,11.7011,11.7061,11.7163,11.7214,11.7468,11.8535,11.8992,11.9145,12.0008,12.0611,12.0706,12.0611,12.0611,12.0611,12.0611,12.0611,12.0611,12.0611,12.0611,12.0808,12.1194,12.168,12.2165,12.4726,12.7367,12.9871,13.2543,13.5702,13.9257,14.0347,14.1709,14.2975,14.3011,14.3428,14.4142,14.6177,14.7554,14.7738,14.8721,14.9336,14.9458,14.9458,14.952,14.9643,14.9643,14.9761,15.0003,15.0696,15.1153,15.1499,15.3354,15.345,15.1649,15.3139,15.3245,15.1011,15.16,15.2226,15.2122,15.2226,15.2097,15.233,15.2845,15.3319,15.3523,15.4763,15.6834,15.9018,16.0135,16.0525,16.1249,16.1335,16.1403,16.1335,16.1676,16.1744,16.1881,16.1744,16.1744,16.1744,16.2017,16.229,16.3587,16.386,16.4338,16.543,16.5771,16.6249,16.659,16.6317,16.6044,16.5478,16.4133,16.27,16.27,16.2222,16.3382,16.4182,16.3986,16.4762,16.5986,16.6056,16.5556,16.7369,16.6463,16.6438,16.6139,16.5361,16.4542,16.4679,16.386,16.2359,16.2017,16.1881,16.1744,11.7061,11.7163,11.8027,11.8382,11.8535,11.9602,12.011,12.011,12.0364,12.0903,12.139,12.139,12.139,12.139,12.139,12.139,12.139,12.0757,12.0903,12.1339,12.0903,12.1339,12.2587,12.4903,12.8511,13.2976,13.5503,13.9263,14.3392,14.3393,14.4297,14.6225,14.5602,14.5355,14.5831,14.5514,14.6166,14.7615,14.694,14.7001,14.8107,14.8168,14.866,14.952,14.9581,15.0116,15.0813,14.948,14.9387,15.1086,15.075,15.0605,15.094,15.1303,15.1221,15.0564,14.9703,14.9264,14.9328,14.9264,14.943,14.9835,15.1811,15.329,15.394,15.3851,15.4562,15.6454,15.7202,15.7548,15.8368,15.9356,16.0038,16.0106,16.0994,16.154,16.1676,16.1744,16.1744,16.1744,16.1744,16.1813,16.2154,16.229,16.2427,16.2905,16.3792,16.502,16.5839,16.5157,16.4435,16.4191,16.4688,16.4796,16.5225,16.502,16.5137,16.5566,16.5526,16.6098,16.7187,16.7754,16.8095,16.8844,16.8435,16.7707,16.7729,16.6658,16.5703,16.5361,16.4884,16.4474,16.345,16.2495,16.1744,11.8637,11.8687,11.9297,11.9551,11.9602,12.0212,12.0611,12.0611,12.1142,12.1722,12.2155,12.2207,12.2207,12.2207,12.2155,12.2207,12.2155,12.1722,12.1722,12.2062,12.1722,12.1866,12.2965,12.6339,12.9969,13.3921,13.7607,14.1475,14.4956,14.524,14.6051,14.7525,14.6692,14.6132,14.6111,14.5376,14.5609,14.6633,14.4728,14.3807,14.3991,14.3991,14.4053,14.4114,14.5343,14.6242,14.6929,14.5517,14.5398,14.6665,14.5891,14.6306,14.7932,14.7918,14.8304,14.9355,14.8749,14.8298,14.8298,14.8298,14.8564,14.9066,15.0575,15.2266,15.3812,15.4557,15.5355,15.6462,15.6547,15.6803,15.7225,15.7991,15.8537,15.8537,15.9219,15.9697,15.9765,16.0243,16.0448,15.9902,16.0311,16.0448,15.9765,16.0311,16.0635,16.06,16.1739,16.2809,16.3313,16.3292,16.3,16.2279,16.3407,16.4469,16.4469,16.4537,16.5149,16.6509,16.6305,16.6892,16.8181,16.7842,16.8002,16.8729,16.805,16.7413,16.7409,16.6249,16.543,16.5157,16.4747,16.3996,16.3246,16.2427,16.1744,12.0611,12.0611,12.0611,12.0611,12.0611,12.0611,12.0757,12.0757,12.2011,12.2782,12.3081,12.3081,12.3185,12.3341,12.3133,12.3081,12.3081,12.2782,12.2679,12.2822,12.2679,12.2965,12.3627,12.8221,13.1566,13.4121,13.9124,14.2655,14.4711,14.5889,14.6872,14.7298,14.6927,14.5998,14.5173,14.5166,14.5043,14.4974,14.2701,14.1104,14.0183,14.0305,13.9568,13.7848,14.0244,14.14,14.0897,14.0852,14.0881,14.0954,14.0675,14.1651,14.3881,14.3754,14.4672,14.6763,14.68,14.68,14.7195,14.736,14.7826,14.8617,14.9763,15.1114,15.2848,15.507,15.6459,15.6626,15.6406,15.6626,15.6694,15.6831,15.6967,15.6967,15.7172,15.7308,15.7445,15.8469,15.8878,15.8059,15.8605,15.8741,15.8196,15.8862,15.9373,15.9166,16.037,16.101,16.0927,16.1336,16.1448,16.0998,16.1899,16.2711,16.3275,16.2846,16.402,16.6457,16.6314,16.6491,16.7827,16.7083,16.6635,16.6887,16.6124,16.5668,16.5819,16.4747,16.3928,16.3655,16.2905,16.2086,16.1949,16.154,16.1335,12.0611,12.0611,12.0611,12.0611,12.0611,12.1194,12.1484,12.1535,0.0,0.0,0.0,12.4997,12.5519,12.6447,12.5414,12.4997,12.4945,12.3433,12.3017,12.3589,12.3017,12.4196,12.7173,12.9801,13.3114,13.6898,13.9717,14.2397,14.4814,14.5058,14.5422,14.5904,14.5902,14.4566,14.2615,14.2896,14.2921,14.2271,14.178,14.1964,14.2947,14.3991,14.2333,13.7725,14.0121,14.0379,13.8075,13.8177,13.8651,13.9251,13.842,13.8524,13.9906,13.8934,13.9035,14.0401,13.9515,13.9754,14.18,14.2691,14.4149,14.663,15.033,15.1714,14.9976,15.1513,15.2729,15.3473,15.3555,15.3555,15.3555,15.4715,15.5534,15.5466,15.6558,15.724,15.7308,15.7581,15.8059,15.8878,15.8264,15.7991,15.881,15.8964,15.8894,15.8943,15.9681,16.0432,16.0254,16.0051,16.0225,16.1332,16.2844,16.4267,16.4402,16.4267,16.4788,16.5671,16.5739,16.592,16.6395,16.637,16.6234,16.6234,16.5165,16.4523,16.425,16.3314,16.2222,16.2154,16.1949,16.1744,16.1608,16.0789,15.997,12.0611,0.0,12.0611,12.0611,0.0,12.139,12.2062,12.2782,12.3589,12.4645,12.6175,12.6805,12.7383,12.7908,12.7331,12.6753,12.6123,12.5115,12.4825,12.5009,12.4532,12.6167,12.9368,13.1735,13.4568,13.7748,14.0532,14.259,14.3794,14.337,14.3483,14.413,14.2792,14.1569,14.0692,14.0359,13.9848,13.9507,13.9568,13.9507,13.9507,14.0674,14.0077,13.7649,0.0,0.0,0.0,0.0,0.0,0.0,0.0,0.0,0.0,0.0,0.0,13.7535,13.4511,13.353,13.5506,13.6853,13.9074,14.2175,14.5484,14.7012,14.6175,14.8465,15.0,15.0484,15.1166,15.1917,15.2668,15.3418,15.3896,15.3964,15.4578,15.4988,15.5056,15.567,15.6489,15.7104,15.7308,15.7156,15.6904,15.7959,15.8295,15.725,15.8589,15.9985,15.9895,15.9418,15.9588,16.1343,16.2495,16.2991,16.2991,16.3176,16.3587,16.4581,16.4991,16.5264,16.5535,16.5102,16.4736,16.4667,16.3685,16.2905,16.2836,16.229,16.1744,16.1744,16.1744,16.1403,15.9697,15.8946,15.84,12.0161,12.0161,12.0364,12.0611,12.0706,12.1167,12.2161,12.3247,12.3954,12.485,12.5853,12.7224,12.8226,12.8806,12.8384,12.7804,12.7066,12.6591,12.6331,12.6134,12.6134,12.7971,13.1256,13.3452,13.5914,13.85,14.1146,14.2589,14.283,14.1909,14.1703,14.2218,13.9951,13.8768,13.877,0.0,0.0,0.0,13.7186,13.7002,13.6143,13.725,13.7517,13.6838,14.0403,0.0,14.1448,14.067,13.9536,13.8151,13.7017,0.0,0.0,0.0,0.0,0.0,0.0,0.0,0.0,0.0,0.0,0.0,13.9296,14.0828,14.2353,14.4928,14.6379,14.6252,14.83,14.9938,15.0552,15.0893,15.1303,15.1849,15.1917,15.2122,15.2736,15.3896,15.492,15.5397,15.6285,15.6459,15.5782,15.7244,15.7899,15.6387,15.785,15.9375,15.9509,15.9235,15.9429,16.0528,16.0822,16.0956,16.1049,16.1418,16.2189,16.3133,16.3905,16.4043,16.4088,16.3475,16.2973,16.3061,16.2303,16.1744,16.1744,16.1744,16.1676,16.1403,16.1335,16.0516,15.7938,15.727,15.708,11.9043,11.9094,12.0059,12.0903,12.1526,12.0748,12.0565,12.0843,12.1588,12.197,12.2371,12.4481,12.7171,12.9861,12.7857,12.7435,12.8173,12.6169,12.5537,12.6134,12.6134,12.9014,13.3975,13.4366,13.6864,14.1264,14.1149,14.1625,14.277,14.135,14.0762,14.0814,13.9859,13.8291,13.6005,13.4715,13.404,13.4101,13.577,13.7263,13.824,13.9625,13.8524,13.4989,13.7852,13.8441,13.6009,13.6765,13.6702,13.5316,13.5064,13.5163,13.5388,13.2762,13.0392,0.0,12.5656,0.0,0.0,0.0,0.0,0.0,0.0,0.0,0.0,13.9652,13.9463,13.8535,14.3386,14.557,14.3181,14.4205,14.6048,14.8505,14.8846,14.9938,15.2395,15.2941,15.4032,15.6694,15.6012,15.6353,15.8231,15.8363,15.8043,15.7643,15.8254,15.854,15.8918,15.8851,15.9009,15.9644,15.9802,16.0095,16.0457,16.0502,16.0906,16.1397,16.1777,16.1749,16.2148,16.2117,16.1999,16.1931,16.1795,16.1676,16.1744,16.1676,16.1198,16.0038,15.9765,15.932,15.7944,15.6901,15.6468,11.8109,11.8496,11.8955,11.9873,12.0904,12.0425,12.0511,12.0977,12.1305,12.1949,12.2582,12.3585,12.5272,12.7224,12.6222,12.5694,12.5536,12.4955,12.4611,12.4798,12.6296,12.9183,13.3072,13.4971,13.7505,14.0731,14.1143,14.1614,14.2155,14.0762,13.9614,13.8879,13.7862,13.5575,13.232,13.3057,13.3855,13.4592,13.5544,13.6723,13.8071,13.9174,13.966,13.9275,14.1177,14.1856,14.1225,14.18,14.1481,14.0077,14.0013,13.9335,13.7915,13.2103,12.8158,0.0,0.0,0.0,0.0,0.0,0.0,0.0,0.0,0.0,0.0,0.0,13.4286,13.5811,14.2021,14.441,14.0656,14.2499,14.4,14.4478,14.4546,14.5365,14.7617,14.8505,14.9869,15.2053,15.2463,15.3527,15.5885,15.6611,15.69,15.7177,15.5831,15.4775,15.4909,15.6256,15.7199,15.7267,15.8726,15.9985,15.9895,16.0432,16.0942,16.1118,16.138,16.1485,16.1658,16.1744,16.1744,16.1676,16.1062,16.0516,16.0516,15.9902,15.9083,15.8332,15.7817,15.7054,15.5952,15.5299,15.5045,11.7078,11.7576,11.5985,11.6363,11.8037,11.8037,11.8832,11.9809,11.9892,12.0239,12.088,12.1401,12.1643,12.1711,12.1977,12.2106,12.2318,12.2864,12.3435,12.4056,12.6528,12.9257,13.2101,13.4947,13.7256,13.8877,14.0112,14.0396,13.9856,13.8973,13.7677,13.5912,13.4715,13.2504,12.9678,13.1828,13.3855,13.5452,13.5821,13.6497,13.7432,13.8454,14.0125,14.2246,14.3495,14.4619,14.5787,14.595,14.537,14.4339,14.2791,14.1083,13.9149,13.0373,0.0,0.0,0.0,0.0,0.0,0.0,0.0,0.0,0.0,12.5682,12.0089,0.0,12.884,0.0,13.8472,14.0997,13.8063,13.9496,0.0,0.0,13.9632,14.0178,14.2021,14.3795,14.5502,14.7071,14.8573,15.023,15.2493,15.3748,15.4555,15.4846,15.311,15.1497,15.1058,15.3541,15.5347,15.4382,15.6264,15.8198,15.7481,15.8954,16.0272,16.068,16.1281,16.1608,16.1267,16.1471,16.1744,16.1676,16.0789,16.0038,15.9697,15.8673,15.765,15.6519,15.5903,15.5151,15.4366,15.4238,15.4247,11.5906,11.6056,10.9925,10.9011,11.1725,11.1778,11.3075,11.5198,11.5251,11.468,11.3916,11.6035,11.5138,11.2173,11.327,0.0,11.9315,11.9498,12.1378,12.478,12.6791,12.9257,13.2101,13.4074,13.5247,13.5544,13.7222,13.6786,13.4731,13.5407,13.4149,13.1109,13.0288,12.9801,12.9555,13.0845,13.2872,13.5391,13.6742,13.72,13.6774,13.7744,13.8927,14.0172,14.1832,14.3213,14.4306,14.4404,14.4404,14.4048,13.8486,13.5194,13.478,0.0,0.0,0.0,0.0,0.0,0.0,0.0,0.0,0.0,0.0,0.0,0.0,0.0,0.0,12.585,12.9325,0.0,13.3013,13.2057,0.0,0.0,0.0,13.4377,13.7244,14.011,14.2499,14.4,0.0,0.0,15.0255,15.0544,15.0188,14.9757,15.1511,15.1965,14.9622,15.2406,15.3958,15.0798,15.171,15.2352,15.2191,15.474,15.7497,15.8862,16.0857,16.0925,15.9902,16.0584,16.1608,16.154,16.1608,16.1062,15.9765,15.9167,15.8227,15.4328,15.4209,15.4686,15.4487,15.4579,15.4808,11.0742,11.0276,10.7519,10.702,10.7845,10.8434,10.9811,11.1391,11.1391,11.0732,10.9653,11.0556,10.9291,10.6545,10.6979,0.0,0.0,0.0,11.4449,11.7699,12.1332,12.496,12.8666,13.13,13.3351,13.4743,13.4758,13.4543,13.4281,13.4255,12.9943,12.1611,0.0,0.0,12.3535,12.7897,13.1152,13.3057,13.6804,13.8439,13.7885,13.9002,14.0105,14.113,14.1763,14.2837,14.4177,14.3404,14.1536,13.8486,13.5033,13.0807,0.0,0.0,0.0,0.0,0.0,0.0,0.0,0.0,0.0,0.0,0.0,11.4844,11.1265,0.0,0.0,0.0,12.0535,12.1479,12.2912,12.5778,0.0,0.0,0.0,0.0,0.0,0.0,0.0,13.9359,14.1066,14.3301,14.6814,14.4296,14.2322,14.312,14.4119,14.438,14.3314,0.0,14.8384,14.8465,14.9184,15.0162,15.1238,15.0856,15.0961,15.2463,15.4715,15.6012,15.5602,15.7445,15.9014,15.8946,15.8332,15.7581,15.6967,15.5576,15.378,15.1569,15.149,15.2014,15.2239,15.2319,15.2468,10.3991,0.0,0.0,0.0,0.0,10.4428,10.573,10.707,10.6748,10.5895,10.4723,10.5028,0.0,0.0,0.0,0.0,0.0,0.0,10.9324,11.2168,11.7832,12.2063,12.5112,12.7836,13.0113,13.1594,13.0382,12.966,12.9634,12.8715,12.3904,11.5488,0.0,0.0,0.0,0.0,12.9309,13.1582,13.6804,13.9419,13.9227,14.003,14.0858,14.1408,14.1886,14.2568,14.3793,14.1311,13.7941,13.3657,12.9245,0.0,0.0,0.0,0.0,0.0,0.0,0.0,0.0,0.0,0.0,0.0,0.0,0.0,0.0,0.0,0.0,0.0,0.0,0.0,11.6087,12.0455,12.2298,0.0,0.0,0.0,0.0,0.0,0.0,0.0,0.0,0.0,14.0612,13.791,13.6493,0.0,0.0,14.056,13.949,14.2066,14.4023,14.3946,14.4256,0.0,14.6259,14.5473,14.5365,14.7344,15.0142,15.1985,15.1576,15.2872,15.3896,15.3418,15.3214,15.2531,15.103,14.9249,14.7868,14.6724,14.6826,14.7194,14.7062,14.7064,14.6925,0.0,0.0,0.0,0.0,0.0,0.0,0.0,0.0,10.1003,9.9737,0.0,9.985,0.0,0.0,0.0,0.0,0.0,10.3846,0.0,0.0,11.8002,12.2064,12.1826,12.3672,12.4564,12.4336,12.3169,12.1042,11.819,11.6587,0.0,0.0,0.0,0.0,0.0,0.0,12.7467,13.1275,13.6804,13.9848,14.0335,14.0518,14.0523,14.0386,14.1741,14.2482,14.25,13.7428,13.3593,13.1041,11.9956,0.0,0.0,0.0,0.0,0.0,0.0,0.0,0.0,0.0,0.0,0.0,0.0,0.0,0.0,0.0,0.0,0.0,0.0,0.0,0.0,11.6156,0.0,0.0,0.0,0.0,0.0,0.0,0.0,0.0,0.0,0.0,13.0827,13.185,13.3832,13.6698,0.0,0.0,0.0,0.0,14.2312,13.6416,13.5333,13.4992,13.3692,13.8063,14.2567,14.5365,0.0,0.0,14.8573,14.7276,14.5979,14.4614,14.6662,14.6662,14.0929,14.0512,14.0674,13.9294,13.977,13.9879,13.8758,13.8758,13.8688,0.0,0.0,0.0,0.0,0.0,0.0,0.0,0.0,0.0,9.5936,0.0,9.5231,0.0,0.0,0.0,0.0,0.0,0.0,0.0,0.0,10.6903,11.0189,11.2033,11.3566,11.4983,0.0,11.4746,11.1979,0.0,0.0,0.0,0.0,0.0,0.0,0.0,0.0,12.4136,12.7041,13.5237,13.9686,14.0062,14.1318,14.1303,14.0073,13.9784,13.812,13.4972,13.0493,12.6102,0.0,0.0,0.0,0.0,0.0,0.0,0.0,0.0,0.0,0.0,0.0,0.0,0.0,0.0,0.0,0.0,0.0,0.0,0.0,0.0,0.0,0.0,0.0,11.251,0.0,0.0,0.0,0.0,0.0,0.0,0.0,0.0,0.0,12.4618,12.5778,12.8577,13.349,13.5657,13.7421,13.9081,0.0,0.0,0.0,0.0,0.0,0.0,0.0,13.5742,13.5674,13.5811,13.6698,13.9155,14.0724,14.1543,14.1066,0.0,0.0,13.1243,13.0957,13.1967,13.1807,13.3076,13.3725,13.2258,13.2747,13.3166,0.0,0.0,0.0,0.0,0.0,0.0,0.0,0.0,0.0,9.1941,9.1127,0.0,0.0,0.0,0.0,0.0,0.0,0.0,0.0,0.0,0.0,0.0,10.5257,10.6114,0.0,0.0,0.0,0.0,0.0,0.0,0.0,0.0,0.0,0.0,0.0,0.0,12.2383,12.4783,13.3812,13.8973,13.9718,14.0973,14.0906,13.9454,13.9132,13.6465,13.1148,0.0,0.0,0.0,0.0,0.0,0.0,0.0,0.0,0.0,0.0,0.0,0.0,0.0,0.0,0.0,0.0,0.0,0.0,0.0,0.0,0.0,0.0,0.0,0.0,0.0,10.9175,0.0,0.0,0.0,0.0,0.0,0.0,0.0,0.0,0.0,0.0,0.0,12.339,12.8849,13.1166,13.3552,13.6625,13.6961,13.7643,0.0,0.0,0.0,0.0,0.0,0.0,0.0,0.0,0.0,0.0,0.0,0.0,0.0,0.0,12.9738,12.2907,12.2789,12.3708,12.3691,0.0,0.0,0.0,0.0,0.0,0.0,0.0,0.0,0.0,0.0,0.0,0.0,0.0,0.0,0.0,0.0,0.0,0.0,8.63,0.0,0.0,0.0,0.0,0.0,0.0,0.0,0.0,0.0,0.0,0.0,0.0,0.0,0.0,0.0,0.0,0.0,0.0,0.0,0.0,0.0,0.0,12.2321,12.4539,13.2513,13.7662,13.9596,13.9718,13.9454,13.8617,13.9637,13.7209,13.0843,0.0,0.0,0.0,0.0,0.0,0.0,0.0,0.0,0.0,0.0,0.0,0.0,0.0,0.0,0.0,0.0,0.0,0.0,0.0,0.0,0.0,0.0,0.0,0.0,0.0,0.0,10.4281,10.7269,11.0221,0.0,0.0,0.0,0.0,0.0,0.0,0.0,0.0,0.0,0.0,12.8369,13.2041,13.2669,13.2316,13.2449,13.2873,13.0351,12.8781,13.0283,13.2876,13.4309,0.0,0.0,0.0,0.0,0.0,0.0,0.0,0.0,0.0,0.0,0.0,0.0,0.0,0.0,0.0,0.0,0.0,0.0,0.0,0.0,0.0,0.0,0.0,0.0,0.0,0.0,0.0,0.0,0.0,0.0,0.0,0.0,0.0,0.0,0.0,0.0,0.0,0.0,0.0,0.0,0.0,0.0,0.0,0.0,0.0,0.0,0.0,0.0,0.0,0.0,0.0,0.0,0.0,0.0,11.9993,12.3075,13.1531,13.6872,13.8941,13.9401,13.9124,13.7875,13.4569,13.0063,0.0,0.0,0.0,0.0,0.0,0.0,0.0,0.0,0.0,0.0,0.0,0.0,0.0,0.0,0.0,0.0,0.0,0.0,0.0,0.0,0.0,0.0,0.0,0.0,0.0,0.0,0.0,0.0,10.8615,10.9513,11.0221,0.0,0.0,0.0,0.0,0.0,0.0,0.0,0.0,0.0,0.0,12.9257,13.3559,13.3143,13.2803,13.4036,13.2535,13.1033,13.0351,13.2876,13.3286,12.8577,0.0,0.0,0.0,0.0,0.0,0.0,0.0,0.0,0.0,0.0,0.0,0.0,0.0,0.0,0.0,0.0,0.0,0.0,0.0,0.0,0.0,0.0,0.0,0.0,0.0,0.0,0.0,0.0,0.0,0.0,0.0,0.0,0.0,0.0,0.0,0.0,0.0,0.0,0.0,0.0,0.0,0.0,0.0,0.0,0.0,0.0,0.0,0.0,0.0,0.0,0.0,0.0,0.0,11.8399,12.094,12.9285,13.4424,13.6175,13.6688,13.6648,13.6067,13.1835,12.6404,0.0,0.0,0.0,0.0,0.0,0.0,0.0,0.0,0.0,0.0,0.0,0.0,0.0,0.0,0.0,0.0,0.0,0.0,0.0,0.0,0.0,0.0,0.0,0.0,0.0,0.0,0.0,0.0,10.4952,10.5921,10.6153,0.0,0.0,0.0,0.0,0.0,0.0,0.0,0.0,0.0,0.0,12.4823,12.8986,12.8849,0.0,0.0,13.0078,12.8986,12.8645,13.1648,13.1716,12.5164,12.4072,0.0,0.0,0.0,0.0,0.0,0.0,0.0,0.0,0.0,0.0,0.0,0.0,0.0,0.0,0.0,0.0,0.0,0.0,0.0,0.0,0.0,0.0,0.0,0.0,0.0,0.0,0.0,0.0,0.0,0.0,0.0,0.0,0.0,0.0,0.0,0.0,0.0,0.0,0.0,0.0,0.0,0.0,0.0,0.0,0.0,0.0,0.0,0.0,0.0,0.0,0.0,0.0,0.0,11.8719,12.647,13.1398,13.2574,13.2635,13.2956,13.3425,13.0829,12.5394,0.0,0.0,0.0,0.0,0.0,0.0,0.0,0.0,0.0,0.0,0.0,0.0,0.0,0.0,0.0,0.0,0.0,0.0,0.0,0.0,0.0,0.0,0.0,0.0,0.0,0.0,0.0,0.0,0.0,0.0,0.0,0.0,0.0,0.0,0.0,0.0,0.0,0.0,0.0,0.0,0.0,11.9704,12.1069,12.1206,12.2161,0.0,0.0,12.3731,12.5028,12.9054,12.9669,12.2226,0.0,0.0,0.0,0.0,0.0,0.0,0.0,0.0,0.0,0.0,0.0,0.0,0.0,0.0,0.0,0.0,0.0,0.0,0.0,0.0,0.0,0.0,0.0,0.0,0.0,0.0,0.0,0.0,0.0,0.0,0.0,0.0,0.0,0.0,0.0,0.0,0.0,0.0,0.0,0.0,0.0,0.0,0.0,0.0,0.0,0.0,0.0,0.0,0.0,0.0,0.0,0.0,0.0,0.0,11.923,12.708,13.1864,13.3275,13.3275,13.3381,13.3425,12.7931,0.0,0.0,0.0,0.0,0.0,0.0,0.0,0.0,0.0,0.0,0.0,0.0,0.0,0.0,0.0,0.0,0.0,0.0,0.0,0.0,0.0,0.0,0.0,0.0,0.0,0.0,0.0,9.4353,0.0,0.0,0.0,0.0,0.0,0.0,0.0,0.0,0.0,0.0,0.0,0.0,0.0,0.0,11.9704,12.1069,12.0387,12.0319,0.0,0.0,11.9977,11.9227,12.4192,12.596,0.0,0.0,0.0,0.0,0.0,0.0,0.0,0.0,0.0,0.0,0.0,0.0,0.0,0.0,0.0,0.0,0.0,0.0,0.0,0.0,0.0,0.0,0.0,0.0,0.0,0.0,0.0,0.0,0.0,0.0,0.0,0.0,0.0,0.0,0.0,0.0,0.0,0.0,0.0,0.0,0.0,0.0,0.0,0.0,0.0,0.0,0.0,0.0,0.0,0.0,0.0,0.0,0.0,0.0,11.5058,11.7699,12.4395,12.8879,13.0845,13.0907,13.0907,13.0907,12.4272,11.8498,0.0,0.0,0.0,0.0,0.0,0.0,0.0,0.0,0.0,0.0,0.0,0.0,0.0,0.0,0.0,0.0,0.0,0.0,0.0,0.0,0.0,0.0,0.0,0.0,0.0,0.0,0.0,0.0,0.0,0.0,0.0,0.0,0.0,0.0,0.0,0.0,0.0,0.0,0.0,0.0,0.0,0.0,11.8203,11.7179,0.0,0.0,0.0,11.7794,11.6975,0.0,0.0,0.0,0.0,0.0,0.0,0.0,0.0,0.0,0.0,0.0,0.0,0.0,0.0,0.0,0.0,0.0,0.0,0.0,0.0,0.0,0.0,0.0,0.0,0.0,0.0,0.0,0.0,0.0,0.0,0.0,0.0,0.0,0.0,0.0,0.0,0.0,0.0,0.0,0.0,0.0,0.0,0.0,0.0,0.0,0.0,0.0,0.0,0.0,0.0,0.0,0.0,0.0,0.0,0.0,0.0,0.0,11.5303,12.0525,12.4457,12.7199,12.7282,12.7221,12.7199,12.1016,11.5672,0.0,0.0,0.0,0.0,0.0,0.0,0.0,0.0,0.0,0.0,0.0,0.0,0.0,0.0,0.0,0.0,0.0,0.0,0.0,0.0,0.0,0.0,0.0,0.0,0.0,0.0,0.0,0.0,0.0,0.0,0.0,0.0,0.0,0.0,0.0,0.0,0.0,0.0,0.0,0.0,0.0,11.2948,11.4449,11.3358,11.2334,0.0,0.0,11.6292,11.6292,11.8465,0.0,0.0,0.0,0.0,0.0,0.0,0.0,0.0,0.0,0.0,0.0,0.0,0.0,0.0,0.0,0.0,0.0,0.0,0.0,0.0,0.0,0.0,0.0,0.0,0.0,0.0,0.0,0.0,0.0,0.0,0.0,0.0,0.0,0.0,0.0,0.0,0.0,0.0,0.0,0.0,0.0,0.0,0.0,0.0,0.0,0.0,0.0,0.0,0.0,0.0,0.0,0.0,0.0,0.0,0.0,0.0,11.5242,11.9542,12.3044,12.5685,12.5808,12.5808,12.5747,12.2368,11.7483,0.0,0.0,0.0,0.0,0.0,0.0,0.0,0.0,0.0,0.0,0.0,0.0,0.0,0.0,0.0,0.0,0.0,0.0,0.0,0.0,0.0,0.0,0.0,0.0,0.0,0.0,0.0,0.0,0.0,0.0,0.0,0.0,0.0,0.0,0.0,0.0,0.0,0.0,0.0,0.0,0.0,11.2948,11.4449,11.3358,0.0,0.0,0.0,0.0,11.3289,11.3501,0.0,0.0,0.0,0.0,0.0,0.0,0.0,0.0,0.0,0.0,0.0,0.0,0.0,0.0,0.0,0.0,0.0,0.0,0.0,0.0,0.0,0.0,0.0,0.0,0.0,0.0,0.0,0.0,0.0,0.0,0.0,0.0,0.0,0.0,0.0,0.0,0.0,0.0,0.0,0.0,0.0,0.0,0.0,0.0,0.0,0.0,0.0,0.0,0.0,0.0,0.0,0.0,0.0,0.0,0.0,0.0,11.2232,11.5733,11.9112,12.2368,12.2491,12.2798,12.3253,11.8834,11.4505,0.0,0.0,0.0,0.0,0.0,0.0,0.0,0.0,0.0,0.0,0.0,0.0,0.0,0.0,0.0,0.0,0.0,0.0,0.0,0.0,0.0,0.0,0.0,0.0,0.0,0.0,0.0,0.0,0.0,0.0,0.0,0.0,0.0,0.0,0.0,0.0,0.0,0.0,0.0,0.0,10.9194,11.0491,11.131,0.0,0.0,0.0,0.0,0.0,0.0,11.1897,11.1324,0.0,0.0,0.0,0.0,0.0,0.0,0.0,0.0,0.0,0.0,0.0,0.0,0.0,0.0,0.0,0.0,0.0,0.0,0.0,0.0,0.0,0.0,0.0,0.0,0.0,0.0,0.0,0.0,0.0,0.0,0.0,0.0,0.0,0.0,0.0,0.0,0.0,0.0,0.0,0.0,0.0,0.0,0.0,0.0,0.0,0.0,0.0,0.0,0.0,0.0,0.0,0.0,0.0,0.0,0.0,10.8485,11.1276,11.4443,11.8252,11.8744,11.9419,12.0061,11.4628,11.0635,10.8546,0.0,0.0,0.0,0.0,0.0,0.0,0.0,0.0,0.0,0.0,0.0,0.0,0.0,0.0,0.0,0.0,0.0,0.0,0.0,0.0,0.0,0.0,0.0,0.0,0.0,0.0,0.0,0.0,0.0,0.0,0.0,0.0,0.0,0.0,0.0,0.0,0.0,0.0,0.0,10.6738,10.7966,0.0,0.0,0.0,0.0,0.0,0.0,0.0,0.0,11.0023,0.0,0.0,0.0,0.0,0.0,0.0,0.0,0.0,0.0,0.0,0.0,0.0,0.0,0.0,0.0,0.0,0.0,0.0,0.0,0.0,0.0,0.0,0.0,0.0,0.0,0.0,0.0,0.0,0.0,0.0,0.0,0.0,0.0,0.0,0.0,0.0,0.0,0.0,0.0,0.0,0.0,0.0,0.0,0.0,0.0,0.0,0.0,0.0,0.0,0.0,0.0,0.0,0.0,0.0,0.0,0.0,10.8485,11.1249,11.4136,11.6409,11.7085,11.6225,11.4136,11.0696,10.5966,0.0,0.0,0.0,0.0,0.0,0.0,0.0,0.0,0.0,0.0,0.0,0.0,0.0,0.0,0.0,0.0,0.0,0.0,0.0,0.0,0.0,0.0,0.0,0.0,0.0,0.0,0.0,0.0,0.0,0.0,0.0,0.0,0.0,0.0,0.0,0.0,0.0,0.0,10.3462,10.6123,0.0,0.0,0.0,0.0,0.0,0.0,0.0,0.0,10.9046,0.0,0.0,0.0,0.0,0.0,0.0,0.0,0.0,0.0,0.0,0.0,0.0,0.0,0.0,0.0,0.0,0.0,0.0,0.0,0.0,0.0,0.0,0.0,0.0,0.0,0.0,0.0,0.0,0.0,0.0,0.0,0.0,0.0,0.0,0.0,0.0,0.0,0.0,0.0,0.0,0.0,0.0,0.0,0.0,0.0,0.0,0.0,0.0,0.0,0.0,0.0,0.0,0.0,0.0,0.0,0.0,0.0,0.0,10.9099,11.1065,11.3768,11.4812,11.4136,11.0819,10.7072,0.0,0.0,0.0,0.0,0.0,0.0,0.0,0.0,0.0,0.0,0.0,0.0,0.0,0.0,0.0,0.0,0.0,0.0,0.0,0.0,0.0,0.0,0.0,0.0,0.0,0.0,0.0,0.0,0.0,0.0,0.0,0.0,0.0,0.0,0.0,0.0,0.0,0.0,0.0,0.0,0.0,0.0,0.0,0.0,0.0,0.0,0.0,0.0,0.0,0.0,0.0,0.0,0.0,0.0,0.0,0.0,0.0,0.0,0.0,0.0,0.0,0.0,0.0,0.0,0.0,0.0,0.0,0.0,0.0,0.0,0.0,0.0,0.0,0.0,0.0,0.0,0.0,0.0,0.0,0.0,0.0,0.0,0.0,0.0,0.0,0.0,0.0,0.0,0.0,0.0,0.0,0.0,0.0,0.0,0.0,0.0,0.0,0.0,0.0,0.0,0.0,0.0,0.0,0.0,0.0,0.0,0.0,0.0,10.7256,10.8362,11.1645,11.3059,11.2416,10.7686,10.3652,0.0,0.0,0.0,0.0,0.0,0.0,0.0,0.0,0.0,0.0,0.0,0.0,0.0,0.0,0.0,0.0,0.0,0.0,0.0,0.0,0.0,0.0,0.0,0.0,0.0,0.0,0.0,0.0,0.0,0.0,0.0,0.0,0.0,0.0,0.0,0.0,0.0,0.0,0.0,0.0,0.0,0.0,0.0,0.0,0.0,0.0,0.0,0.0,10.5535,0.0,0.0,0.0,0.0,0.0,0.0,0.0,0.0,0.0,0.0,0.0,0.0,0.0,0.0,0.0,0.0,0.0,0.0,0.0,0.0,0.0,0.0,0.0,0.0,0.0,0.0,0.0,0.0,0.0,0.0,0.0,0.0,0.0,0.0,0.0,0.0,0.0,0.0,0.0,0.0,0.0,0.0,0.0,0.0,0.0,0.0,0.0,0.0,0.0,0.0,0.0,0.0,0.0,0.0,0.0,0.0,0.0,0.0,0.0,10.5413,10.5659,11.0635,11.2198,10.9652,10.6765,10.3097,0.0,0.0,0.0,0.0,0.0,0.0,0.0,0.0,0.0,0.0,0.0,0.0,0.0,0.0,0.0,0.0,0.0,0.0,0.0,0.0,0.0,0.0,0.0,0.0,0.0,0.0,0.0,0.0,0.0,0.0,0.0,0.0,0.0,0.0,0.0,0.0,0.0,0.0,0.0,0.0,0.0,0.0,0.0,0.0,0.0,0.0,0.0,0.0,0.0,0.0,0.0,0.0,0.0,0.0,0.0,0.0,0.0,0.0,0.0,0.0,0.0,0.0,0.0,0.0,0.0,0.0,0.0,0.0,0.0,0.0,0.0,0.0,0.0,0.0,0.0,0.0,0.0,0.0,0.0,0.0,0.0,0.0,0.0,0.0,0.0,0.0,0.0,0.0,0.0,0.0,0.0,0.0,0.0,0.0,0.0,0.0,0.0,0.0,0.0,0.0,0.0,0.0,0.0,0.0,0.0,0.0,0.0,0.0,10.3202,10.4062,10.8546,10.9283,10.5843,10.3079,10.035,0.0,0.0,0.0,0.0,0.0,0.0,0.0,0.0,0.0,0.0,0.0,0.0,0.0,0.0,0.0,0.0,0.0,0.0,0.0,0.0,0.0,0.0,0.0,0.0,0.0,0.0,0.0,0.0,0.0,0.0,0.0,0.0,0.0,0.0,0.0,0.0,0.0,0.0,0.0,0.0,0.0,0.0,0.0,0.0,0.0,0.0,0.0,0.0,0.0,0.0,0.0,0.0,0.0,0.0,0.0,0.0,0.0,0.0,0.0,0.0,0.0,0.0,0.0,0.0,0.0,0.0,0.0,0.0,0.0,0.0,0.0,0.0,0.0,0.0,0.0,0.0,0.0,0.0,0.0,0.0,0.0,0.0,0.0,0.0,0.0,0.0,0.0,0.0,0.0,0.0,0.0,0.0,0.0,0.0,0.0,0.0,0.0,0.0,0.0,0.0,0.0,0.0,0.0,0.0,0.0,0.0,0.0,0.0,0.0,10.2649,10.486,10.4698,10.1907,9.9427,9.7289,0.0,0.0,0.0,0.0,0.0,0.0,0.0,0.0,0.0,0.0,0.0,0.0,0.0,0.0,0.0,0.0,0.0,0.0,0.0,0.0,0.0,0.0,0.0,0.0,0.0,0.0,0.0,0.0,0.0,0.0,0.0,0.0,0.0,0.0,0.0,0.0,0.0,0.0,0.0,0.0,0.0,0.0,0.0,0.0,0.0,0.0,0.0,0.0,0.0,0.0,0.0,0.0,0.0,0.0,0.0,0.0,0.0,0.0,0.0,0.0,0.0,0.0,0.0,0.0,0.0,0.0,0.0,0.0,0.0,0.0,0.0,0.0,0.0,0.0,0.0,0.0,0.0,0.0,0.0,0.0,0.0,0.0,0.0,0.0,0.0,0.0,0.0,0.0,0.0,0.0,0.0,0.0,0.0,0.0,0.0,0.0,0.0,0.0,0.0,0.0,0.0,0.0,0.0,0.0,0.0,0.0,0.0,0.0,0.0,10.1175,9.8902,9.8044,9.8421,9.6394,9.4108,0.0,0.0,0.0,0.0,0.0,0.0,0.0,0.0,0.0,0.0,0.0,0.0,0.0,0.0,0.0,0.0,0.0,0.0,0.0,0.0,0.0,0.0,0.0,0.0,0.0,0.0,0.0,0.0,0.0,0.0,0.0,0.0,0.0,0.0,0.0,0.0,0.0,0.0,0.0,0.0,0.0,0.0,0.0,0.0,0.0,0.0,0.0,0.0,0.0,0.0,0.0,0.0,0.0,0.0,0.0,0.0,0.0,0.0,0.0,0.0,0.0,0.0,0.0,0.0,0.0,0.0,0.0,0.0,0.0,0.0,0.0,0.0,0.0,0.0,0.0,0.0,0.0,0.0,0.0,0.0,0.0,0.0,0.0,0.0,0.0,0.0,0.0,0.0,0.0,0.0,0.0,0.0,0.0,0.0,0.0,0.0,0.0,0.0,0.0,0.0,0.0,0.0,0.0,0.0,0.0,0.0,0.0,0.0,0.0,9.7243,9.758,9.7238,9.6284,9.4282,9.1702,8.861,0.0,0.0,0.0,0.0,0.0,0.0,0.0,0.0,0.0,0.0,0.0,0.0,0.0,0.0,0.0,0.0,0.0,0.0,0.0,0.0,0.0,0.0,0.0,0.0,0.0,0.0,0.0,0.0,0.0,0.0,0.0,0.0,0.0,0.0,0.0,0.0,0.0,0.0,0.0,0.0,0.0,0.0,0.0,0.0,0.0,0.0,0.0,0.0,0.0,0.0,0.0,0.0,0.0,0.0,0.0,0.0,0.0,0.0,0.0,0.0,0.0,0.0,0.0,0.0,0.0,0.0,0.0,0.0,0.0,0.0,0.0,0.0,0.0,0.0,0.0,0.0,0.0,0.0,0.0,0.0,0.0,0.0,0.0,0.0,0.0,0.0,0.0,0.0,0.0,0.0,0.0,0.0,0.0,0.0,0.0,0.0,0.0,0.0,0.0,0.0,0.0,0.0,0.0,0.0,0.0,0.0,0.0,0.0,9.3189,9.4938,9.5148,9.3568,9.2374,9.0207,0.0,0.0,0.0,0.0,0.0,0.0,0.0,0.0,0.0,0.0,0.0,0.0,0.0,0.0,0.0,0.0,0.0,0.0,0.0,0.0,0.0,0.0,0.0,0.0,0.0,0.0,0.0,0.0,0.0,0.0,0.0,0.0,0.0,0.0,0.0,0.0,0.0,0.0,0.0,0.0,0.0,0.0,0.0,0.0,0.0,0.0,0.0,0.0,0.0,0.0,0.0,0.0,0.0,0.0,0.0,0.0,0.0,0.0,0.0,0.0,0.0,0.0,0.0,0.0,0.0,0.0,0.0,0.0,0.0,0.0,0.0,0.0,0.0,0.0,0.0,0.0,0.0,0.0,0.0,0.0,0.0,0.0,0.0,0.0,0.0,0.0,0.0,0.0,0.0,0.0,0.0,0.0,0.0,0.0,0.0,0.0,0.0,0.0,0.0,0.0,0.0,0.0,0.0,0.0,0.0,0.0,0.0,0.0,8.9196,8.9257,9.0486,9.1038,9.012,9.0667,8.9433,0.0,0.0,0.0,0.0,0.0,0.0,0.0,0.0,0.0,0.0,0.0,0.0,0.0,0.0,0.0,0.0,0.0,0.0,0.0,0.0,0.0,0.0,0.0,0.0,0.0,0.0,0.0,0.0,0.0,0.0,0.0,0.0,0.0,0.0,0.0,0.0,0.0,0.0,0.0,0.0,0.0,0.0,0.0,0.0,0.0,0.0,0.0,0.0,0.0,0.0,0.0,0.0,0.0,0.0,0.0,0.0,0.0,0.0,0.0,0.0,0.0,0.0,0.0,0.0,0.0,0.0,0.0,0.0,0.0,0.0,0.0,0.0,0.0,0.0,0.0,0.0,0.0,0.0,0.0,0.0,0.0,0.0,0.0,0.0,0.0,0.0,0.0,0.0,0.0,0.0,0.0,0.0,0.0,0.0,0.0,0.0,0.0,0.0,0.0,0.0,0.0,0.0,0.0,0.0,0.0,0.0,0.0,0.0,0.0,9.0302,0.0,9.1445,0.0,8.958,8.7421,0.0,0.0,0.0,0.0,0.0,0.0,0.0,0.0,0.0,0.0,0.0,0.0,0.0,0.0,0.0,0.0,0.0,0.0,0.0,0.0,0.0,0.0,0.0,0.0,0.0,0.0,0.0,0.0,0.0,0.0,0.0,0.0,0.0,0.0,0.0,0.0,0.0,0.0,0.0,0.0,0.0,0.0,0.0,0.0,0.0,0.0,0.0,0.0,0.0,0.0,0.0,0.0,0.0,0.0,0.0,0.0,0.0,0.0,0.0,0.0,0.0,0.0,0.0,0.0,0.0,0.0,0.0,0.0,0.0,0.0,0.0,0.0,0.0,0.0,0.0,0.0,0.0,0.0,0.0,0.0,0.0,0.0,0.0,0.0,0.0,0.0,0.0,0.0,0.0,0.0,0.0,0.0,0.0,0.0,0.0,0.0,0.0,0.0,0.0,0.0,0.0,0.0,0.0,0.0,0.0,0.0,0.0,0.0,0.0,8.9503,9.0491,9.0553,8.9503,8.975,8.7718,0.0,0.0,0.0,0.0,0.0,0.0,0.0,0.0,0.0,0.0,0.0,0.0,0.0,0.0,0.0,0.0,0.0,0.0,0.0,0.0,0.0,0.0,0.0,0.0,0.0,0.0,0.0,0.0,0.0,0.0,0.0,0.0,0.0,0.0,0.0,0.0,0.0,0.0,0.0,0.0,0.0,0.0,0.0,0.0,0.0,0.0,0.0,0.0,0.0,0.0,0.0,0.0,0.0,0.0,0.0,0.0,0.0,0.0,0.0,0.0,0.0,0.0,0.0,0.0,0.0,0.0,0.0,0.0,0.0,0.0,0.0,0.0,0.0,0.0,0.0,0.0,0.0,0.0,0.0,0.0,0.0,0.0,0.0,0.0,0.0,0.0,0.0,0.0,0.0,0.0,0.0,0.0,0.0,0.0,0.0,0.0,0.0,0.0,0.0,0.0,0.0,0.0,0.0,0.0,0.0,0.0,0.0,0.0,0.0,0.0,8.8397,8.8397,8.723,9.0793,8.9749,0.0,0.0,0.0,0.0,0.0,0.0,0.0,0.0,0.0,0.0,0.0,0.0,0.0,0.0,0.0,0.0,0.0,0.0,0.0,0.0,0.0,0.0,0.0,0.0,0.0,0.0,0.0,0.0,0.0,0.0,0.0,0.0,0.0,0.0,0.0,0.0,0.0,0.0,0.0,0.0,0.0,0.0,0.0,0.0,0.0,0.0,0.0,0.0,0.0,0.0,0.0,0.0,0.0,0.0,0.0,0.0,0.0,0.0,0.0,0.0,0.0,0.0,0.0,0.0,0.0,0.0,0.0,0.0,0.0,0.0,0.0,0.0,0.0,0.0,0.0,0.0,0.0,0.0,0.0,0.0,0.0,0.0,0.0,0.0,0.0,0.0,0.0,0.0,0.0,0.0,0.0,0.0,0.0,0.0,0.0,0.0,0.0,0.0,0.0,0.0,0.0,0.0,0.0,0.0,0.0,0.0,0.0,0.0,0.0,0.0,8.8827,0.0,8.8459,8.8582,8.7353,8.4527,0.0,0.0,0.0,0.0,0.0,0.0,0.0,0.0,0.0,0.0,0.0,0.0,0.0,0.0,0.0,0.0,0.0,0.0,0.0,0.0,0.0,0.0,0.0,0.0,0.0,0.0,0.0,0.0,0.0,0.0,0.0,0.0,0.0,0.0,0.0,0.0,0.0,0.0,0.0,0.0,0.0,0.0,0.0,0.0,0.0,0.0,0.0,0.0,0.0,0.0,0.0,0.0,0.0,0.0,0.0,0.0,0.0,0.0,0.0,0.0,0.0,0.0,0.0,0.0,0.0,0.0,0.0,0.0,0.0,0.0,0.0,0.0,0.0,0.0,0.0,0.0,0.0,0.0,0.0,0.0,0.0,0.0,0.0,0.0,0.0,0.0,0.0,0.0,0.0,0.0,0.0,0.0,0.0,0.0,0.0,0.0,0.0,0.0,0.0,0.0,0.0,0.0,0.0,0.0,0.0,0.0,0.0,0.0,0.0,0.0,0.0,8.8213,8.7353,8.6063,0.0,0.0,0.0,0.0,0.0,0.0,0.0,0.0,0.0,0.0,0.0,0.0,0.0,0.0,0.0,0.0,0.0,0.0,0.0,0.0,0.0,0.0,0.0,0.0,0.0,0.0,0.0,0.0,0.0,0.0,0.0,0.0,0.0,0.0,0.0,0.0,0.0,0.0,0.0,0.0,0.0,0.0,0.0,0.0,0.0,0.0,0.0,0.0,0.0,0.0,0.0,0.0,0.0,0.0,0.0,0.0,0.0,0.0,0.0,0.0,0.0,0.0,0.0,0.0,0.0,0.0,0.0,0.0,0.0,0.0,0.0,0.0,0.0,0.0,0.0,0.0,0.0,0.0,0.0,0.0,0.0,0.0,0.0,0.0,0.0,0.0,0.0,0.0,0.0,0.0,0.0,0.0,0.0,0.0,0.0,0.0,0.0,0.0,0.0,0.0,0.0,0.0,0.0,0.0,0.0,0.0,0.0,0.0,0.0,0.0,0.0,8.8213,8.7292,8.6677,0.0,8.3483,0.0,0.0,0.0,0.0,0.0,0.0,0.0,0.0,0.0,0.0,0.0,0.0,0.0,0.0,0.0,0.0,0.0,0.0,0.0,0.0,0.0,0.0,0.0,0.0,0.0,0.0,0.0,0.0,0.0,0.0,0.0,0.0,0.0,0.0,0.0,0.0,0.0,0.0,0.0,0.0,0.0,0.0,0.0,0.0,0.0,0.0,0.0,0.0,0.0,0.0,0.0,0.0,0.0,0.0,0.0,0.0,0.0,0.0,0.0,0.0,0.0,0.0,0.0,0.0,0.0,0.0,0.0,0.0,0.0,0.0,0.0,0.0,0.0,0.0,0.0,0.0,0.0,0.0,0.0,0.0,0.0,0.0,0.0,0.0,0.0,0.0,0.0,0.0,0.0,0.0,0.0,0.0,0.0,0.0,0.0,0.0,0.0,0.0,0.0,0.0,0.0,0.0,0.0,0.0,0.0,0.0,0.0,0.0,0.0,0.0,0.0,0.0,8.4957,8.3421,8.5756,0.0,0.0,0.0,0.0,0.0,0.0,0.0,0.0,0.0,0.0,0.0,0.0,0.0,0.0,0.0,0.0,0.0,0.0,0.0,0.0,0.0,0.0,0.0,0.0,0.0,0.0,0.0,0.0,0.0,0.0,0.0,0.0,0.0,0.0,0.0,0.0,0.0,0.0,0.0,0.0,0.0,0.0,0.0,0.0,0.0,0.0,0.0,0.0,0.0,0.0,0.0,0.0,0.0,0.0,0.0,0.0,0.0,0.0,0.0,0.0,0.0,0.0,0.0,0.0,0.0,0.0,0.0,0.0,0.0,0.0,0.0,0.0,0.0,0.0,0.0,0.0,0.0,0.0,0.0,0.0,0.0,0.0,0.0,0.0,0.0,0.0,0.0,0.0,0.0,0.0,0.0,0.0,0.0,0.0,0.0,0.0,0.0,0.0,0.0,0.0,0.0,0.0,0.0,0.0,0.0,0.0,0.0,0.0,0.0,0.0,8.6616,8.9872,8.5326,8.379,8.5811,0.0,0.0,0.0,0.0,0.0,0.0,0.0,0.0,0.0,0.0,0.0,0.0,0.0,0.0,0.0,0.0,0.0,0.0,0.0,0.0,0.0,0.0,0.0,0.0,0.0,0.0,0.0,0.0,0.0,0.0,0.0,0.0,0.0,0.0,0.0,0.0,0.0,0.0,0.0,0.0,0.0,0.0,0.0,0.0,0.0,0.0,0.0,0.0,0.0,0.0,0.0,0.0,0.0,0.0,0.0,0.0,0.0,0.0,0.0,0.0,0.0,0.0,0.0,0.0,0.0,0.0,0.0,0.0,0.0,0.0,0.0,0.0,0.0,0.0,0.0,0.0,0.0,0.0,0.0,0.0,0.0,0.0,0.0,0.0,0.0,0.0,0.0,0.0,0.0,0.0,0.0,0.0,0.0,0.0,0.0,0.0,0.0,0.0,0.0,0.0,0.0,0.0,0.0,0.0,0.0,0.0,0.0,0.0,0.0,0.0,0.0,0.0,0.0,0.0,8.4583,0.0,0.0,0.0,0.0,0.0,0.0,0.0,0.0,0.0,0.0,0.0,0.0,0.0,0.0,0.0,0.0,0.0,0.0,0.0,0.0,0.0,0.0,0.0,0.0,0.0,0.0,0.0,0.0,0.0,0.0,0.0,0.0,0.0,0.0,0.0,0.0,0.0,0.0,0.0,0.0,0.0,0.0,0.0,0.0,0.0,0.0,0.0,0.0,0.0,0.0,0.0,0.0,0.0,0.0,0.0,0.0,0.0,0.0,0.0,0.0,0.0,0.0,0.0,0.0,0.0,0.0,0.0,0.0,0.0,0.0,0.0,0.0,0.0,0.0,0.0,0.0,0.0,0.0,0.0,0.0,0.0,0.0,0.0,0.0,0.0,0.0,0.0,0.0,0.0,0.0,0.0,0.0,0.0,0.0,0.0,0.0,0.0,0.0,0.0,0.0,0.0,0.0,0.0,0.0,0.0,0.0,0.0,0.0,0.0,0.0,0.0,0.0,0.0,0.0,0.0,0.0,0.0,0.0,0.0,0.0,0.0,0.0,0.0,0.0,0.0,0.0,0.0,0.0,0.0,0.0,0.0,0.0,0.0,0.0,0.0,0.0,0.0,0.0,0.0,0.0,0.0,0.0,0.0,0.0,0.0,0.0,0.0,0.0,0.0,0.0,0.0,0.0,0.0,0.0,0.0,0.0,0.0,0.0,0.0,0.0,0.0,0.0,0.0,0.0,0.0,0.0,0.0,0.0,0.0,0.0,0.0,0.0,0.0,0.0,0.0,0.0,0.0,0.0,0.0,0.0,0.0,0.0,0.0,0.0,0.0,0.0,0.0,0.0,0.0,0.0,0.0,0.0,0.0,0.0,0.0,0.0,0.0,0.0,0.0,0.0,0.0,0.0,0.0,0.0,0.0,0.0,0.0,0.0,0.0,0.0,0.0,0.0,0.0,0.0,0.0,0.0,0.0,0.0,0.0,0.0,0.0,0.0,0.0,0.0,0.0,0.0,0.0,0.0,0.0,0.0,0.0,0.0,0.0,0.0,0.0,0.0,0.0,0.0,0.0,0.0,0.0,0.0,0.0,0.0,0.0,0.0,0.0,0.0,0.0,0.0,0.0,0.0,0.0,0.0,0.0,0.0,0.0,0.0,0.0,0.0,0.0,0.0,0.0,0.0,0.0,0.0,0.0,0.0,0.0,0.0,0.0,0.0,0.0,0.0,0.0,0.0,0.0,0.0,0.0,0.0,0.0,0.0,0.0,0.0,0.0,0.0,0.0,0.0,0.0,0.0,0.0,0.0,0.0,0.0,0.0,0.0,0.0,0.0,0.0,0.0,0.0,0.0,0.0,0.0,0.0,0.0,0.0,0.0,0.0,0.0,0.0,0.0,0.0,0.0,0.0,0.0,0.0,0.0,0.0,0.0,0.0,0.0,0.0,0.0,0.0,0.0,0.0,0.0,0.0,0.0,0.0,0.0,0.0,0.0,0.0,0.0,0.0,0.0,0.0,0.0,0.0,0.0,0.0,0.0,0.0,0.0,0.0,0.0,0.0,0.0,0.0,0.0,0.0,0.0,0.0,0.0,0.0,0.0,0.0,0.0,0.0,0.0,0.0,0.0,0.0,0.0,0.0,0.0,0.0,0.0,0.0,0.0,0.0,0.0,0.0,0.0,0.0,0.0,0.0,0.0,0.0,0.0,0.0,0.0,0.0,0.0,0.0,0.0,0.0,0.0,0.0,0.0,0.0,0.0,0.0,0.0,0.0,0.0,0.0,0.0,0.0,0.0,0.0,0.0,0.0,0.0,0.0,0.0,0.0,0.0,0.0,0.0,0.0,0.0,0.0,0.0,0.0,0.0,0.0,0.0,0.0,0.0,0.0,0.0,0.0,0.0,0.0,0.0,0.0,0.0,0.0,0.0,0.0,0.0,0.0,0.0,0.0,0.0,0.0,0.0,0.0,0.0,0.0,0.0,0.0,0.0,0.0,0.0,0.0,0.0,0.0,0.0,0.0,0.0,0.0,0.0,0.0,0.0,0.0,0.0,0.0,0.0,0.0,0.0,0.0,0.0,0.0,0.0,0.0,0.0,0.0,0.0,0.0,0.0,0.0,0.0,0.0,0.0,0.0,0.0,0.0,0.0,0.0,0.0,0.0,0.0,0.0,0.0,0.0,0.0,0.0,0.0,0.0,0.0,0.0,0.0,0.0,0.0,0.0,0.0,0.0,0.0,0.0,0.0,0.0,0.0,0.0,0.0,0.0,0.0,0.0,0.0,0.0,0.0,0.0,0.0,0.0,0.0,0.0,0.0,0.0,0.0,0.0,0.0,0.0,0.0,0.0,0.0,0.0,0.0,0.0,0.0,0.0,0.0,0.0,0.0,0.0,0.0,0.0,0.0,0.0,0.0,0.0,0.0,0.0,0.0,0.0,0.0,0.0,0.0,0.0,0.0,0.0,0.0,0.0,0.0,0.0,0.0,0.0,0.0,0.0,0.0,0.0,0.0,0.0,0.0,0.0,0.0,0.0,0.0,0.0,0.0,0.0,0.0,0.0,0.0,0.0,0.0,0.0,0.0,0.0,0.0,0.0,0.0,0.0,0.0,0.0,0.0,0.0,0.0,0.0,0.0,0.0,0.0,0.0,0.0,0.0,0.0,0.0,0.0,0.0,0.0,0.0,0.0,0.0,0.0,0.0,0.0,0.0,0.0,0.0,0.0,0.0,0.0,0.0,0.0,0.0,0.0,0.0,0.0,0.0,0.0,0.0,0.0,0.0,0.0,0.0,0.0,0.0,0.0,0.0,0.0,0.0,0.0,0.0,0.0,0.0,0.0,0.0,0.0,0.0,0.0,0.0,0.0,0.0,0.0,0.0,0.0,0.0,0.0,0.0,0.0,0.0,0.0,0.0,0.0,0.0,0.0,0.0,0.0,0.0,0.0,0.0,0.0,0.0,0.0,0.0,0.0,0.0,0.0,0.0,0.0,0.0,0.0,0.0,0.0,0.0,0.0,0.0,0.0,0.0,0.0,0.0,0.0,0.0,0.0,0.0,0.0,0.0,0.0,0.0,0.0,0.0,0.0,0.0,0.0,0.0,0.0,0.0,0.0,0.0,0.0,0.0,0.0,0.0,0.0,0.0,0.0,0.0,0.0,0.0,0.0,0.0,0.0,0.0,0.0,0.0,0.0,0.0,0.0,0.0,0.0,0.0,0.0,0.0,0.0,0.0,0.0,0.0,0.0,0.0,0.0,0.0,0.0,0.0,0.0,0.0,0.0,0.0,0.0,0.0,0.0,0.0,0.0,0.0,0.0,0.0,0.0,0.0,0.0,0.0,0.0,0.0,0.0,0.0,0.0,0.0,0.0,0.0,0.0,0.0,0.0,0.0,0.0,0.0,0.0,0.0,0.0,0.0,0.0,0.0,0.0,0.0,0.0,0.0,0.0,0.0,0.0,0.0,0.0,0.0,0.0,0.0,0.0,0.0,0.0,0.0,0.0,0.0,0.0,0.0,0.0,0.0,0.0,0.0,0.0,0.0,0.0,0.0,0.0,0.0,0.0,0.0,0.0,0.0,0.0,0.0,0.0,0.0,0.0,0.0,0.0,0.0,0.0,0.0,0.0,0.0,0.0,0.0,0.0,0.0,0.0,0.0,0.0,0.0,0.0,0.0,0.0,0.0,0.0,0.0,0.0,0.0,0.0,0.0,0.0,0.0,0.0,0.0,0.0,0.0,0.0,0.0,0.0,0.0,0.0,0.0,0.0,0.0,0.0,0.0,0.0,0.0,0.0,0.0,0.0,0.0,0.0,0.0,0.0,0.0,0.0,0.0,0.0,0.0,0.0,0.0,0.0,0.0,0.0,0.0,0.0,0.0,0.0,0.0,0.0,0.0,0.0,0.0,0.0,0.0,0.0,0.0,0.0,0.0,0.0,0.0,0.0,0.0,0.0,0.0,0.0,0.0,0.0,0.0,0.0,0.0,0.0,0.0,0.0,0.0,0.0,0.0,0.0,0.0,0.0,0.0,0.0,0.0,0.0,0.0,0.0,0.0,0.0,0.0,0.0,0.0,0.0,0.0,0.0,0.0,0.0,0.0,0.0,0.0,0.0,0.0,0.0,0.0,0.0,0.0,0.0,0.0,0.0,0.0,0.0,0.0,0.0,0.0,0.0,0.0,0.0,0.0,0.0,0.0,0.0,0.0,0.0,0.0,0.0,0.0,0.0,0.0,0.0,0.0,0.0,0.0,0.0,0.0,0.0,0.0,0.0,0.0,0.0,0.0,0.0,0.0,0.0,0.0,0.0,0.0,0.0,0.0,0.0,0.0,0.0,0.0,0.0,0.0,0.0,0.0,0.0,0.0,0.0,0.0,0.0,0.0,0.0]}]]]